[[{"header":{"parameterUnit":"m.s-1","parameterCategory":1,"la1":31.0,"la2":29.5877,"lo1":-88.7671,"lo2":-86.6584,"dy":0.0162,"dx":0.0185,"nx":115,"ny":88,"refTime":"2023-08-20T12:00:00:Z","depth":0,"parameterNumber":2,"parameterNumberName":"U-component_of_WINDS"},"data":[0.0,0.0,0.0,0.0,0.0,0.0,0.0,0.0,0.0,0.0,0.0,0.0,0.0,0.0,0.0,0.0,0.0,0.0,0.0,0.0,0.0,0.0,0.0,0.0,0.0,0.0,0.0,0.0,0.0,0.0,0.0,0.0,0.0,0.0,0.0,0.0,0.0,0.0,0.0,0.0,0.0,0.0,0.0,0.0,0.0,0.0,0.0,0.0,0.0,0.0,0.0,0.0,0.0,0.0,0.0,0.0,0.0,0.0,0.0,0.0,0.0,0.0,0.0,0.0,0.0,0.0,0.0,0.0,0.0,0.0,0.0,0.0,0.0,0.0,0.0,0.0,0.0,0.0,0.0,0.0,0.0,0.0,0.0,0.0,0.0,0.0,0.0,0.0,0.0,0.0,0.0,0.0,0.0,0.0,0.0,0.0,0.0,0.0,0.0,0.0,0.0,0.0,0.0,0.0,0.0,0.0,0.0,0.0,0.0,0.0,0.0,0.0,0.0,0.0,0.0,0.0,0.0,0.0,0.0,0.0,0.0,0.0,0.0,0.0,0.0,0.0,0.0,0.0,0.0,0.0,0.0,0.0,0.0,0.0,0.0,0.0,0.0,0.0,0.0,0.0,0.0,0.0,0.0,0.0,0.0,0.0,0.0,0.0,0.0,0.0,0.0,0.0,0.0,0.0,0.0,0.0,0.0,0.0,0.0,0.0,0.0,0.0,0.0,0.0,0.0,0.0,0.0,0.0,0.0,0.0,0.0,0.0,0.0,0.0,0.0,0.0,0.0,0.0,0.0,0.0,0.0,0.0,0.0,0.0,0.0,0.0,0.0,0.0,0.0,0.0,0.0,0.0,0.0,0.0,0.0,0.0,0.0,0.0,0.0,0.0,0.0,0.0,0.0,0.0,0.0,0.0,0.0,0.0,0.0,0.0,0.0,0.0,0.0,0.0,0.0,0.0,0.0,0.0,0.0,0.0,0.0,0.0,0.0,0.0,0.0,0.0,0.0,0.0,0.0,0.0,0.0,0.0,0.0,0.0,0.0,0.0,0.0,0.0,0.0,0.0,0.0,0.0,0.0,0.0,0.0,0.0,0.0,0.0,0.0,0.0,0.0,0.0,0.0,0.0,0.0,0.0,0.0,0.0,0.0,0.0,0.0,0.0,0.0,0.0,0.0,0.0,0.0,0.0,0.0,0.0,0.0,0.0,0.0,0.0,0.0,0.0,0.0,0.0,0.0,0.0,0.0,0.0,0.0,0.0,0.0,0.0,0.0,0.0,0.0,0.0,0.0,0.0,0.0,0.0,0.0,0.0,0.0,0.0,0.0,0.0,0.0,0.0,0.0,0.0,0.0,0.0,0.0,0.0,0.0,0.0,0.0,0.0,0.0,0.0,0.0,0.0,0.0,0.0,0.0,0.0,0.0,0.0,0.0,0.0,0.0,0.0,0.0,0.0,0.0,0.0,0.0,0.0,0.0,0.0,0.0,0.0,0.0,0.0,0.0,0.0,0.0,0.0,0.0,0.0,0.0,0.0,0.0,0.0,0.0,0.0,0.0,0.0,0.0,0.0,0.0,0.0,0.0,0.0,0.0,0.0,0.0,0.0,0.0,0.0,0.0,0.0,0.0,0.0,0.0,0.0,0.0,0.0,0.0,0.0,0.0,0.0,0.0,0.0,0.0,0.0,0.0,0.0,0.0,0.0,0.0,0.0,0.0,0.0,0.0,0.0,0.0,0.0,0.0,0.0,0.0,0.0,0.0,0.0,0.0,0.0,0.0,0.0,0.0,0.0,0.0,0.0,0.0,0.0,0.0,0.0,0.0,0.0,0.0,0.0,0.0,0.0,0.0,0.0,0.0,0.0,0.0,0.0,0.0,0.0,0.0,0.0,0.0,0.0,0.0,0.0,0.0,0.0,0.0,0.0,0.0,0.0,0.0,0.0,0.0,0.0,0.0,0.0,0.0,0.0,0.0,0.0,0.0,0.0,0.0,0.0,0.0,0.0,0.0,0.0,0.0,0.0,0.0,0.0,0.0,0.0,0.0,0.0,0.0,0.0,0.0,0.0,0.0,0.0,0.0,0.0,0.0,0.0,0.0,0.0,0.0,0.0,0.0,0.0,0.0,0.0,0.0,0.0,0.0,0.0,0.0,0.0,0.0,0.0,0.0,0.0,0.0,0.0,0.0,0.0,0.0,0.0,0.0,0.0,0.0,0.0,0.0,0.0,0.0,0.0,0.0,0.0,0.0,0.0,0.0,0.0,0.0,0.0,0.0,0.0,0.0,0.0,0.0,0.0,0.0,0.0,0.0,0.0,0.0,0.0,0.0,0.0,0.0,0.0,0.0,0.0,0.0,0.0,0.0,0.0,0.0,0.0,0.0,0.0,0.0,0.0,0.0,0.0,0.0,0.0,0.0,0.0,0.0,0.0,0.0,0.0,0.0,0.0,0.0,0.0,0.0,0.0,0.0,0.0,0.0,0.0,0.0,0.0,0.0,0.0,0.0,0.0,0.0,0.0,0.0,0.0,0.0,0.0,0.0,0.0,0.0,0.0,0.0,0.0,0.0,0.0,0.0,0.0,0.0,0.0,0.0,0.0,0.0,0.0,0.0,0.0,0.0,0.0,0.0,0.0,0.0,0.0,0.0,0.0,0.0,0.0,0.0,0.0,0.0,0.0,0.0,0.0,0.0,0.0,0.0,0.0,0.0,0.0,0.0,0.0,0.0,0.0,0.0,0.0,0.0,0.0,0.0,0.0,0.0,0.0,0.0,0.0,0.0,0.0,0.0,0.0,0.0,0.0,0.0,0.0,0.0,0.0,0.0,0.0,0.0,0.0,0.0,0.0,0.0,0.0,0.0,0.0,0.0,0.0,0.0,0.0,0.0,0.0,0.0,0.0,0.0,0.0,0.0,0.0,0.0,0.0,0.0,0.0,0.0,0.0,0.0,0.0,0.0,0.0,0.0,0.0,0.0,0.0,0.0,0.0,0.0,0.0,0.0,0.0,0.0,0.0,0.0,0.0,0.0,0.0,0.0,0.0,0.0,0.0,0.0,0.0,0.0,0.0,0.0,0.0,0.0,0.0,0.0,0.0,0.0,0.0,0.0,0.0,0.0,0.0,0.0,0.0,0.0,0.0,0.0,0.0,0.0,0.0,0.0,0.0,0.0,0.0,0.0,0.0,0.0,0.0,0.0,0.0,0.0,0.0,0.0,0.0,0.0,0.0,0.0,0.0,0.0,0.0,0.0,0.0,0.0,0.0,0.0,0.0,0.0,0.0,0.0,0.0,0.0,0.0,0.0,0.0,0.0,0.0,0.0,0.0,0.0,0.0,0.0,0.0,0.0,0.0,0.0,0.0,0.0,0.0,0.0,0.0,0.0,0.0,0.0,0.0,0.0,0.0,0.0,0.0,0.0,0.0,0.0,0.0,0.0,0.0,0.0,0.0,0.0,0.0,0.0,0.0,0.0,0.0,0.0,0.0,0.0,0.0,0.0,0.0,0.0,0.0,0.0,0.0,0.0,0.0,0.0,0.0,0.0,0.0,0.0,0.0,0.0,0.0,0.0,0.0,0.0,0.0,0.0,0.0,0.0,0.0,0.0,0.0,0.0,0.0,0.0,0.0,0.0,0.0,0.0,0.0,0.0,0.0,0.0,0.0,0.0,0.0,0.0,0.0,0.0,0.0,0.0,0.0,0.0,0.0,0.0,0.0,0.0,0.0,0.0,0.0,0.0,0.0,0.0,0.0,0.0,0.0,0.0,0.0,0.0,0.0,0.0,0.0,0.0,0.0,0.0,0.0,0.0,0.0,0.0,0.0,0.0,0.0,0.0,0.0,0.0,0.0,0.0,0.0,0.0,0.0,0.0,0.0,0.0,0.0,0.0,0.0,0.0,0.0,0.0,0.0,0.0,0.0,0.0,0.0,0.0,0.0,0.0,0.0,0.0,0.0,0.0,0.0,0.0,0.0,0.0,0.0,0.0,0.0,0.0,0.0,0.0,0.0,0.0,0.0,0.0,0.0,0.0,0.0,0.0,0.0,0.0,0.0,0.0,0.0,0.0,0.0,0.0,0.0,0.0,0.0,0.0,0.0,0.0,0.0,0.0,0.0,0.0,0.0,0.0,0.0,0.0,0.0,0.0,0.0,0.0,0.0,0.0,0.0,0.0,0.0,0.0,0.0,0.0,0.0,0.0,0.0,0.0,0.0,0.0,0.0,0.0,0.0,0.0,0.0,0.0,0.0,0.0,0.0,0.0,0.0,0.0,0.0,0.0,0.0,1.4256,0.0,0.0,0.0,0.0,0.0,0.0,0.0,0.0,0.0,0.0,0.0,0.0,0.0,0.0,0.0,0.0,0.0,0.0,0.0,0.0,0.0,0.0,0.0,0.0,0.0,0.0,0.0,0.0,0.0,0.0,0.0,0.0,0.0,0.0,0.0,0.0,0.0,0.0,0.0,0.0,0.0,0.0,0.0,0.0,0.0,0.0,0.0,0.0,0.0,0.0,0.0,0.0,0.0,0.0,0.0,0.0,0.0,0.0,0.0,0.0,0.0,0.0,0.0,0.0,0.0,0.0,0.0,0.0,0.0,0.0,0.0,0.0,0.0,0.0,0.0,0.0,0.0,0.0,0.0,0.0,0.0,0.0,0.0,0.0,0.0,0.0,0.0,0.0,0.0,0.0,0.0,0.0,0.0,0.0,0.0,0.0,0.0,0.0,0.0,0.0,0.0,0.0,0.0,0.0,0.0,0.0,0.0,0.0,0.0,0.0,1.5664,1.5349,1.5323,1.5232,1.5137,0.0,0.0,0.0,0.0,0.0,0.0,0.0,0.0,0.0,0.0,0.0,0.0,0.0,0.0,0.0,0.0,0.0,0.0,0.0,0.0,0.0,0.0,0.0,0.0,0.0,0.0,0.0,0.0,0.0,0.0,0.0,0.0,0.0,0.0,0.0,0.0,0.0,0.0,0.0,0.0,0.0,0.0,0.0,0.0,0.0,0.0,0.0,0.0,0.0,0.0,0.0,0.0,0.0,0.0,0.0,0.0,0.0,0.0,0.0,0.0,0.0,0.0,0.0,0.0,0.0,0.0,0.0,0.0,0.0,0.0,0.0,0.0,0.0,0.0,0.0,0.0,0.0,0.0,0.0,0.0,0.0,0.0,0.0,0.0,0.0,0.0,0.0,0.0,0.0,0.0,0.0,0.0,0.0,0.0,0.0,0.0,0.0,0.0,0.0,0.0,0.0,0.0,0.0,0.0,0.0,0.0,0.0,0.0,0.0,0.0,0.0,0.0,1.5837,1.5975,1.6266,0.0,0.0,0.0,0.0,0.0,0.0,0.0,0.0,0.0,0.0,0.0,0.0,0.0,0.0,0.0,0.0,0.0,0.0,0.0,0.0,0.0,0.0,0.0,0.0,0.0,0.0,0.0,0.0,0.0,0.0,0.0,0.0,0.0,0.0,0.0,0.0,0.0,0.0,0.0,0.0,0.0,0.0,0.0,0.0,0.0,0.0,0.0,0.0,0.0,0.0,0.0,0.0,0.0,0.0,0.0,0.0,0.0,0.0,0.0,0.0,0.0,0.0,0.0,0.0,0.0,0.0,0.0,0.0,0.0,0.0,0.0,0.0,0.0,0.0,0.0,0.0,0.0,0.0,0.0,0.0,0.0,0.0,0.0,0.0,0.0,0.0,0.0,0.0,0.0,0.0,0.0,0.0,0.0,0.0,0.0,0.0,0.0,0.0,0.0,0.0,0.0,0.0,0.0,0.0,0.0,0.0,0.0,0.0,0.0,0.0,1.6108,1.5827,1.694,0.0,1.7579,0.0,0.0,0.0,0.0,0.0,0.0,0.0,0.0,0.0,0.0,0.0,0.0,0.0,0.0,0.0,0.0,0.0,0.0,0.0,0.0,0.0,0.0,0.0,0.0,0.0,0.0,0.0,0.0,0.0,0.0,0.0,0.0,0.0,0.0,0.0,0.0,0.0,0.0,0.0,0.0,0.0,0.0,0.0,0.0,0.0,0.0,0.0,0.0,0.0,0.0,0.0,0.0,0.0,0.0,0.0,0.0,0.0,0.0,0.0,0.0,0.0,0.0,0.0,0.0,0.0,0.0,0.0,0.0,0.0,0.0,0.0,0.0,0.0,0.0,0.0,0.0,0.0,0.0,0.0,0.0,0.0,0.0,0.0,0.0,0.0,0.0,0.0,0.0,0.0,0.0,0.0,0.0,0.0,0.0,0.0,0.0,0.0,0.0,0.0,0.0,0.0,0.0,0.0,0.0,0.0,0.0,0.0,0.0,0.0,0.0,1.6251,1.6732,1.7492,1.7663,0.0,0.0,0.0,0.0,0.0,0.0,0.0,0.0,0.0,0.0,0.0,0.0,0.0,0.0,0.0,0.0,0.0,0.0,0.0,0.0,0.0,0.0,0.0,0.0,0.0,0.0,0.0,0.0,0.0,0.0,0.0,0.0,0.0,0.0,0.0,0.0,0.0,0.0,0.0,0.0,0.0,0.0,0.0,0.0,0.0,0.0,0.0,0.0,0.0,0.0,0.0,0.0,0.0,0.0,0.0,0.0,0.0,0.0,0.0,0.0,0.0,0.0,0.0,0.0,0.0,0.0,0.0,0.0,0.0,0.0,0.0,0.0,0.0,0.0,0.0,0.0,0.0,0.0,0.0,0.0,0.0,0.0,0.0,0.0,0.0,0.0,0.0,0.0,0.0,0.0,0.0,0.0,0.0,0.0,0.0,0.0,0.0,0.0,0.0,0.0,0.0,0.0,0.0,0.0,0.0,0.0,0.0,0.0,0.0,0.0,1.6067,1.6704,1.7852,1.7716,1.745,1.7093,0.0,0.0,0.0,0.0,0.0,0.0,0.0,0.0,0.0,0.0,0.0,0.0,0.0,0.0,0.0,0.0,0.0,0.0,0.0,0.0,0.0,0.0,0.0,0.0,0.0,0.0,0.0,0.0,0.0,0.0,0.0,0.0,0.0,0.0,0.0,0.0,0.0,0.0,0.0,0.0,0.0,0.0,0.0,0.0,0.0,0.0,0.0,0.0,0.0,0.0,0.0,0.0,0.0,0.0,0.0,0.0,0.0,0.0,0.0,0.0,0.0,0.0,0.0,0.0,0.0,0.0,0.0,0.0,0.0,0.0,0.0,0.0,0.0,0.0,0.0,0.0,0.0,0.0,0.0,0.0,0.0,0.0,0.0,0.0,0.0,0.0,0.0,0.0,0.0,0.0,0.0,0.0,0.0,0.0,0.0,0.0,0.0,0.0,0.0,0.0,0.0,0.0,0.0,0.0,0.0,0.0,0.0,0.0,1.6227,1.6628,1.7623,1.9105,1.771,1.7141,0.0,0.0,0.0,0.0,0.0,0.0,0.0,0.0,0.0,0.0,0.0,0.0,0.0,0.0,0.0,0.0,0.0,0.0,0.0,0.0,0.0,0.0,0.0,0.0,0.0,0.0,0.0,0.0,0.0,0.0,0.0,0.0,0.0,0.0,0.0,0.0,0.0,0.0,0.0,0.0,0.0,0.0,0.0,0.0,0.0,0.0,0.0,0.0,0.0,0.0,0.0,0.0,0.0,0.0,0.0,0.0,0.0,0.0,0.0,0.0,0.0,0.0,0.0,0.0,0.0,0.0,0.0,0.0,0.0,0.0,0.0,0.0,0.0,0.0,0.0,0.0,0.0,0.0,0.0,0.0,0.0,0.0,0.0,0.0,0.0,0.0,0.0,0.0,0.0,0.0,0.0,0.0,0.0,0.0,0.0,0.0,0.0,0.0,0.0,0.0,0.0,0.0,0.0,0.0,0.0,0.0,0.0,0.0,0.0,1.5357,1.5902,1.6434,1.7,1.7264,1.7371,0.0,0.0,0.0,0.0,0.0,0.0,0.0,0.0,0.0,0.0,0.0,0.0,0.0,0.0,0.0,0.0,0.0,0.0,0.0,0.0,0.0,0.0,0.0,0.0,0.0,0.0,0.0,0.0,0.0,0.0,0.0,0.0,0.0,0.0,0.0,0.0,0.0,0.0,0.0,0.0,0.0,0.0,0.0,0.0,0.0,0.0,0.0,0.0,0.0,0.0,0.0,0.0,0.0,0.0,0.0,0.0,0.0,0.0,0.0,0.0,0.0,0.0,0.0,0.0,0.0,0.0,0.0,0.0,0.0,0.0,0.0,0.0,0.0,0.0,0.0,0.0,0.0,0.0,0.0,0.0,0.0,0.0,0.0,0.0,0.0,0.0,0.0,0.0,0.0,0.0,0.0,0.0,0.0,0.0,0.0,0.0,0.0,0.0,0.0,0.0,0.0,0.0,0.0,0.0,0.0,0.0,0.0,0.0,0.0,1.5145,0.0,1.6321,1.6424,1.7299,1.7472,0.0,0.0,0.0,0.0,0.0,0.0,0.0,0.0,0.0,0.0,0.0,0.0,0.0,0.0,0.0,0.0,0.0,0.0,0.0,0.0,0.0,0.0,0.0,0.0,0.0,0.0,0.0,0.0,0.0,0.0,0.0,0.0,0.0,0.0,0.0,0.0,0.0,0.0,0.0,0.0,0.0,0.0,0.0,0.0,0.0,0.0,0.0,0.0,0.0,0.0,0.0,0.0,0.0,0.0,0.0,0.0,0.0,0.0,0.0,0.0,0.0,0.0,0.0,0.0,0.0,0.0,0.0,0.0,0.0,0.0,0.0,0.0,0.0,0.0,0.0,0.0,0.0,0.0,0.0,0.0,0.0,0.0,0.0,0.0,0.0,0.0,0.0,0.0,0.0,0.0,0.0,0.0,0.0,0.0,0.0,0.0,0.0,0.0,0.0,0.0,0.0,0.0,0.0,0.0,0.0,0.0,0.0,0.0,1.4483,1.5773,1.6708,1.7209,1.7732,1.7682,1.74,0.0,0.0,0.0,0.0,0.0,0.0,0.0,0.0,0.0,0.0,0.0,0.0,0.0,0.0,0.0,0.0,0.0,0.0,0.0,0.0,0.0,0.0,0.0,0.0,0.0,0.0,0.0,0.0,0.0,0.0,0.0,0.0,0.0,0.0,0.0,0.0,0.0,0.0,0.0,0.0,0.0,0.0,0.0,0.0,0.0,0.0,0.0,0.0,0.0,0.0,0.0,0.0,0.0,0.0,0.0,0.0,0.0,0.0,0.0,0.0,0.0,0.0,0.0,0.0,0.0,0.0,0.0,0.0,0.0,0.0,0.0,0.0,0.0,0.0,0.0,0.0,0.0,0.0,0.0,0.0,0.0,0.0,0.0,0.0,0.0,0.0,0.0,0.0,0.0,0.0,0.0,0.0,0.0,0.0,0.0,0.0,0.0,0.0,0.0,0.0,0.0,0.0,0.0,0.0,0.0,0.0,0.0,0.0,0.0,1.3641,1.4406,1.5269,1.6152,1.5857,1.6222,0.0,0.0,0.0,0.0,0.0,0.0,0.0,0.0,0.0,0.0,0.0,0.0,0.0,0.0,0.0,0.0,0.0,0.0,0.0,0.0,0.0,0.0,0.0,0.0,0.0,0.0,0.0,0.0,0.0,0.0,0.0,0.0,0.0,0.0,0.0,0.0,0.0,0.0,0.0,0.0,0.0,0.0,0.0,0.0,0.0,0.0,0.0,0.0,0.0,0.0,0.0,0.0,0.0,0.0,0.0,0.0,0.0,0.0,0.0,0.0,0.0,0.0,0.0,0.0,0.0,0.0,0.0,0.0,0.0,0.0,0.0,0.0,0.0,0.0,0.0,0.0,0.0,0.0,0.0,0.0,0.0,0.0,0.0,0.0,0.0,0.0,0.0,0.0,0.0,0.0,0.0,0.0,0.0,0.0,0.0,0.0,0.0,0.0,0.0,0.0,0.0,0.0,0.0,0.0,0.0,0.0,0.0,0.0,0.0,1.3656,1.4441,1.5369,1.6337,1.6308,1.6555,1.7168,0.0,0.0,0.0,0.0,0.0,0.0,0.0,0.0,0.0,0.0,0.0,0.0,0.0,0.0,0.0,0.0,0.0,0.0,0.0,0.0,0.0,0.0,0.0,0.0,0.0,0.0,0.0,0.0,0.0,0.0,0.0,0.0,0.0,0.0,0.0,0.0,0.0,0.0,0.0,0.0,0.0,0.0,0.0,0.0,0.0,0.0,0.0,0.0,0.0,0.0,0.0,0.0,0.0,0.0,0.0,0.0,0.0,0.0,0.0,0.0,0.0,0.0,0.0,0.0,0.0,0.0,0.0,0.0,0.0,0.0,0.0,0.0,0.0,0.0,0.0,0.0,0.0,0.0,0.0,0.0,0.0,0.0,0.0,0.0,0.0,0.0,0.0,0.0,0.0,0.0,0.0,0.0,0.0,0.0,0.0,0.0,0.0,0.0,0.0,0.0,0.0,0.0,0.0,0.0,0.0,0.0,0.0,0.0,1.5335,1.6463,1.7273,1.7752,1.8404,1.8024,0.0,0.0,0.0,0.0,0.0,0.0,0.0,0.0,0.0,0.0,0.0,0.0,0.0,0.0,0.0,0.0,0.0,0.0,0.0,0.0,0.0,0.0,0.0,0.0,0.0,0.0,0.0,0.0,0.0,0.0,0.0,0.0,0.0,0.0,0.0,0.0,0.0,0.0,0.0,0.0,0.0,0.0,0.0,0.0,0.0,0.0,0.0,0.0,0.0,0.0,0.0,0.0,0.0,0.0,0.0,0.0,0.0,0.0,0.0,0.0,0.0,0.0,0.0,0.0,0.0,0.0,0.0,0.0,0.0,0.0,0.0,0.0,0.0,0.0,0.0,0.0,0.0,0.0,0.0,0.0,0.0,0.0,0.0,0.0,0.0,0.0,0.0,0.0,0.0,0.0,0.0,0.0,0.0,0.0,0.0,0.0,0.0,0.0,0.0,0.0,0.0,0.0,0.0,0.0,0.0,0.0,0.0,0.0,0.0,1.6837,1.8077,1.8512,1.805,1.782,1.7852,0.0,0.0,0.0,0.0,0.0,0.0,0.0,0.0,0.0,0.0,0.0,0.0,0.0,0.0,0.0,0.0,0.0,0.0,0.0,0.0,0.0,0.0,0.0,0.0,0.0,0.0,0.0,0.0,0.0,0.0,0.0,0.0,0.0,0.0,0.0,0.0,0.0,0.0,0.0,0.0,0.0,0.0,0.0,0.0,0.0,0.0,0.0,0.0,0.0,0.0,0.0,0.0,0.0,0.0,0.0,0.0,0.0,0.0,0.0,0.0,0.0,0.0,0.0,0.0,0.0,0.0,0.0,0.0,0.0,0.0,0.0,0.0,0.0,0.0,0.0,0.0,0.0,0.0,0.0,0.0,0.0,0.0,0.0,0.0,0.0,0.0,0.0,0.0,0.0,0.0,0.0,0.0,0.0,0.0,0.0,0.0,0.0,0.0,0.0,0.0,0.0,0.0,0.0,0.0,0.0,0.0,0.0,0.0,1.6894,1.7517,1.9122,1.9558,1.8806,1.9059,1.8948,0.0,0.0,0.0,0.0,0.0,0.0,0.0,0.0,0.0,0.0,0.0,0.0,0.0,0.0,0.0,0.0,0.0,0.0,0.0,0.0,0.0,0.0,0.0,0.0,0.0,0.0,0.0,0.0,0.0,0.0,0.0,0.0,0.0,0.0,0.0,0.0,0.0,0.0,0.0,0.0,0.0,0.0,0.0,0.0,0.0,0.0,0.0,0.0,0.0,0.0,0.0,0.0,0.0,0.0,0.0,0.0,0.0,0.0,0.0,0.0,0.0,0.0,0.0,0.0,0.0,0.0,0.0,0.0,0.0,0.0,0.0,0.0,0.0,0.0,0.0,0.0,0.0,0.0,0.0,0.0,0.0,0.0,0.0,0.0,0.0,0.0,0.0,0.0,0.0,0.0,0.0,0.0,0.0,0.0,0.0,0.0,0.0,0.0,0.0,0.0,0.0,0.0,0.0,0.0,0.0,0.0,0.0,0.0,1.7682,1.7712,1.9639,2.0415,1.9843,2.0988,2.048,0.0,0.0,0.0,0.0,0.0,0.0,0.0,0.0,0.0,0.0,0.0,0.0,0.0,0.0,0.0,0.0,0.0,0.0,0.0,0.0,0.0,0.0,0.0,0.0,0.0,0.0,0.0,0.0,0.0,0.0,0.0,0.0,0.0,0.0,0.0,0.0,0.0,0.0,0.0,0.0,0.0,0.0,0.0,0.0,0.0,0.0,0.0,0.0,0.0,0.0,0.0,0.0,0.0,0.0,0.0,0.0,0.0,0.0,0.0,0.0,0.0,0.0,0.0,0.0,0.0,0.0,0.0,0.0,0.0,0.0,0.0,0.0,0.0,0.0,0.0,0.0,0.0,0.0,0.0,0.0,0.0,0.0,0.0,0.0,0.0,0.0,0.0,0.0,0.0,0.0,0.0,0.0,0.0,0.0,0.0,0.0,0.0,0.0,0.0,0.0,0.0,0.0,0.0,0.0,0.0,0.0,0.0,0.0,1.7682,1.7742,1.969,2.0563,2.0208,2.0416,1.9936,0.0,0.0,0.0,0.0,0.0,0.0,0.0,0.0,0.0,0.0,0.0,0.0,0.0,0.0,0.0,0.0,0.0,0.0,0.0,0.0,0.0,0.0,0.0,0.0,0.0,0.0,0.0,0.0,0.0,0.0,0.0,0.0,0.0,0.0,0.0,0.0,0.0,0.0,0.0,0.0,0.0,0.0,0.0,0.0,0.0,0.0,0.0,0.0,2.278,0.0,0.0,0.0,0.0,0.0,0.0,0.0,0.0,0.0,0.0,0.0,0.0,0.0,0.0,0.0,0.0,0.0,0.0,0.0,0.0,0.0,0.0,0.0,0.0,0.0,0.0,0.0,0.0,0.0,0.0,0.0,0.0,0.0,0.0,0.0,0.0,0.0,0.0,0.0,0.0,0.0,0.0,0.0,0.0,0.0,0.0,0.0,0.0,0.0,0.0,0.0,0.0,0.0,0.0,0.0,0.0,0.0,0.0,0.0,1.8129,1.8315,1.9937,2.0786,2.0648,2.0599,2.0019,0.0,0.0,0.0,0.0,0.0,0.0,0.0,0.0,0.0,0.0,0.0,0.0,0.0,0.0,0.0,0.0,0.0,0.0,0.0,0.0,0.0,0.0,0.0,0.0,0.0,0.0,0.0,0.0,0.0,0.0,0.0,0.0,0.0,0.0,0.0,0.0,0.0,0.0,0.0,0.0,0.0,0.0,0.0,0.0,0.0,0.0,0.0,0.0,0.0,0.0,0.0,0.0,0.0,0.0,0.0,0.0,0.0,0.0,0.0,0.0,0.0,0.0,0.0,0.0,0.0,0.0,0.0,0.0,0.0,0.0,0.0,0.0,0.0,0.0,0.0,0.0,0.0,0.0,0.0,0.0,0.0,0.0,0.0,0.0,0.0,0.0,0.0,0.0,0.0,0.0,0.0,0.0,0.0,0.0,0.0,0.0,0.0,0.0,0.0,0.0,0.0,0.0,0.0,0.0,0.0,0.0,0.0,1.759,1.8407,1.8768,2.0067,2.0862,2.0991,2.1007,2.0366,1.9074,0.0,0.0,0.0,0.0,0.0,0.0,0.0,0.0,0.0,0.0,0.0,0.0,0.0,0.0,0.0,0.0,0.0,0.0,0.0,0.0,0.0,0.0,0.0,0.0,0.0,0.0,0.0,0.0,0.0,0.0,0.0,0.0,0.0,0.0,0.0,0.0,0.0,0.0,1.8894,2.0111,0.0,0.0,0.0,0.0,0.0,0.0,0.0,0.0,2.3878,0.0,0.0,0.0,0.0,0.0,0.0,0.0,0.0,0.0,0.0,0.0,0.0,0.0,0.0,0.0,0.0,0.0,0.0,0.0,0.0,0.0,0.0,0.0,0.0,0.0,0.0,0.0,0.0,0.0,0.0,0.0,0.0,0.0,0.0,0.0,0.0,0.0,0.0,0.0,0.0,0.0,0.0,0.0,0.0,0.0,0.0,0.0,0.0,0.0,0.0,0.0,0.0,0.0,0.0,0.0,0.0,1.5885,1.715,1.7844,1.7923,1.9228,2.0243,2.0975,2.1007,2.0519,1.9471,0.0,0.0,0.0,0.0,0.0,0.0,0.0,0.0,0.0,0.0,0.0,0.0,0.0,0.0,0.0,0.0,0.0,0.0,0.0,0.0,0.0,0.0,0.0,0.0,0.0,0.0,0.0,0.0,0.0,0.0,0.0,0.0,0.0,0.0,0.0,0.0,0.0,0.0,0.0,1.9672,2.045,0.0,0.0,0.0,0.0,0.0,0.0,0.0,0.0,2.3692,0.0,0.0,0.0,0.0,0.0,0.0,0.0,0.0,0.0,0.0,0.0,0.0,0.0,0.0,0.0,0.0,0.0,0.0,0.0,0.0,0.0,0.0,0.0,0.0,0.0,0.0,0.0,0.0,0.0,0.0,0.0,0.0,0.0,0.0,0.0,0.0,0.0,0.0,0.0,0.0,0.0,0.0,0.0,0.0,0.0,0.0,0.0,0.0,0.0,0.0,0.0,0.0,0.0,0.0,0.0,1.6363,1.7677,1.8361,1.8361,1.9892,2.0797,2.0991,2.081,2.0502,0.0,0.0,0.0,0.0,0.0,0.0,0.0,0.0,0.0,0.0,0.0,0.0,0.0,0.0,0.0,0.0,0.0,0.0,0.0,0.0,0.0,0.0,0.0,0.0,0.0,0.0,0.0,0.0,0.0,0.0,0.0,0.0,0.0,0.0,0.0,0.0,0.0,0.0,0.0,0.0,1.9512,2.012,2.0534,0.0,0.0,0.0,0.0,0.0,0.0,2.3798,2.3774,0.0,0.0,0.0,0.0,0.0,0.0,0.0,0.0,0.0,0.0,0.0,0.0,0.0,0.0,0.0,0.0,0.0,0.0,0.0,0.0,0.0,0.0,0.0,0.0,0.0,0.0,0.0,0.0,0.0,0.0,0.0,0.0,0.0,0.0,0.0,0.0,0.0,0.0,0.0,0.0,0.0,0.0,0.0,0.0,0.0,0.0,0.0,0.0,0.0,0.0,0.0,0.0,0.0,0.0,0.0,1.7263,1.8323,1.8887,1.9063,2.0534,2.1244,2.1023,2.0815,2.0702,0.0,0.0,0.0,0.0,0.0,0.0,0.0,0.0,0.0,0.0,0.0,0.0,0.0,0.0,0.0,0.0,0.0,0.0,0.0,0.0,0.0,0.0,0.0,0.0,0.0,0.0,0.0,0.0,0.0,0.0,0.0,0.0,0.0,0.0,0.0,0.0,0.0,0.0,0.0,0.0,0.0,2.0238,2.0264,2.1838,0.0,0.0,0.0,0.0,2.4036,2.3858,0.0,0.0,0.0,0.0,0.0,0.0,0.0,0.0,0.0,0.0,0.0,0.0,0.0,0.0,0.0,0.0,0.0,0.0,0.0,0.0,0.0,0.0,0.0,0.0,0.0,0.0,0.0,0.0,0.0,0.0,0.0,0.0,0.0,0.0,0.0,0.0,0.0,0.0,0.0,0.0,0.0,0.0,0.0,0.0,0.0,0.0,0.0,0.0,0.0,0.0,0.0,0.0,0.0,0.0,0.0,0.0,1.8692,1.8449,1.8641,1.9341,2.0059,2.0616,2.0991,2.1318,2.1363,0.0,0.0,0.0,0.0,0.0,0.0,0.0,0.0,0.0,0.0,0.0,0.0,0.0,0.0,0.0,0.0,0.0,0.0,0.0,0.0,0.0,0.0,0.0,0.0,0.0,0.0,0.0,0.0,0.0,0.0,0.0,0.0,0.0,0.0,0.0,0.0,0.0,0.0,0.0,0.0,0.0,2.1042,2.1085,2.1851,2.248,0.0,0.0,2.3045,2.3653,2.3714,0.0,0.0,0.0,0.0,0.0,0.0,0.0,0.0,0.0,0.0,0.0,0.0,0.0,0.0,0.0,0.0,0.0,0.0,0.0,0.0,0.0,0.0,0.0,0.0,0.0,0.0,0.0,0.0,0.0,0.0,0.0,0.0,0.0,0.0,0.0,0.0,0.0,0.0,0.0,0.0,0.0,0.0,0.0,0.0,0.0,0.0,0.0,0.0,0.0,0.0,0.0,0.0,0.0,0.0,0.0,1.8974,1.9301,1.9467,1.9393,1.9181,2.0368,2.0622,1.9778,2.0134,2.0499,0.0,0.0,0.0,0.0,0.0,0.0,0.0,0.0,0.0,0.0,0.0,0.0,0.0,0.0,0.0,0.0,0.0,0.0,0.0,0.0,0.0,0.0,0.0,0.0,0.0,0.0,0.0,0.0,0.0,0.0,0.0,0.0,0.0,0.0,0.0,0.0,0.0,0.0,0.0,0.0,0.0,0.0,2.1153,2.2143,0.0,0.0,0.0,2.3612,2.3682,0.0,0.0,0.0,0.0,0.0,0.0,0.0,0.0,0.0,0.0,0.0,0.0,0.0,0.0,0.0,0.0,0.0,0.0,0.0,0.0,0.0,0.0,0.0,0.0,0.0,0.0,0.0,0.0,0.0,0.0,0.0,0.0,0.0,0.0,0.0,0.0,0.0,0.0,0.0,0.0,0.0,0.0,0.0,0.0,0.0,0.0,0.0,0.0,0.0,0.0,0.0,0.0,0.0,0.0,0.0,0.0,0.0,2.0036,2.0395,2.0197,1.9484,2.0845,2.0923,1.956,1.9902,0.0,0.0,0.0,0.0,0.0,0.0,0.0,0.0,0.0,0.0,0.0,0.0,0.0,0.0,0.0,0.0,0.0,0.0,0.0,0.0,0.0,0.0,0.0,0.0,0.0,0.0,0.0,1.8014,0.0,0.0,0.0,0.0,0.0,0.0,0.0,0.0,0.0,0.0,0.0,0.0,0.0,0.0,2.0805,2.138,2.2349,2.289,0.0,0.0,2.3939,2.3642,2.3963,2.4266,0.0,0.0,0.0,0.0,0.0,0.0,0.0,0.0,0.0,0.0,0.0,0.0,0.0,0.0,0.0,0.0,0.0,0.0,0.0,0.0,0.0,0.0,0.0,0.0,0.0,0.0,0.0,0.0,0.0,0.0,0.0,0.0,0.0,0.0,0.0,0.0,0.0,0.0,0.0,0.0,0.0,0.0,0.0,0.0,0.0,0.0,0.0,0.0,0.0,0.0,0.0,0.0,0.0,0.0,2.1192,2.1431,2.0817,2.0626,2.0846,2.135,2.1532,2.142,2.1869,2.2102,0.0,0.0,0.0,0.0,0.0,0.0,0.0,0.0,0.0,0.0,0.0,0.0,0.0,0.0,0.0,0.0,0.0,0.0,0.0,0.0,0.0,0.0,0.0,0.0,0.0,0.0,0.0,0.0,0.0,0.0,0.0,0.0,0.0,0.0,0.0,0.0,0.0,0.0,0.0,0.0,0.0,2.213,2.2226,2.2304,2.2349,0.0,2.2859,2.3263,2.3215,2.3799,2.4206,2.4208,0.0,0.0,0.0,0.0,0.0,0.0,0.0,0.0,0.0,0.0,0.0,0.0,0.0,0.0,0.0,0.0,0.0,0.0,0.0,0.0,0.0,0.0,0.0,0.0,0.0,0.0,0.0,0.0,0.0,0.0,0.0,0.0,0.0,0.0,0.0,0.0,0.0,0.0,0.0,0.0,0.0,0.0,0.0,0.0,0.0,0.0,0.0,0.0,0.0,0.0,0.0,0.0,0.0,2.1905,2.2032,2.1741,2.145,2.1164,2.1723,2.158,2.0632,2.1265,2.1617,0.0,0.0,0.0,0.0,0.0,0.0,0.0,0.0,0.0,0.0,0.0,0.0,0.0,0.0,0.0,0.0,0.0,0.0,0.0,0.0,0.0,0.0,0.0,0.0,0.0,0.0,0.0,0.0,1.8471,1.8682,1.9109,0.0,0.0,0.0,0.0,0.0,0.0,0.0,0.0,0.0,0.0,2.1786,2.2243,2.2453,0.0,0.0,2.3064,2.3517,2.3228,2.3809,2.423,2.4205,2.419,0.0,0.0,0.0,0.0,0.0,0.0,0.0,0.0,0.0,0.0,0.0,0.0,0.0,0.0,0.0,0.0,0.0,0.0,0.0,0.0,0.0,0.0,0.0,0.0,0.0,0.0,0.0,0.0,0.0,0.0,0.0,0.0,0.0,0.0,0.0,0.0,0.0,0.0,0.0,0.0,0.0,0.0,0.0,0.0,0.0,0.0,0.0,0.0,0.0,0.0,0.0,0.0,2.2237,2.2106,2.2242,2.1993,2.1334,2.1967,2.1803,2.0745,2.1245,2.1532,0.0,0.0,0.0,0.0,0.0,0.0,0.0,0.0,0.0,0.0,0.0,0.0,0.0,0.0,0.0,0.0,0.0,0.0,0.0,0.0,0.0,0.0,0.0,0.0,0.0,0.0,0.0,0.0,1.9232,1.9515,2.0274,0.0,0.0,0.0,0.0,0.0,0.0,0.0,0.0,0.0,0.0,2.1701,2.2226,2.2463,2.2544,2.2321,2.3007,2.3415,2.3098,2.3631,2.4104,2.4067,0.0,0.0,0.0,0.0,0.0,0.0,0.0,0.0,0.0,0.0,0.0,0.0,0.0,0.0,0.0,0.0,0.0,0.0,0.0,0.0,0.0,0.0,0.0,0.0,0.0,0.0,0.0,0.0,0.0,0.0,2.0035,0.0,0.0,0.0,0.0,0.0,0.0,0.0,0.0,0.0,0.0,0.0,0.0,0.0,0.0,0.0,0.0,0.0,0.0,0.0,0.0,0.0,0.0,2.2061,2.1658,2.2065,2.2094,2.1625,2.2061,2.2293,2.2226,2.2276,2.2276,2.2248,0.0,0.0,0.0,0.0,0.0,0.0,0.0,0.0,0.0,0.0,0.0,0.0,0.0,0.0,0.0,0.0,0.0,0.0,0.0,0.0,0.0,0.0,0.0,0.0,0.0,0.0,2.0069,1.9968,2.0289,0.0,0.0,0.0,0.0,0.0,0.0,0.0,0.0,0.0,0.0,2.2293,2.2293,2.2282,2.231,2.231,2.2327,2.2544,2.2712,2.2743,2.3263,2.3728,0.0,0.0,0.0,0.0,0.0,0.0,0.0,0.0,0.0,0.0,0.0,0.0,0.0,0.0,0.0,0.0,0.0,0.0,0.0,0.0,0.0,0.0,0.0,0.0,0.0,0.0,0.0,2.1771,2.1524,0.0,0.0,0.0,0.0,0.0,0.0,0.0,0.0,0.0,0.0,0.0,2.2327,2.2327,0.0,0.0,0.0,0.0,0.0,0.0,0.0,0.0,0.0,0.0,0.0,0.0,2.2237,2.2061,2.2209,2.2237,2.2061,2.2209,2.2327,2.2327,2.2327,2.2327,2.2327,0.0,0.0,0.0,0.0,0.0,0.0,0.0,0.0,0.0,0.0,0.0,0.0,0.0,0.0,0.0,0.0,0.0,0.0,0.0,0.0,0.0,0.0,0.0,0.0,0.0,2.1617,0.0,0.0,0.0,0.0,0.0,0.0,0.0,0.0,0.0,0.0,0.0,2.2327,2.2327,2.2327,2.2327,2.2327,2.2327,2.2327,0.0,0.0,0.0,0.0,0.0,0.0,0.0,0.0,0.0,0.0,0.0,0.0,0.0,0.0,2.5459,2.4392,2.419,2.419,2.419,0.0,0.0,0.0,0.0,0.0,0.0,0.0,0.0,0.0,0.0,0.0,0.0,0.0,0.0,2.2579,0.0,2.2541,0.0,0.0,0.0,0.0,0.0,0.0,0.0,0.0,2.2581,2.2682,2.2699,2.2953,2.2936,0.0,2.2682,2.2564,0.0,0.0,0.0,0.0,0.0,0.0,0.0,0.0,2.2327,2.2327,2.2327,2.2327,2.2327,2.2327,2.2327,2.2327,2.2327,2.2327,2.2327,2.2327,2.2327,0.0,0.0,0.0,0.0,0.0,0.0,0.0,0.0,0.0,0.0,0.0,0.0,0.0,0.0,0.0,0.0,0.0,0.0,0.0,0.0,0.0,0.0,0.0,2.2124,0.0,0.0,0.0,0.0,0.0,0.0,0.0,0.0,0.0,2.2327,2.2327,2.2327,2.2327,2.2327,2.2327,2.2327,0.0,0.0,0.0,0.0,0.0,0.0,0.0,2.4076,2.4283,2.515,2.5844,2.5805,2.6245,2.6612,2.6612,0.0,0.0,2.487,2.4595,2.4522,2.4264,2.419,2.419,2.419,2.419,2.419,0.0,0.0,0.0,0.0,0.0,0.0,0.0,0.0,2.2446,2.3214,0.0,2.2975,0.0,0.0,0.0,0.0,0.0,2.2361,0.0,0.0,2.3139,2.3427,2.3528,2.4184,2.4103,2.346,2.3427,2.3071,2.2429,2.2378,0.0,0.0,0.0,0.0,0.0,0.0,2.2327,2.2327,2.2327,2.2327,2.2327,2.2327,2.2327,2.2327,2.2327,2.2327,2.2327,2.2327,2.2327,2.2327,2.2327,0.0,0.0,0.0,0.0,0.0,0.0,0.0,0.0,0.0,0.0,0.0,0.0,0.0,0.0,0.0,0.0,0.0,0.0,0.0,0.0,2.2327,0.0,0.0,0.0,0.0,0.0,0.0,0.0,0.0,0.0,0.0,2.2327,2.2327,2.2327,2.2361,0.0,0.0,0.0,0.0,2.2604,2.3272,2.3408,2.368,2.4357,2.5021,2.5446,2.5446,0.0,0.0,2.6664,2.6664,2.6741,2.6704,2.6765,2.6418,2.5642,2.5481,2.5206,2.4484,2.4373,2.43,2.4245,2.4318,2.4281,2.5007,0.0,0.0,0.0,0.0,2.4222,2.4654,2.4648,2.4645,2.4584,2.4432,2.3502,0.0,0.0,0.0,0.0,0.0,0.0,2.3663,2.4628,2.4323,2.4441,2.4966,2.4628,2.4388,2.4171,2.4201,2.4069,2.3833,2.3342,2.2818,2.2327,0.0,0.0,0.0,0.0,2.2327,2.2327,2.2327,2.2327,2.2327,2.2327,2.2327,2.2327,2.2327,2.2327,2.2327,2.2327,2.2327,2.2327,2.2327,0.0,0.0,0.0,0.0,0.0,0.0,0.0,0.0,0.0,0.0,0.0,0.0,0.0,0.0,0.0,0.0,0.0,0.0,0.0,2.2327,2.2327,2.2327,0.0,0.0,0.0,0.0,0.0,0.0,0.0,0.0,0.0,2.2327,2.2327,2.2496,0.0,0.0,2.2496,2.3021,2.3088,2.3156,2.3359,2.3833,0.0,2.4452,2.4871,2.5157,2.514,2.6167,2.7206,2.7804,2.8122,2.8315,2.8278,2.8319,2.8044,2.7276,2.6638,2.6217,2.5972,2.5915,2.5695,2.5181,2.5072,2.4887,2.8202,2.6048,2.5879,2.5727,2.5693,2.6556,2.6939,2.6935,2.6601,2.6568,2.6636,2.5278,2.478,2.4915,2.4306,0.0,0.0,0.0,2.5186,2.6031,2.5879,2.6048,2.6454,2.6336,2.5979,2.5389,2.5659,2.5355,2.4523,2.434,2.39,2.3173,0.0,0.0,2.2327,2.2327,2.2327,2.2327,2.2327,2.2327,2.2327,2.2327,2.2327,2.2327,2.2327,2.2327,2.2327,2.2327,2.2327,2.2327,2.2327,2.2327,0.0,0.0,0.0,0.0,0.0,0.0,0.0,0.0,0.0,0.0,0.0,2.2327,2.2327,0.0,0.0,0.0,2.2327,2.2327,2.2327,2.2327,0.0,0.0,0.0,0.0,0.0,0.0,0.0,2.2716,2.2496,2.2327,2.2327,2.2327,2.2479,2.2919,2.2835,2.2902,2.3342,0.0,2.3934,2.4208,2.4644,2.5036,2.5326,2.5672,2.6022,2.63,2.7076,2.7875,2.8506,2.8863,2.8975,2.8975,2.8975,2.8847,2.8356,2.7864,2.7316,2.6741,2.6612,2.6429,2.5952,2.5878,2.5713,3.1688,3.0345,2.8941,2.8636,2.9076,2.9194,2.9259,2.9179,2.8473,2.8912,3.0009,2.7911,2.7689,2.8789,2.7351,0.0,2.6793,2.6776,2.6877,2.708,2.7706,2.8026,2.8197,2.8789,2.8332,2.6979,2.7621,2.686,2.4997,2.5439,2.5338,2.4628,2.3207,2.2479,2.2462,2.2412,2.2412,2.2479,2.2446,2.2383,2.2395,2.2316,2.2327,2.2327,2.2327,2.2327,2.2327,2.2327,2.2327,2.2327,2.2327,2.2327,2.2327,0.0,0.0,0.0,0.0,0.0,0.0,0.0,0.0,0.0,0.0,0.0,0.0,0.0,0.0,0.0,2.2327,0.0,2.2327,2.2361,0.0,0.0,0.0,2.2733,2.341,2.2902,2.2716,2.3325,0.0,0.0,2.2327,2.2361,2.2383,2.2395,2.297,2.3444,2.3562,2.4171,2.4828,2.5435,2.5641,2.593,2.6454,2.6867,2.7252,2.7842,2.8298,2.8358,2.8749,2.8905,2.8929,2.8994,2.8943,2.8943,2.898,2.8851,2.8448,2.6979,2.6814,2.6833,2.6722,2.6612,2.6465,3.3741,3.3456,3.3051,3.1732,2.9939,3.1021,3.1533,3.1483,3.1325,3.1122,3.0848,2.9774,2.8856,2.8044,2.7114,2.7012,2.7571,2.7554,2.8484,3.004,2.9736,3.0159,3.1157,3.0277,2.9651,2.9296,2.889,2.8469,2.791,2.6911,2.6336,2.6099,2.4726,2.3968,2.3964,2.3437,2.342,2.3951,2.3448,2.3114,2.3122,2.2598,2.2327,2.2327,2.2327,2.2327,2.2327,2.2327,2.2327,2.2327,2.2327,2.2327,2.2327,2.2327,0.0,0.0,0.0,0.0,0.0,0.0,0.0,0.0,0.0,2.2327,2.2327,0.0,2.2327,0.0,2.2327,2.2327,2.2327,2.2801,0.0,0.0,2.3613,2.4036,2.4205,2.4052,2.3816,2.3427,2.3241,2.2936,2.2378,2.2784,2.3139,2.3139,2.3291,2.3799,2.4881,2.5203,2.5389,2.5609,2.6065,2.6488,2.6657,2.6774,2.6905,2.7066,2.7361,2.7707,2.8075,2.8386,2.8633,2.8892,2.8466,2.836,2.8865,2.8503,2.8029,2.764,2.7989,2.8246,2.764,2.7053,2.6447,3.6016,3.601,3.6005,3.5064,3.3609,3.3711,3.377,3.3752,3.3414,3.3035,3.2627,3.1914,3.1106,3.0294,2.9871,2.9905,3.0294,3.0311,3.0987,3.2121,3.1765,3.2002,3.2747,3.1952,3.141,3.1055,3.0649,3.0146,2.9448,2.8619,2.7858,2.7199,2.6725,2.6133,2.5439,2.4404,2.4083,2.4506,2.4073,2.387,2.3866,2.3494,2.3274,2.3274,2.297,2.2801,2.2784,2.2496,2.2327,2.2327,2.2327,2.2327,2.2327,2.2327,2.2327,0.0,0.0,0.0,0.0,0.0,0.0,0.0,0.0,0.0,0.0,0.0,2.2446,2.275,2.2784,2.2919,2.3241,2.3646,2.3883,2.3883,2.4269,2.4611,2.4949,2.4695,2.4489,2.4391,2.4086,2.3731,2.3342,2.363,2.4019,2.4323,2.4374,2.4678,2.5456,2.5862,2.6082,2.6116,2.6437,2.6708,2.6708,2.642,2.6402,2.6836,2.6871,2.6951,2.7346,2.7834,2.8156,2.8055,2.8044,2.8196,2.8609,2.8233,2.7791,2.7805,2.786,2.7897,2.7824,2.7732,2.7512,3.7905,3.7882,3.7919,3.7922,3.7787,3.6383,3.5757,3.5673,3.4962,3.4655,3.4578,3.3845,3.3541,3.3541,3.3457,3.3389,3.3389,3.3389,3.3457,3.3558,3.3643,3.3694,3.3677,3.3677,3.3288,3.2618,3.2415,3.163,3.0395,3.0209,2.9431,2.8197,2.8687,2.8264,2.6843,2.5546,2.4837,2.4628,2.4659,2.4642,2.4659,2.4557,2.4523,2.4489,2.3883,2.3494,2.3376,2.2784,2.2412,2.2327,2.2327,2.2327,2.2327,2.2327,2.2361,0.0,2.2361,0.0,0.0,0.0,0.0,0.0,0.0,0.0,0.0,2.2327,2.2632,2.3325,2.3393,2.3697,2.4438,2.456,2.4628,2.4628,2.4726,2.5033,2.5625,2.5169,2.4983,2.5541,2.5033,2.4625,2.4489,2.4543,2.4898,2.5406,2.5625,2.571,2.5812,2.6285,2.664,2.6708,2.6708,2.6708,2.6657,2.6184,2.6111,2.6805,2.6523,2.6248,2.6513,2.7169,2.7515,2.7076,2.754,2.8106,2.8196,2.7845,2.7523,2.7317,2.6955,2.6924,2.7438,2.7842,2.8498,3.792,3.7936,3.7928,3.7922,3.7838,3.6941,3.6576,3.6525,3.5735,3.5374,3.5313,3.4624,3.4269,3.4235,3.366,3.3389,3.3389,3.3389,3.3728,3.432,3.4912,3.5199,3.5199,3.5199,3.481,3.4032,3.2848,3.2178,3.185,3.0683,2.9956,2.9685,2.9211,2.8518,2.7638,0.0,0.0,0.0,2.5389,2.5406,2.5372,2.478,2.4523,2.4523,2.4357,0.0,2.3427,2.3257,2.2902,2.2361,2.2327,0.0,0.0,0.0,0.0,0.0,0.0,0.0,0.0,0.0,0.0,0.0,2.319,2.2936,2.2378,2.2327,2.2615,2.3308,2.3393,2.3697,2.4455,2.5033,2.5389,2.5423,2.593,2.6336,2.6471,2.6353,2.6133,2.5642,2.549,2.5152,2.4709,2.5,2.5456,2.5642,2.6116,2.6471,2.6471,2.659,2.6691,2.6708,2.6708,2.6708,2.6708,2.6556,2.6234,2.6077,2.5856,2.5668,2.5542,2.608,2.665,2.6674,2.6899,2.7086,2.713,2.6709,2.6294,2.5588,2.6078,2.6649,2.6796,2.641,2.6062,3.9009,0.0,3.9006,3.8971,0.0,3.8193,3.7865,3.7831,3.6695,3.64,3.6721,3.6349,3.5977,3.5605,3.5233,3.5081,3.5081,3.5081,3.5487,3.6197,3.6569,3.6738,3.6738,3.6366,3.5994,3.5571,3.41,3.3186,3.278,3.1715,3.0818,3.0108,3.0091,2.9516,2.8433,2.8399,2.7824,2.6691,2.6336,2.6319,2.6657,2.5964,2.5607,2.5558,2.5236,0.0,0.0,0.0,0.0,0.0,0.0,0.0,0.0,0.0,0.0,2.3833,2.2902,2.2784,2.3799,2.3257,2.3156,2.3866,2.3917,2.3782,2.341,2.3393,2.368,2.4408,2.4492,2.478,2.5507,2.593,2.615,2.6167,2.6471,2.6708,2.6708,2.6708,2.6556,2.6251,2.615,2.5981,2.5625,2.5879,2.6133,2.6167,2.6437,2.6708,2.6708,2.6708,2.6708,2.6708,2.6708,2.6708,2.6674,2.6353,2.6234,2.6082,2.5845,2.5416,2.488,2.5733,2.631,2.5929,2.6342,2.7,2.7016,2.6774,2.6357,2.5677,2.5761,2.5841,2.5585,2.5695,2.5988,4.0087,4.0087,4.0087,4.0087,4.002,3.9309,3.9018,3.8894,0.0,0.0,0.0,3.7922,3.7567,3.6992,3.6975,3.6975,3.6992,3.6992,3.7313,3.7905,3.7922,3.7838,3.7669,3.7077,3.6705,3.6502,3.5148,3.4117,3.3389,3.2763,3.1749,3.0497,3.1038,3.0632,2.9262,2.9096,2.8738,2.8213,2.7351,2.7182,2.7739,2.7097,2.6708,2.6708,2.6116,2.5744,2.5609,2.5,2.4638,2.4488,2.3909,2.3875,2.442,2.3333,2.3274,2.4492,2.3427,2.3291,2.4591,2.4032,2.3917,2.4628,2.4797,2.4794,2.454,2.4523,2.4797,2.5541,2.5609,2.5896,2.6623,2.6691,2.6708,2.6708,2.6708,2.6708,2.6708,2.6708,2.6691,2.6708,2.6657,2.6691,2.664,2.664,2.6708,2.6691,2.6674,2.6708,2.6708,2.6708,2.6708,2.6708,2.6708,2.6708,2.6623,2.6285,2.6015,2.6319,2.5828,2.5152,2.4695,2.5287,2.5524,2.4584,2.5764,2.6563,2.6705,2.6649,2.6644,2.5937,2.5532,2.512,2.4704,2.5328,2.6025,4.0087,4.0087,4.0087,4.0087,4.002,3.9309,3.8988,3.892,3.8119,3.78,3.7922,3.7922,3.7855,3.7753,3.7753,3.7753,3.7736,3.7736,3.7804,3.7922,3.7922,3.755,3.6941,3.6823,3.6434,3.5757,3.4912,3.4117,3.3474,3.3305,3.2493,3.1309,3.1765,3.1393,3.0023,2.9296,2.9245,2.9736,2.8399,2.7688,2.7772,2.708,2.6708,2.6691,2.659,2.6234,2.5642,2.5507,2.5147,2.4556,2.4414,2.4384,2.4488,2.4296,2.4543,2.5338,2.4644,2.4543,2.5372,2.4746,2.4644,2.5389,2.6015,2.5845,2.4642,2.4523,2.4797,2.5507,2.5642,2.5896,2.659,2.6708,2.6708,2.6708,2.6708,2.6708,2.6708,2.6708,2.6708,2.6708,2.6708,2.6708,2.6708,2.6708,2.6708,2.6708,2.6708,2.6708,2.6708,2.6708,2.6708,2.6708,2.6708,2.6708,2.6674,2.664,2.6353,2.5828,2.5253,2.4678,2.3951,2.4154,2.4222,2.3646,2.4726,2.5138,2.4746,2.5154,2.5547,2.5278,2.5055,2.4998,2.5031,2.4905,2.4667,4.0087,4.0087,4.0087,4.0087,4.0054,3.9715,3.958,3.9563,3.9244,3.9076,3.9089,3.9089,3.887,3.8514,3.8514,3.8497,3.8497,3.8481,3.8497,3.8497,3.8497,3.8091,3.7398,3.6958,3.6603,3.6214,3.547,3.4709,3.4066,3.3998,3.3457,3.2476,3.2747,3.2154,3.0784,3.0751,3.0751,3.0649,2.8805,2.7992,2.8416,2.73,2.6708,2.6708,2.6708,2.6556,2.6218,2.6201,2.6047,2.5705,2.5302,2.5285,2.5654,2.4929,2.4983,2.6065,2.5133,2.4983,2.6116,2.5879,2.5828,2.6167,2.6488,2.642,2.5727,2.5676,2.5828,2.6167,2.6201,2.6336,2.6657,2.6708,2.6708,2.6708,2.6708,2.6708,2.6708,2.6708,2.6708,2.6708,2.6708,2.6708,2.6708,2.6708,2.6708,2.6708,2.6708,2.6708,2.6708,2.6708,2.6708,2.6708,2.6708,2.6708,2.6708,2.6708,2.6539,2.6218,2.5913,2.5389,2.4797,2.4831,2.478,2.4235,2.4713,2.503,2.4568,2.5417,2.5674,2.5093,2.5429,2.5564,2.4996,2.441,2.4245,4.0087,4.0087,4.0087,4.0087,4.0087,4.0087,4.0087,4.0087,4.007,4.0087,4.0087,4.0087,3.9766,3.9259,3.9225,3.9242,3.9242,3.9242,3.9225,3.9225,3.9056,3.8633,3.7858,3.7144,3.6705,3.6468,3.5893,3.5233,3.4573,3.4658,3.437,3.3711,3.3491,3.2831,3.1715,3.207,3.2002,3.136,2.9381,2.8552,2.896,2.7807,2.7046,2.6708,2.6877,2.6877,2.6708,2.6708,2.6708,2.6674,2.6167,2.6116,2.6607,2.5641,2.549,2.6454,2.5625,2.5558,2.6776,2.6776,2.6759,2.6928,2.6793,2.6708,2.6708,2.6708,2.6708,2.6708,2.6674,2.6691,2.6708,2.6708,2.6708,2.6708,2.6708,2.6708,2.6708,2.6708,2.6708,2.6708,2.6708,2.6708,2.6708,2.6708,2.6708,2.6708,2.6708,2.6708,2.6708,2.6708,2.6708,2.6708,2.6708,2.6708,2.6708,2.6708,2.6691,2.6708,2.6488,2.6048,2.5642,2.5828,2.5507,2.4404,2.4465,2.4577,2.4579,2.5339,2.5603,2.5021,2.5411,2.5625,2.4556,2.4245,2.419,4.0087,4.0087,4.0087,4.0087,4.0087,4.0087,4.0087,4.0087,4.0087,4.0087,4.0087,4.0087,4.0054,3.9986,3.9952,3.9935,3.9952,3.9969,4.0002,3.9834,3.9292,3.8618,3.7862,3.7148,3.64,3.5859,3.569,3.5284,3.4692,3.5182,3.5131,3.4387,3.3728,3.3355,3.3136,3.2594,3.2297,3.2154,3.0683,2.9617,2.9045,2.8839,2.8112,2.6742,2.7368,2.7385,2.6826,2.6708,2.6708,2.6708,2.6674,2.664,2.6691,2.6556,2.6556,2.6708,2.6573,2.686,2.7571,2.708,2.7029,2.7588,2.708,2.6725,2.6708,2.6708,2.6708,2.6708,2.6708,2.6708,2.6708,2.6708,2.6708,2.6708,2.6708,2.6708,2.6708,2.6708,2.6708,2.6708,2.6708,2.6708,2.6708,2.6708,2.6708,2.6708,2.6708,2.6708,2.6708,2.6708,2.6708,2.6708,2.6708,2.6708,2.6708,2.6708,2.6708,2.6657,2.6167,2.5879,2.5642,2.478,2.3646,2.4133,2.3369,2.3305,2.3362,2.3788,2.4697,2.4769,2.4874,2.4827,2.4331,2.419,2.419,4.0087,4.0087,4.0087,4.0087,4.0087,4.0087,4.0087,4.0087,4.0087,4.0087,4.0087,4.0087,4.0087,4.0087,4.0087,4.0087,4.0087,4.0087,3.9851,3.9445,3.9123,3.8599,3.7868,3.7174,3.6818,3.6847,3.6073,3.5707,3.5808,3.5707,3.547,3.5182,3.4844,3.4286,3.3508,3.3525,3.3186,3.233,3.1698,3.0835,2.9736,2.9194,2.8687,2.8163,2.8349,2.8383,2.8095,2.8044,2.8065,2.8066,2.8066,2.8044,2.808,2.8044,2.8044,2.8044,2.8044,2.818,2.8484,2.8213,2.7994,2.7823,2.7538,2.7199,2.6742,2.6708,2.6708,2.6708,2.6708,2.6708,2.6725,2.6708,2.6708,2.6708,2.6708,2.6725,2.6708,2.6708,2.6708,2.6708,2.6708,2.6708,2.6708,2.6708,2.6708,2.6708,2.6708,2.6708,2.6708,2.6708,2.6708,2.6708,2.6708,2.6708,2.6708,2.6708,2.6708,2.664,2.6454,2.6251,2.6065,2.5456,2.4628,2.4137,2.3488,2.2983,2.2825,2.3551,2.4384,2.4397,2.4387,2.4381,2.4225,2.419,2.419,4.0087,4.0087,4.0087,4.0087,4.0087,4.0087,4.0087,4.0087,4.0087,4.0087,4.0087,4.0087,4.0087,4.0087,4.0087,4.0087,4.0087,4.0087,3.98,3.9309,3.9292,3.8918,3.8221,3.7665,3.7547,3.7644,3.6801,3.6552,3.6975,3.6569,3.6146,3.5977,3.5943,3.5301,3.4184,3.4387,3.3964,3.2966,3.2527,3.1765,3.0751,2.9973,2.9397,2.9042,2.9178,2.9194,2.9011,2.9011,2.9,2.899,2.9002,2.8989,2.8979,2.9006,2.9011,2.9011,2.9011,2.913,2.9262,2.911,2.8822,2.8467,2.8271,2.7896,2.7453,2.7317,2.7317,2.7368,2.7317,2.7317,2.7012,2.7199,2.7317,2.7317,2.7317,2.7334,2.7351,2.7317,2.7368,2.7317,2.7232,2.6911,2.6742,2.6708,2.6708,2.6708,2.6708,2.6708,2.6708,2.6708,2.6708,2.6708,2.6708,2.6708,2.6708,2.6708,2.6708,2.6708,2.664,2.664,2.664,2.6048,2.5558,2.4763,2.4002,2.3413,2.3103,2.3685,2.4153,2.3967,2.4034,2.4207,2.4208,2.419,2.419,4.0087,4.0087,4.0087,4.0087,4.0087,4.0087,4.0087,4.0087,4.0087,4.0087,4.0087,4.0087,4.0087,4.0087,4.0087,4.0087,4.0087,4.0087,4.0037,3.9969,3.9986,3.9665,3.9009,3.8873,3.8548,3.8122,3.7753,3.7702,3.7855,3.7787,3.7432,3.6789,3.6705,3.6282,3.5487,3.4861,3.4472,3.415,3.3085,3.2256,3.2053,3.141,3.0395,2.935,2.9702,2.9753,2.9161,2.9045,2.9045,2.9011,2.9096,2.9046,2.9065,2.9042,2.9113,2.9059,2.9042,2.9347,2.9854,2.9465,2.9296,2.9722,2.9279,2.8905,2.8689,2.8651,2.8651,2.8842,2.8738,2.8535,2.8027,2.8315,2.867,2.874,2.8808,2.8772,2.8789,2.8672,2.8876,2.8687,2.8163,2.7588,2.6894,2.6708,2.6776,2.6776,2.6725,2.6708,2.6708,2.6708,2.6708,2.6708,2.6708,2.6708,2.6708,2.6708,2.6708,2.6708,2.6708,2.6708,2.6454,2.6167,2.5761,2.52,2.4045,2.3425,2.3374,2.3476,2.3713,2.3816,2.4074,2.419,2.419,2.419,2.419,4.0087,4.0087,4.0087,4.0087,4.0087,4.0087,4.0087,4.0087,4.0087,4.0087,4.0087,4.0087,4.0087,4.0087,4.0087,4.0087,4.0087,4.0087,4.0087,4.0087,4.0087,3.9969,3.9699,3.9259,3.9157,3.9174,3.8362,3.8142,3.8514,3.8159,3.8024,3.799,3.7229,3.662,3.6282,3.5588,3.4979,3.4489,3.3946,3.3262,3.2391,3.2019,3.1393,3.0497,3.0666,3.0683,3.0395,3.0412,3.0395,3.0412,3.0395,3.0425,3.0409,3.0403,3.0395,3.0395,3.0395,3.0514,3.0717,3.0565,3.0294,3.0074,2.9871,2.9505,2.911,2.8992,2.8984,2.909,2.9465,2.9499,2.933,2.9127,2.9011,2.9011,2.9028,2.9079,2.9011,2.9011,2.9011,2.8941,2.8704,2.8433,2.8078,2.7723,2.7418,2.7368,2.7012,2.6742,2.6708,2.6708,2.6708,2.6708,2.6708,2.6708,2.6708,2.6708,2.6708,2.6708,2.6708,2.6708,2.6539,2.5659,2.5118,2.504,2.4028,2.3209,2.3086,2.3284,2.3477,2.3917,2.4152,2.419,2.419,2.419,2.419,4.0087,4.0087,4.0087,4.0087,4.0087,4.0087,4.0087,4.0087,4.0087,4.0087,4.0087,4.0087,4.0087,4.0087,4.0087,4.0087,4.0087,4.0087,4.0087,4.0087,4.0087,4.0087,4.0003,3.9563,3.9597,3.9884,3.9106,3.887,3.9242,3.8853,3.8768,3.8886,3.7736,3.7026,3.6705,3.6011,3.5334,3.4901,3.4606,3.3849,3.2797,3.2449,3.1918,3.1309,3.119,3.119,3.119,3.119,3.119,3.119,3.119,3.119,3.119,3.119,3.119,3.119,3.1173,3.119,3.119,3.119,3.097,3.0531,3.0448,3.0196,2.9749,2.971,2.971,2.9833,3.0091,3.0463,3.0378,3.0006,2.9702,2.9685,2.9685,2.9702,2.9685,2.9719,2.9597,2.9391,2.9107,2.8991,2.889,2.8247,2.784,2.7789,2.7165,2.6725,2.6708,2.6708,2.6708,2.6708,2.6708,2.6708,2.6708,2.6708,2.6708,2.6708,2.6691,2.6691,2.6521,2.552,2.4887,2.4705,2.411,2.3244,2.292,2.314,2.3495,2.3994,2.4133,2.419,2.419,2.419,2.419,4.0087,4.0087,4.0087,4.0087,4.0087,4.0087,4.0087,4.0087,4.0087,4.0087,4.0087,4.0087,4.0087,4.0087,4.0087,4.0087,4.0087,4.0087,4.0087,4.0087,4.0087,4.0087,4.007,4.0003,3.9986,4.0087,4.0037,4.0003,3.9969,3.9868,3.9614,3.9005,3.8311,3.7567,3.684,3.6146,3.5656,3.5408,3.4919,3.4196,3.3415,3.2747,3.2053,3.136,3.1224,3.119,3.119,3.119,3.119,3.119,3.119,3.119,3.119,3.119,3.119,3.119,3.119,3.119,3.119,3.119,3.1173,3.1072,3.114,3.1055,3.0937,3.0948,3.0965,3.0954,3.1004,3.1123,3.1106,3.1004,3.097,3.114,3.0937,3.0937,3.1021,3.1123,3.0915,3.0191,2.961,2.9076,2.8907,2.8586,2.8178,2.7992,2.7486,2.6962,2.6911,2.6894,2.6776,2.6708,2.6708,2.6708,2.6708,2.6708,2.6708,2.6708,2.6691,2.6708,2.667,2.5987,2.5541,2.5264,2.4168,2.3363,2.3732,2.3898,2.3889,2.4229,2.4238,2.43,2.419,2.419,2.419,4.0087,4.0087,4.0087,4.0087,4.0087,4.0087,4.0087,4.0087,4.0087,4.0087,4.0087,4.0087,4.0087,4.0087,4.0087,4.0087,4.0087,4.0087,4.0087,4.0087,4.0087,4.0087,4.0087,4.0087,4.0087,4.0087,4.0087,4.0087,4.0087,4.0087,3.9918,3.9631,3.9005,3.8278,3.755,3.6797,3.6214,3.5639,3.5363,3.4874,3.4167,3.3423,3.2679,3.1985,3.1461,3.119,3.119,3.119,3.119,3.119,3.119,3.119,3.119,3.119,3.119,3.119,3.119,3.119,3.119,3.119,3.119,3.119,3.119,3.119,3.119,3.119,3.119,3.119,3.119,3.119,3.119,3.119,3.119,3.119,3.119,3.119,3.1173,3.1157,3.1116,3.0921,3.0624,3.0535,3.0345,2.9803,2.9279,2.9211,2.8636,2.8061,2.7571,2.7385,2.7182,2.6843,2.6793,2.6758,2.6791,2.6791,2.6774,2.6841,2.6873,2.6873,2.6783,2.6544,2.6155,2.5474,2.4401,2.4038,2.4442,2.4653,2.4693,2.4756,2.4992,2.4795,2.4337,2.4263,2.4392,4.0087,4.0087,4.0087,4.0087,4.0087,4.0087,4.0087,4.0087,4.0087,4.0087,4.0087,4.0087,4.0087,4.0087,4.0087,4.0087,4.0087,4.0087,4.0087,4.0087,4.0087,4.0087,4.0087,4.0087,4.0087,4.0087,4.0087,4.0087,4.0087,4.0087,4.007,3.9952,3.9343,3.8785,3.821,3.733,3.6497,3.6062,3.5757,3.5267,3.4523,3.3778,3.3051,3.2307,3.1562,3.1224,3.119,3.119,3.119,3.119,3.119,3.119,3.119,3.119,3.119,3.119,3.119,3.119,3.119,3.119,3.119,3.119,3.119,3.119,3.119,3.119,3.119,3.119,3.119,3.119,3.119,3.119,3.119,3.119,3.119,3.119,3.1157,3.0937,3.0959,3.0989,3.0879,3.0976,3.097,3.0581,3.0142,3.0006,2.9465,2.8704,2.8078,2.7772,2.7385,2.6979,2.6759,2.6774,2.692,2.6888,2.6856,2.6987,2.7115,2.7115,2.7092,2.676,2.6349,2.5753,2.4801,2.4795,2.511,2.5485,2.5637,2.574,2.5745,2.5456,2.5107,2.4814,2.4759,4.0087,4.0087,4.0087,4.0087,4.0087,4.0087,4.0087,4.0087,4.0087,4.0087,4.0087,4.0087,4.0087,4.0087,4.0087,4.0087,4.0087,4.0087,4.0087,4.0087,4.0087,4.0087,4.0087,4.0087,4.0087,4.0087,4.0087,4.0087,4.0087,4.0087,4.0087,4.0003,3.9478,3.9022,3.8667,3.7585,3.6893,3.6632,3.5994,3.5267,3.4624,3.3897,3.3169,3.2425,3.1732,3.1292,3.119,3.119,3.119,3.119,3.119,3.119,3.119,3.119,3.119,3.119,3.119,3.119,3.119,3.119,3.119,3.119,3.119,3.119,3.119,3.119,3.119,3.119,3.119,3.119,3.119,3.119,3.119,3.119,3.119,3.119,3.114,3.0632,3.0666,3.0976,3.0649,3.0429,3.1106,3.0598,3.0345,3.0142,2.9702,2.9093,2.8298,2.7994,2.7537,2.7199,2.691,2.7034,2.7251,2.7269,2.7255,2.7361,2.75,2.7572,2.7514,2.7144,2.6845,2.6195,2.5705,2.5677,2.5867,2.6319,2.6502,2.6502,2.638,2.6169,2.5841,2.5474,2.5089,4.0087,4.0087,4.0087,4.0087,4.0087,4.0087,4.0087,4.0087,4.0087,4.0087,4.0087,4.0087,4.0087,4.0087,4.0087,4.0087,4.0087,4.0087,4.0087,4.0087,4.0087,4.0087,4.0087,4.0087,4.0087,4.0087,4.0087,4.0087,4.0087,4.0087,4.0087,4.0087,3.9868,3.9495,3.892,3.8083,3.7343,3.6772,3.6011,3.5554,3.5233,3.4556,3.3863,3.3119,3.2357,3.1732,3.1275,3.119,3.119,3.119,3.119,3.119,3.119,3.119,3.119,3.119,3.119,3.119,3.119,3.119,3.119,3.119,3.119,3.119,3.119,3.119,3.119,3.119,3.119,3.119,3.119,3.119,3.119,3.119,3.119,3.119,3.1157,3.1055,3.1004,3.1123,3.097,3.1004,3.1038,3.1021,3.0835,3.0801,3.0548,3.0057,2.9076,2.871,2.849,2.7606,2.7226,2.7417,2.7572,2.7619,2.7678,2.7776,2.7946,2.8148,2.8048,2.7807,2.758,2.724,2.6775,2.6611,2.6966,2.7398,2.735,2.7301,2.7295,2.7181,2.6429,2.5933,2.5529,4.029,4.0087,4.0087,4.0087,4.0087,4.0087,4.0087,4.0087,4.0087,4.0087,4.0087,4.0087,4.0087,4.0087,4.0087,4.0087,4.0087,4.0087,4.0087,4.0087,4.0087,4.0087,4.0087,4.0087,4.0087,4.0087,4.0087,4.0087,4.0087,4.0087,4.0087,4.0087,4.0087,3.9834,3.9495,3.8723,3.7985,3.7249,3.648,3.6,3.5588,3.4878,3.437,3.3694,3.2882,3.1935,3.1309,3.119,3.119,3.119,3.119,3.119,3.119,3.119,3.119,3.119,3.119,3.119,3.119,3.119,3.119,3.119,3.119,3.119,3.119,3.119,3.119,3.119,3.119,3.119,3.119,3.119,3.119,3.119,3.119,3.119,3.119,3.1173,3.119,3.119,3.119,3.119,3.119,3.119,3.119,3.1173,3.1106,3.0463,2.9756,2.9666,2.9401,2.8577,2.8053,2.8253,2.8187,2.8172,2.8147,2.8255,2.8316,2.8565,2.8494,2.8346,2.81,2.7875,2.7673,2.7622,2.7805,2.8062,2.826,2.8256,2.8301,2.797,2.7236,2.6594,2.6153,4.0726,4.0303,4.0204,4.0171,4.0204,4.0121,4.0087,4.0087,4.0087,4.0087,4.0087,4.0087,4.0087,4.0087,4.024,4.0189,4.0104,4.024,4.0172,4.0121,4.0087,4.0087,4.0087,4.0087,4.0087,4.0087,4.0087,4.0087,4.0087,4.0087,4.0087,4.0087,4.0087,4.0087,3.9851,3.9312,3.8654,3.7973,3.7109,3.6401,3.5853,3.5148,3.4641,3.4201,3.2949,3.1968,3.1393,3.119,3.119,3.119,3.119,3.119,3.119,3.119,3.119,3.119,3.119,3.119,3.119,3.119,3.119,3.119,3.119,3.119,3.119,3.119,3.119,3.119,3.119,3.119,3.119,3.119,3.119,3.119,3.119,3.119,3.119,3.119,3.119,3.119,3.119,3.119,3.119,3.119,3.119,3.123,3.1201,3.0933,3.0499,3.0369,3.0178,2.9739,2.9395,2.9187,2.8999,2.876,2.8692,2.87,2.8725,2.8863,2.8863,2.8695,2.848,2.8301,2.8227,2.8154,2.8136,2.8448,2.8778,2.887,2.8686,2.8429,2.8062,2.7512,2.7034,4.1552,4.142,4.092,4.075,4.0655,4.0286,4.0138,4.0172,4.0138,4.0171,4.0138,4.0138,4.0121,4.0155,4.0629,4.0663,4.0256,4.0578,4.0663,4.0104,4.0087,4.0087,4.0087,4.0087,4.0087,4.0087,4.0087,4.0087,4.0087,4.0087,4.0087,4.0087,4.0087,4.0087,4.0003,3.9446,3.8975,3.8548,3.7517,3.6837,3.6446,3.5757,3.5081,3.4498,3.3202,3.2059,3.136,3.119,3.119,3.119,3.119,3.119,3.119,3.119,3.119,3.119,3.119,3.119,3.119,3.123,3.119,3.123,3.1252,3.119,3.119,3.1224,3.1224,3.1207,3.119,3.1258,3.119,3.119,3.119,3.119,3.119,3.119,3.119,3.119,3.119,3.119,3.119,3.119,3.119,3.1269,3.1269,3.1269,3.1312,3.1261,3.122,3.1129,3.1052,3.085,3.0212,2.9934,2.9769,2.9345,2.8883,2.8881,2.8952,2.9219,2.92,2.8975,2.8741,2.876,2.8828,2.8741,2.8521,2.865,2.8943,2.8957,2.8975,2.8796,2.8503,2.8154,2.7548,4.2069,4.175,4.1446,4.1313,4.1286,4.103,4.0882,4.0912,4.0875,4.0697,4.0607,4.0762,4.072,4.0566,4.1201,4.1184,4.0639,4.0578,4.046,4.0121,4.0087,4.0087,4.0087,4.0087,4.0087,4.0121,4.0087,4.0087,4.0087,4.0087,4.0087,4.0087,4.0121,4.0087,4.0087,3.975,3.9361,3.8939,3.8261,3.7533,3.6806,3.64,3.5715,3.5069,3.4226,3.3481,3.2269,3.2111,3.1769,3.1353,3.119,3.119,3.119,3.119,3.119,3.119,3.119,3.1312,3.1411,3.1487,3.1507,3.147,3.1487,3.147,3.153,3.1584,3.1618,3.1577,3.1567,3.1613,3.1258,3.119,3.119,3.119,3.119,3.1252,3.1411,3.1312,3.119,3.119,3.119,3.1329,3.1389,3.1487,3.1694,3.1823,3.195,3.1969,3.2071,3.2057,3.2193,3.1903,3.1046,3.0567,3.0436,2.9926,2.9038,2.8952,2.8975,2.9365,2.9659,2.9329,2.8957,2.903,2.9085,2.8975,2.8851,2.8975,2.8975,2.8975,2.8975,2.8975,2.8906,2.8594,2.7824,4.2521,4.2062,4.1979,4.1937,4.1937,4.181,4.1716,4.176,4.1815,4.141,4.1197,4.1587,4.1402,4.1307,4.1876,4.1789,4.1249,4.0689,4.0597,4.058,4.0563,4.0563,4.0563,4.0514,4.0514,4.0336,4.0171,4.0121,4.0087,4.0121,4.0154,4.0204,4.0254,4.0417,4.0385,4.0357,4.0184,3.973,3.9392,3.8628,3.7558,3.7192,3.6517,3.5618,3.551,3.4725,3.3454,3.2995,3.2639,3.1496,3.1389,3.1389,3.1389,3.1291,3.1351,3.1389,3.1487,3.164,3.1861,3.1933,3.1933,3.1933,3.1913,3.2036,3.2154,3.2409,3.253,3.2493,3.249,3.2127,3.137,3.1449,3.1411,3.1351,3.1351,3.1545,3.1733,3.1565,3.1524,3.1504,3.162,3.175,3.1842,3.1933,3.2179,3.2417,3.2517,3.2616,3.2745,3.2854,3.296,3.2637,3.1728,3.0355,3.0073,3.001,2.9182,2.9182,2.9145,2.9641,3.0044,2.9769,2.9457,2.9274,2.9232,2.9085,2.8975,2.8975,2.8975,2.8975,2.8975,2.8975,2.8975,2.8975,2.8136,4.3301,4.3196,4.2714,4.2577,4.248,4.2021,4.1874,4.1789,4.1899,4.1757,4.1661,4.1782,4.1835,4.1876,4.2414,4.2644,4.2273,4.169,4.1375,4.1375,4.1375,4.1375,4.1331,4.1286,4.1358,4.1241,4.0737,4.0254,4.0204,4.0121,4.0449,4.0703,4.0797,4.0967,4.1285,4.1466,4.1298,4.0926,4.0552,3.9816,3.9021,3.8269,3.7396,3.6213,3.622,3.5368,3.4163,3.3634,3.3177,3.2387,3.2317,3.2265,3.2179,3.195,3.195,3.2074,3.2162,3.2179,3.235,3.2384,3.2384,3.2385,3.2388,3.2774,3.3159,3.3422,3.36,3.3847,3.3512,3.2823,3.1375,3.175,3.1968,3.1914,3.1986,3.2265,3.2316,3.2316,3.2248,3.2282,3.2282,3.2248,3.2332,3.24,3.2565,3.2809,3.2965,3.3027,3.3087,3.3314,3.3532,3.3004,3.2261,3.0772,2.9457,2.948,2.9237,2.9439,2.9604,3.0155,3.0375,3.0191,2.9971,2.9934,2.9475,2.903,2.8975,2.8975,2.8975,2.8975,2.8975,2.8975,2.8975,2.8938,2.8576,4.3479,4.3479,4.3232,4.3087,4.3069,4.2828,4.2678,4.2696,4.2678,4.2504,4.2413,4.2521,4.2483,4.2539,4.3066,4.3202,4.2757,4.2147,4.1828,4.181,4.181,4.181,4.1853,4.1853,4.181,4.1682,4.1196,4.0984,4.0984,4.103,4.1105,4.1268,4.1358,4.1534,4.1735,4.177,4.184,4.1729,4.1435,4.0903,4.0073,3.9251,3.8097,3.7363,3.716,3.6636,3.5608,3.5303,3.4579,3.347,3.3119,3.3022,3.2838,3.2663,3.25,3.255,3.255,3.2648,3.2809,3.284,3.289,3.2876,3.2859,3.3265,3.3862,3.4184,3.4559,3.4568,3.4179,3.3212,3.2037,3.2299,3.2316,3.2264,3.24,3.2616,3.2777,3.2858,3.2934,3.2996,3.2695,3.2648,3.2809,3.2903,3.2965,3.3166,3.3361,3.3419,3.3447,3.3606,3.3807,3.3275,3.254,3.1384,3.0099,2.9934,2.9751,2.9843,3.0228,3.0779,3.0925,3.0834,3.0797,3.076,3.0136,2.9219,2.8975,2.8975,2.8975,2.8975,2.8975,2.8975,2.8975,2.887,2.8539,4.3479,4.3479,4.3479,4.3479,4.3479,4.3479,4.3479,4.3479,4.3444,4.3208,4.2951,4.3226,4.3214,4.3102,4.3312,4.344,4.2941,4.2382,4.2262,4.2266,4.2266,4.2185,4.2185,4.2144,4.2266,4.2346,4.2226,4.2021,4.1682,4.1639,4.181,4.1937,4.1979,4.2062,4.2198,4.2315,4.2144,4.2153,4.2102,4.1742,4.0757,3.9824,3.8896,3.8156,3.8465,3.8026,3.688,3.6467,3.5562,3.4383,3.3781,3.3557,3.3382,3.3302,3.3154,3.284,3.2759,3.2965,3.3196,3.3332,3.3302,3.3302,3.3286,3.384,3.4793,3.5349,3.5582,3.4991,3.4648,3.371,3.2696,3.2681,3.2695,3.2681,3.2745,3.2903,3.3166,3.3332,3.3419,3.3314,3.2996,3.3027,3.3225,3.3284,3.3343,3.3419,3.3625,3.3625,3.3652,3.368,3.3715,3.3366,3.2724,3.1861,3.1109,3.087,3.0668,3.0522,3.1072,3.1678,3.1696,3.1604,3.1513,3.1292,3.0331,2.9504,2.926,2.8994,2.8975,2.8975,2.8975,2.8975,2.8975,2.8957,2.8778,4.3479,4.3479,4.3479,4.3479,4.3479,4.3479,4.3479,4.3479,4.3479,4.3479,4.3332,4.3442,4.3444,4.3411,4.3412,4.3504,4.3378,4.3251,4.3105,4.3051,4.3105,4.3124,4.3232,4.3321,4.3105,4.3051,4.316,4.2696,4.2226,4.1979,4.2162,4.2462,4.2637,4.277,4.3032,4.3014,4.3321,4.3267,4.3245,4.2496,4.115,4.0233,3.9443,3.8816,3.8572,3.8346,3.7522,3.6997,3.6035,3.502,3.4199,3.3853,3.3734,3.3734,3.3707,3.3662,3.3662,3.3662,3.3698,3.3762,3.3689,3.3725,3.3817,3.4604,3.5773,3.7022,3.7158,3.5598,3.5641,3.4878,3.34,3.3262,3.3332,3.3314,3.3332,3.3494,3.368,3.355,3.368,3.368,3.339,3.3476,3.3652,3.3707,3.3734,3.378,3.3807,3.3807,3.3807,3.3807,3.3733,3.3421,3.3201,3.2394,3.199,3.1751,3.1586,3.1329,3.188,3.2504,3.243,3.2284,3.1916,3.1519,3.0533,2.9784,2.9462,2.9237,2.9049,2.8975,2.8975,2.8975,2.8975,2.8938,2.8902,4.3479,4.3479,4.3479,4.3479,4.3479,4.3479,4.3479,4.3479,4.3479,4.3479,4.3479,4.3479,4.3479,4.3479,4.3479,4.3497,4.3479,4.3479,4.3479,4.3479,4.3479,4.3479,4.3444,4.3479,4.3479,4.3479,4.3479,4.3286,4.281,4.2734,4.2958,4.3032,4.3124,4.3214,4.3497,4.3479,4.3479,4.3479,4.3351,4.2635,4.146,4.0708,3.9974,3.8799,3.8726,3.8469,3.8157,3.7918,3.6982,3.6119,3.5661,3.5128,3.4486,3.4559,3.5073,3.4477,3.4477,3.4257,3.3908,3.4247,3.4192,3.4229,3.4642,3.5789,3.6953,3.7888,3.8236,3.6827,3.6417,3.5476,3.4184,3.3852,3.3679,3.3652,3.368,3.3734,3.3807,3.3807,3.378,3.3807,3.3807,3.3807,3.3807,3.3807,3.378,3.3807,3.3807,3.3807,3.3807,3.3807,3.3715,3.355,3.3348,3.3054,3.2779,3.2559,3.2504,3.2394,3.2724,3.3183,3.3146,3.2963,3.2522,3.1831,3.0925,3.0257,2.9732,2.931,2.9012,2.8975,2.8975,2.8975,2.8975,2.8975,2.8957,4.3479,4.3479,4.3479,4.3479,4.3479,4.3479,4.3479,4.3479,4.3479,4.3479,4.3479,4.3479,4.3479,4.3479,4.3479,4.3479,4.3479,4.3479,4.3479,4.3479,4.3479,4.3479,4.3479,4.3479,4.3479,4.3479,4.3479,4.341,4.3444,4.3444,4.3391,4.3479,4.341,4.3479,4.3479,4.3479,4.3479,4.3479,4.3479,4.2763,4.168,4.1203,4.0286,3.9405,3.8836,3.8707,3.867,3.8358,3.7514,3.7019,3.6688,3.5973,3.5055,3.5477,3.5826,3.544,3.5349,3.5147,3.4816,3.478,3.4623,3.4835,3.5523,3.6754,3.7344,3.82,3.8358,3.7411,3.7019,3.6156,3.5202,3.4403,3.4092,3.3908,3.378,3.3807,3.3807,3.3807,3.3807,3.3807,3.3807,3.3807,3.3807,3.3807,3.3807,3.3807,3.3807,3.3807,3.3807,3.3807,3.3752,3.3623,3.3568,3.344,3.3348,3.322,3.322,3.3256,3.3568,3.3678,3.355,3.333,3.2944,3.2162,3.1305,3.0643,3.0063,2.9512,2.8975,2.8975,2.8975,2.8975,2.8975,2.8998,2.9067,4.3479,4.3479,4.3479,4.3479,4.3479,4.3479,4.3479,4.3479,4.3479,4.3479,4.3479,4.3479,4.3479,4.3479,4.3479,4.3479,4.3479,4.3479,4.3479,4.3479,4.3479,4.3479,4.3479,4.3479,4.3479,4.3479,4.3479,4.3479,4.3479,4.3479,4.3479,4.3479,4.3479,4.3479,4.3479,4.3479,4.3479,4.3479,4.3479,4.3075,4.2139,4.146,4.0616,3.9808,3.9111,3.8689,3.867,3.8175,3.7679,3.7305,3.7074,3.6615,3.5991,3.6376,3.6505,3.6303,3.6193,3.6064,3.5954,3.5569,3.5137,3.5477,3.6248,3.736,3.7723,3.8291,3.823,3.7698,3.7386,3.656,3.5642,3.4862,3.4449,3.4009,3.3807,3.3807,3.3807,3.3807,3.3807,3.3807,3.3807,3.3807,3.3807,3.3807,3.3807,3.3807,3.3807,3.3807,3.3807,3.3807,3.3807,3.377,3.377,3.3733,3.3752,3.366,3.355,3.3513,3.3697,3.377,3.3752,3.3495,3.3293,3.2669,3.1868,3.1109,3.0338,2.9677,2.9159,2.903,2.8975,2.8975,2.9021,2.9067,2.916,4.3479,4.3479,4.3479,4.3479,4.3479,4.3479,4.3479,4.3479,4.3479,4.3479,4.3479,4.3479,4.3479,4.3479,4.3479,4.3479,4.3479,4.3479,4.3479,4.3479,4.3479,4.3479,4.3479,4.3479,4.3479,4.3479,4.3479,4.3479,4.3479,4.3479,4.3479,4.3479,4.3479,4.3479,4.3479,4.3479,4.3479,4.3479,4.3424,4.3094,4.2304,4.1534,4.0726,3.9918,3.9111,3.8744,3.8652,3.845,3.7991,3.7709,3.7624,3.7202,3.6769,3.7228,3.7386,3.711,3.7037,3.7037,3.7,3.6743,3.6762,3.7165,3.7496,3.7709,3.8083,3.856,3.8579,3.8212,3.7771,3.6964,3.6119,3.533,3.4688,3.41,3.3844,3.3899,3.3807,3.3807,3.3807,3.3807,3.3807,3.3807,3.3807,3.3807,3.3807,3.3807,3.3807,3.3807,3.3807,3.3807,3.3807,3.3807,3.3807,3.3807,3.3807,3.3807,3.3807,3.3807,3.3807,3.3807,3.3807,3.3788,3.3495,3.2963,3.2449,3.1733,3.0889,2.9855,2.936,2.9274,2.9127,2.8975,2.9044,2.916,2.9312,4.3479,4.3479,4.3479,4.3479,4.3479,4.3479,4.3479,4.3479,4.3479,4.3479,4.3479,4.3479,4.3479,4.3479,4.3479,4.3479,4.3479,4.3479,4.3479,4.3479,4.3479,4.3479,4.3479,4.3479,4.3479,4.3479,4.3479,4.3479,4.3479,4.3479,4.3479,4.3479,4.3479,4.3479,4.3479,4.3479,4.3479,4.3479,4.3424,4.3277,4.2598,4.1625,4.0983,4.0157,3.9313,3.8744,3.8707,3.8597,3.8395,3.823,3.8157,3.7998,3.7833,3.7869,3.8267,3.8065,3.7845,3.7845,3.7808,3.7643,3.7881,3.8193,3.812,3.8267,3.8524,3.8707,3.8634,3.8634,3.812,3.7514,3.6725,3.6211,3.5367,3.4798,3.4412,3.4339,3.3954,3.3807,3.3807,3.3807,3.3807,3.3825,3.3807,3.3807,3.3807,3.3807,3.3807,3.3807,3.3807,3.3807,3.3807,3.3807,3.3807,3.3807,3.3807,3.3807,3.3807,3.3807,3.3807,3.3807,3.3807,3.3834,3.3788,3.3421,3.2908,3.232,3.1673,3.0917,3.0152,2.9475,2.9324,2.916,2.9295,2.9436,2.9514,4.3479,4.3479,4.3479,4.3479,4.3479,4.3479,4.3479,4.3479,4.3479,4.3479,4.3479,4.3479,4.3479,4.3479,4.3479,4.3479,4.3479,4.3479,4.3479,4.3479,4.3479,4.3479,4.3479,4.3479,4.3479,4.3479,4.3479,4.3479,4.3479,4.3479,4.3479,4.3479,4.3479,4.3479,4.3479,4.3479,4.3479,4.3479,4.3479,4.3406,4.3057,4.1956,4.1295,4.0634,3.9625,3.8964,3.8707,3.8707,3.8579,3.856,3.856,3.8505,3.8469,3.8469,3.8615,3.856,3.856,3.8597,3.8597,3.7918,3.8065,3.856,3.845,3.8579,3.867,3.8707,3.8707,3.8689,3.8542,3.8157,3.7716,3.7239,3.6248,3.5532,3.5147,3.4908,3.4559,3.4376,3.4504,3.4266,3.399,3.3844,3.3825,3.3807,3.3807,3.3807,3.3807,3.3807,3.3807,3.3807,3.3807,3.3807,3.3807,3.3807,3.3807,3.3807,3.3807,3.3807,3.3807,3.3807,3.3842,3.3876,3.3813,3.3723,3.3345,3.2752,3.2455,3.2117,3.1259,3.0397,2.963,2.9434,2.957,2.9677,2.9746,4.3479,4.3479,4.3479,4.3479,4.3479,4.3479,4.3479,4.3479,4.3479,4.3479,4.3479,4.3479,4.3479,4.3479,4.3479,4.3479,4.3479,4.3479,4.3479,4.3479,4.3479,4.3479,4.3479,4.3479,4.3479,4.3479,4.3479,4.3479,4.3479,4.3479,4.3479,4.3479,4.3479,4.3479,4.3479,4.3479,4.3479,4.3479,4.3479,4.3442,4.3351,4.2451,4.1625,4.1111,3.9992,3.9221,3.8744,3.8707,3.8707,3.8707,3.8707,3.8707,3.8707,3.8707,3.8707,3.8707,3.8707,3.8707,3.8689,3.8414,3.8414,3.8634,3.8707,3.8707,3.8707,3.8707,3.8707,3.8707,3.8707,3.8267,3.7661,3.7496,3.6798,3.6193,3.5862,3.5844,3.5661,3.5605,3.555,3.5,3.4614,3.4211,3.4064,3.4045,3.4027,3.3844,3.3807,3.3807,3.3807,3.3807,3.3807,3.3807,3.3807,3.3807,3.3807,3.3807,3.3842,3.3868,3.3842,3.3807,3.3842,3.3986,3.4025,3.4056,3.3645,3.324,3.324,3.3077,3.2184,3.1355,3.0526,2.9812,2.9731,2.9829,2.9908,4.3738,4.3836,4.3597,4.3563,4.3646,4.3548,4.3479,4.3479,4.3479,4.3479,4.3479,4.3479,4.3479,4.3479,4.3479,4.3479,4.3479,4.3479,4.3479,4.3479,4.3479,4.3479,4.3479,4.3479,4.3479,4.3479,4.3479,4.3479,4.3479,4.3479,4.3479,4.3479,4.3479,4.3479,4.3479,4.3479,4.3479,4.3479,4.3479,4.3479,4.3259,4.2671,4.1882,4.113,4.0286,3.9533,3.8946,3.8707,3.8707,3.8726,3.8707,3.8707,3.8707,3.8707,3.8707,3.8707,3.8707,3.8707,3.8689,3.8689,3.8634,3.8689,3.8707,3.8707,3.8707,3.8707,3.8707,3.8707,3.8707,3.8432,3.801,3.7863,3.7533,3.6927,3.6707,3.6688,3.634,3.6266,3.6185,3.5624,3.5349,3.4908,3.4448,3.4302,3.4284,3.4045,3.3807,3.3834,3.386,3.3807,3.3834,3.386,3.386,3.386,3.3834,3.3807,3.3868,3.3928,3.3954,3.3954,3.416,3.4353,3.4357,3.436,3.4132,3.405,3.4301,3.4017,3.3025,3.2121,3.1257,3.0617,3.0076,3.0003,3.0089,4.4228,4.4428,4.3804,4.3758,4.3924,4.3634,4.3471,4.3495,4.3513,4.3479,4.3479,4.3479,4.3479,4.3479,4.3479,4.3479,4.3479,4.3479,4.3479,4.3479,4.3479,4.3479,4.3479,4.3479,4.3479,4.3479,4.3479,4.3479,4.3479,4.3479,4.3479,4.3479,4.3479,4.3479,4.3479,4.3479,4.3479,4.3479,4.3479,4.3479,4.3332,4.2855,4.2158,4.1423,4.0708,3.9992,3.9423,3.9038,3.8909,3.8836,3.8744,3.8726,3.8707,3.8707,3.8707,3.8707,3.8707,3.8707,3.8707,3.8707,3.8707,3.8707,3.8707,3.8707,3.8707,3.8707,3.8707,3.8707,3.8707,3.8707,3.8579,3.8432,3.8267,3.7863,3.7551,3.7239,3.6762,3.6626,3.6618,3.6407,3.6297,3.5919,3.5399,3.5151,3.4807,3.4543,3.4352,3.4105,3.4055,3.3834,3.3868,3.3928,3.3921,3.3895,3.3895,3.4005,3.4087,3.4237,3.4242,3.4284,3.4508,3.4634,3.4675,3.4695,3.4715,3.4775,3.4901,3.4489,3.3735,3.2838,3.1928,3.1103,3.0461,3.0272,3.0299,4.4142,4.3755,4.4111,4.4318,4.4325,4.3624,4.3519,4.3806,4.3609,4.3479,4.3479,4.3479,4.3513,4.3479,4.3479,4.3479,4.3479,4.3479,4.3479,4.3479,4.3479,4.3479,4.3479,4.3479,4.3479,4.3513,4.3513,4.3563,4.3548,4.3548,4.3548,4.3479,4.3582,4.3548,4.3548,4.3479,4.3513,4.3513,4.3513,4.3479,4.3479,4.3185,4.2543,4.1937,4.1589,4.091,4.0267,3.9662,3.9528,3.943,3.8958,3.8726,3.8707,3.8707,3.8707,3.8707,3.8707,3.8707,3.8707,3.8707,3.875,3.878,3.8756,3.8707,3.8707,3.8719,3.8719,3.8732,3.8762,3.8792,3.8833,3.877,3.8696,3.8512,3.8301,3.8116,3.7747,3.7728,3.7664,3.7458,3.7333,3.7007,3.6478,3.5848,3.5521,3.5207,3.4888,3.4544,3.4302,3.408,3.4005,3.4087,3.4117,3.416,3.4325,3.4461,3.4486,3.4551,3.4532,3.4574,3.4715,3.4851,3.4944,3.4999,3.5034,3.5174,3.5335,3.4861,3.4352,3.3421,3.2506,3.1667,3.0968,3.0794,3.0609,4.3561,4.3266,4.3466,4.363,4.3634,4.3058,4.3033,4.3341,4.3407,4.3296,4.3094,4.3535,4.3612,4.3479,4.3479,4.3479,4.3479,4.3479,4.3479,4.3479,4.3513,4.3479,4.3479,4.3529,4.3601,4.3634,4.3749,4.3836,4.3836,4.3931,4.3943,4.3943,4.3823,4.3823,4.3855,4.3712,4.3579,4.3631,4.3597,4.3513,4.3513,4.3495,4.3002,4.254,4.2375,4.1787,4.0905,4.022,3.9908,3.9651,3.8994,3.896,3.9008,3.9064,3.9064,3.91,3.91,3.91,3.9146,3.91,3.9091,3.9054,3.9029,3.9058,3.8947,3.8902,3.8873,3.8855,3.8884,3.8913,3.898,3.9045,3.9045,3.9054,3.9054,3.9054,3.9017,3.9017,3.8854,3.8596,3.8343,3.8045,3.7505,3.6831,3.6149,3.5633,3.5139,3.4703,3.4526,3.4398,3.4353,3.4398,3.442,3.4445,3.4634,3.4774,3.4774,3.4793,3.4851,3.4889,3.4962,3.5069,3.5207,3.5289,3.5369,3.5465,3.5479,3.5422,3.4979,3.4007,3.3218,3.2679,3.1948,3.141,3.1237,4.2733,4.2939,4.2351,4.2363,4.2385,4.2166,4.2131,4.2366,4.2841,4.2922,4.2699,4.3485,4.3801,4.3721,4.3679,4.3679,4.3646,4.3631,4.3563,4.3529,4.3631,4.3615,4.3621,4.3597,4.3881,4.4008,4.4083,4.4165,4.4447,4.4447,4.4392,4.458,4.4233,4.4165,4.4308,4.3992,4.3899,4.3986,4.3868,4.3726,4.3612,4.3471,4.3251,4.2746,4.2447,4.2041,4.0898,4.0191,3.9847,3.9534,3.9222,3.9338,3.9408,3.9524,3.9529,3.9529,3.9476,3.9476,3.9451,3.9451,3.95,3.952,3.9602,3.9506,3.932,3.9127,3.9082,3.9136,3.9171,3.9223,3.9301,3.9352,3.9352,3.9352,3.9352,3.9352,3.9352,3.9427,3.9458,3.9312,3.9326,3.8972,3.8346,3.7624,3.6748,3.6122,3.5666,3.5192,3.5173,3.5114,3.4904,3.4885,3.4734,3.4774,3.4889,3.4999,3.4999,3.5034,3.5088,3.5174,3.5239,3.5335,3.5474,3.546,3.5446,3.546,3.5474,3.5449,3.5218,3.441,3.3795,3.3641,3.3083,3.2333,3.2006,4.2611,4.2194,4.2619,4.2524,4.1984,4.1893,4.1374,4.08,4.1737,4.2487,4.3025,4.3341,4.381,4.4073,4.3862,4.3893,4.4061,4.3818,4.3726,4.3836,4.3881,4.3915,4.3966,4.4109,4.4336,4.4417,4.4489,4.4553,4.4682,4.4657,4.4606,4.4606,4.4455,4.4535,4.4657,4.4308,4.4318,4.4401,4.4355,4.4125,4.3974,4.4194,4.4168,4.399,4.3793,4.3652,4.2735,4.1994,4.1704,4.1317,4.0061,3.9669,3.958,3.9622,3.9622,3.9599,3.9668,3.969,3.969,3.9712,3.9712,3.9668,3.9656,3.9618,3.9537,3.9427,3.9408,3.9457,3.9505,3.9552,3.9603,3.9645,3.9668,3.9668,3.9668,3.9668,3.9668,3.9797,3.9963,4.0043,4.0157,3.9734,3.9101,3.8295,3.745,3.691,3.6584,3.6335,3.6514,3.6466,3.5812,3.5623,3.5132,3.5091,3.5174,3.5187,3.5207,3.5254,3.532,3.5398,3.5493,3.5493,3.5507,3.5507,3.5493,3.5507,3.5507,3.5488,3.5141,3.4603,3.4353,3.418,3.393,3.3295,3.3026,4.1459,4.0804,4.1197,4.1143,4.0796,4.1066,4.0854,4.0489,4.0969,4.1758,4.2612,4.2881,4.3326,4.3945,4.3774,4.3811,4.4075,4.4082,4.4128,4.4233,4.4252,4.4269,4.4393,4.4495,4.4649,4.4767,4.4973,4.5055,4.4988,4.5074,4.5096,4.5007,4.4943,4.4877,4.4919,4.4814,4.4707,4.48,4.4838,4.4695,4.4428,4.4587,4.4606,4.458,4.4587,4.4473,4.3674,4.2756,4.2159,4.163,4.0558,4.0156,4.0043,4.0063,4.0024,4.0024,4.0043,4.0004,3.9984,3.9964,3.9945,3.9945,3.9965,4.0062,4.0101,4.0004,3.9882,3.9924,3.984,3.988,4.0043,4.0101,4.012,4.012,4.012,4.012,4.012,4.0194,4.0267,4.0302,4.0353,4.0255,3.9506,3.8565,3.7909,3.7986,3.7627,3.7166,3.7392,3.77,3.7049,3.6431,3.5965,3.5484,3.5354,3.5383,3.5412,3.546,3.5507,3.5493,3.5493,3.5493,3.5507,3.5507,3.5507,3.5507,3.5507,3.5507,3.5449,3.5084,3.4891,3.4737,3.4468,3.4334,3.4391,3.9792,3.9191,3.9176,3.9219,3.9373,3.9892,4.0277,4.0466,4.0412,4.0927,4.1793,4.2125,4.2585,4.3114,4.3215,4.3315,4.3492,4.3871,4.4233,4.4612,4.4657,4.464,4.4667,4.4751,4.4963,4.517,4.538,4.5456,4.5457,4.5476,4.5476,4.5532,4.5457,4.5302,4.532,4.5144,4.4927,4.509,4.5156,4.5154,4.5026,4.4896,4.483,4.4757,4.4651,4.4297,4.3596,4.2749,4.2085,4.1471,4.0958,4.0511,4.0389,4.0353,4.037,4.037,4.0353,4.0389,4.0406,4.037,4.0406,4.0438,4.0489,4.0489,4.0473,4.0406,4.0285,4.0232,4.0158,4.0195,4.0372,4.0438,4.0438,4.0438,4.0438,4.0438,4.0473,4.0473,4.0473,4.0473,4.0469,4.0485,3.9738,3.8796,3.8604,3.8719,3.8565,3.8161,3.795,3.8315,3.8228,3.7506,3.6915,3.6407,3.5718,3.5507,3.5507,3.5507,3.5507,3.5507,3.5507,3.5507,3.5507,3.5507,3.5507,3.5507,3.5507,3.5507,3.5449,3.5391,3.5276,3.5122,3.5238,3.5238,3.5795,3.8392,3.8257,3.8238,3.8623,3.9142,3.8738,3.9238,4.0258,3.9815,4.035,4.1312,4.1184,4.162,4.3081,4.2749,4.29,4.3498,4.3779,4.4341,4.4871,4.4646,4.4811,4.5019,4.5058,4.5381,4.551,4.5547,4.5566,4.5586,4.5586,4.5586,4.5568,4.5586,4.5513,4.5513,4.538,4.536,4.5438,4.5457,4.5438,4.5457,4.5381,4.5438,4.5419,4.54,4.5304,4.4825,4.3655,4.3059,4.2362,4.136,4.07,4.0489,4.0489,4.0489,4.0489,4.0489,4.0489,4.0489,4.0489,4.0489,4.0489,4.0489,4.0489,4.0489,4.0489,4.0406,4.0406,4.0372,4.0372,4.0489,4.0489,4.0473,4.0473,4.0489,4.0489,4.0489,4.0489,4.0489,4.0489,4.0489,4.0219,3.97,3.9065,3.8815,3.8911,3.9008,3.8681,3.8892,3.9123,3.9219,3.8411,3.7603,3.6738,3.5815,3.5545,3.5507,3.5507,3.5507,3.5507,3.5507,3.5507,3.5507,3.5507,3.5507,3.5507,3.5507,3.5507,3.5488,3.5449,3.5468,3.5468,3.5666,3.6045,3.6526]},{"header":{"parameterUnit":"m.s-1","parameterCategory":1,"la1":31.0,"la2":29.5877,"lo1":-88.7671,"lo2":-86.6584,"dy":0.0162,"dx":0.0185,"nx":115,"ny":88,"refTime":"2023-08-20T12:00:00:Z","depth":0,"parameterNumber":3,"parameterNumberName":"V-component_of_WINDS"},"data":[0.0,0.0,0.0,0.0,0.0,0.0,0.0,0.0,0.0,0.0,0.0,0.0,0.0,0.0,0.0,0.0,0.0,0.0,0.0,0.0,0.0,0.0,0.0,0.0,0.0,0.0,0.0,0.0,0.0,0.0,0.0,0.0,0.0,0.0,0.0,0.0,0.0,0.0,0.0,0.0,0.0,0.0,0.0,0.0,0.0,0.0,0.0,0.0,0.0,0.0,0.0,0.0,0.0,0.0,0.0,0.0,0.0,0.0,0.0,0.0,0.0,0.0,0.0,0.0,0.0,0.0,0.0,0.0,0.0,0.0,0.0,0.0,0.0,0.0,0.0,0.0,0.0,0.0,0.0,0.0,0.0,0.0,0.0,0.0,0.0,0.0,0.0,0.0,0.0,0.0,0.0,0.0,0.0,0.0,0.0,0.0,0.0,0.0,0.0,0.0,0.0,0.0,0.0,0.0,0.0,0.0,0.0,0.0,0.0,0.0,0.0,0.0,0.0,0.0,0.0,0.0,0.0,0.0,0.0,0.0,0.0,0.0,0.0,0.0,0.0,0.0,0.0,0.0,0.0,0.0,0.0,0.0,0.0,0.0,0.0,0.0,0.0,0.0,0.0,0.0,0.0,0.0,0.0,0.0,0.0,0.0,0.0,0.0,0.0,0.0,0.0,0.0,0.0,0.0,0.0,0.0,0.0,0.0,0.0,0.0,0.0,0.0,0.0,0.0,0.0,0.0,0.0,0.0,0.0,0.0,0.0,0.0,0.0,0.0,0.0,0.0,0.0,0.0,0.0,0.0,0.0,0.0,0.0,0.0,0.0,0.0,0.0,0.0,0.0,0.0,0.0,0.0,0.0,0.0,0.0,0.0,0.0,0.0,0.0,0.0,0.0,0.0,0.0,0.0,0.0,0.0,0.0,0.0,0.0,0.0,0.0,0.0,0.0,0.0,0.0,0.0,0.0,0.0,0.0,0.0,0.0,0.0,0.0,0.0,0.0,0.0,0.0,0.0,0.0,0.0,0.0,0.0,0.0,0.0,0.0,0.0,0.0,0.0,0.0,0.0,0.0,0.0,0.0,0.0,0.0,0.0,0.0,0.0,0.0,0.0,0.0,0.0,0.0,0.0,0.0,0.0,0.0,0.0,0.0,0.0,0.0,0.0,0.0,0.0,0.0,0.0,0.0,0.0,0.0,0.0,0.0,0.0,0.0,0.0,0.0,0.0,0.0,0.0,0.0,0.0,0.0,0.0,0.0,0.0,0.0,0.0,0.0,0.0,0.0,0.0,0.0,0.0,0.0,0.0,0.0,0.0,0.0,0.0,0.0,0.0,0.0,0.0,0.0,0.0,0.0,0.0,0.0,0.0,0.0,0.0,0.0,0.0,0.0,0.0,0.0,0.0,0.0,0.0,0.0,0.0,0.0,0.0,0.0,0.0,0.0,0.0,0.0,0.0,0.0,0.0,0.0,0.0,0.0,0.0,0.0,0.0,0.0,0.0,0.0,0.0,0.0,0.0,0.0,0.0,0.0,0.0,0.0,0.0,0.0,0.0,0.0,0.0,0.0,0.0,0.0,0.0,0.0,0.0,0.0,0.0,0.0,0.0,0.0,0.0,0.0,0.0,0.0,0.0,0.0,0.0,0.0,0.0,0.0,0.0,0.0,0.0,0.0,0.0,0.0,0.0,0.0,0.0,0.0,0.0,0.0,0.0,0.0,0.0,0.0,0.0,0.0,0.0,0.0,0.0,0.0,0.0,0.0,0.0,0.0,0.0,0.0,0.0,0.0,0.0,0.0,0.0,0.0,0.0,0.0,0.0,0.0,0.0,0.0,0.0,0.0,0.0,0.0,0.0,0.0,0.0,0.0,0.0,0.0,0.0,0.0,0.0,0.0,0.0,0.0,0.0,0.0,0.0,0.0,0.0,0.0,0.0,0.0,0.0,0.0,0.0,0.0,0.0,0.0,0.0,0.0,0.0,0.0,0.0,0.0,0.0,0.0,0.0,0.0,0.0,0.0,0.0,0.0,0.0,0.0,0.0,0.0,0.0,0.0,0.0,0.0,0.0,0.0,0.0,0.0,0.0,0.0,0.0,0.0,0.0,0.0,0.0,0.0,0.0,0.0,0.0,0.0,0.0,0.0,0.0,0.0,0.0,0.0,0.0,0.0,0.0,0.0,0.0,0.0,0.0,0.0,0.0,0.0,0.0,0.0,0.0,0.0,0.0,0.0,0.0,0.0,0.0,0.0,0.0,0.0,0.0,0.0,0.0,0.0,0.0,0.0,0.0,0.0,0.0,0.0,0.0,0.0,0.0,0.0,0.0,0.0,0.0,0.0,0.0,0.0,0.0,0.0,0.0,0.0,0.0,0.0,0.0,0.0,0.0,0.0,0.0,0.0,0.0,0.0,0.0,0.0,0.0,0.0,0.0,0.0,0.0,0.0,0.0,0.0,0.0,0.0,0.0,0.0,0.0,0.0,0.0,0.0,0.0,0.0,0.0,0.0,0.0,0.0,0.0,0.0,0.0,0.0,0.0,0.0,0.0,0.0,0.0,0.0,0.0,0.0,0.0,0.0,0.0,0.0,0.0,0.0,0.0,0.0,0.0,0.0,0.0,0.0,0.0,0.0,0.0,0.0,0.0,0.0,0.0,0.0,0.0,0.0,0.0,0.0,0.0,0.0,0.0,0.0,0.0,0.0,0.0,0.0,0.0,0.0,0.0,0.0,0.0,0.0,0.0,0.0,0.0,0.0,0.0,0.0,0.0,0.0,0.0,0.0,0.0,0.0,0.0,0.0,0.0,0.0,0.0,0.0,0.0,0.0,0.0,0.0,0.0,0.0,0.0,0.0,0.0,0.0,0.0,0.0,0.0,0.0,0.0,0.0,0.0,0.0,0.0,0.0,0.0,0.0,0.0,0.0,0.0,0.0,0.0,0.0,0.0,0.0,0.0,0.0,0.0,0.0,0.0,0.0,0.0,0.0,0.0,0.0,0.0,0.0,0.0,0.0,0.0,0.0,0.0,0.0,0.0,0.0,0.0,0.0,0.0,0.0,0.0,0.0,0.0,0.0,0.0,0.0,0.0,0.0,0.0,0.0,0.0,0.0,0.0,0.0,0.0,0.0,0.0,0.0,0.0,0.0,0.0,0.0,0.0,0.0,0.0,0.0,0.0,0.0,0.0,0.0,0.0,0.0,0.0,0.0,0.0,0.0,0.0,0.0,0.0,0.0,0.0,0.0,0.0,0.0,0.0,0.0,0.0,0.0,0.0,0.0,0.0,0.0,0.0,0.0,0.0,0.0,0.0,0.0,0.0,0.0,0.0,0.0,0.0,0.0,0.0,0.0,0.0,0.0,0.0,0.0,0.0,0.0,0.0,0.0,0.0,0.0,0.0,0.0,0.0,0.0,0.0,0.0,0.0,0.0,0.0,0.0,0.0,0.0,0.0,0.0,0.0,0.0,0.0,0.0,0.0,0.0,0.0,0.0,0.0,0.0,0.0,0.0,0.0,0.0,0.0,0.0,0.0,0.0,0.0,0.0,0.0,0.0,0.0,0.0,0.0,0.0,0.0,0.0,0.0,0.0,0.0,0.0,0.0,0.0,0.0,0.0,0.0,0.0,0.0,0.0,0.0,0.0,0.0,0.0,0.0,0.0,0.0,0.0,0.0,0.0,0.0,0.0,0.0,0.0,0.0,0.0,0.0,0.0,0.0,0.0,0.0,0.0,0.0,0.0,0.0,0.0,0.0,0.0,0.0,0.0,0.0,0.0,0.0,0.0,0.0,0.0,0.0,0.0,0.0,0.0,0.0,0.0,0.0,0.0,0.0,0.0,0.0,0.0,0.0,0.0,0.0,0.0,0.0,0.0,0.0,0.0,0.0,0.0,0.0,0.0,0.0,0.0,0.0,0.0,0.0,0.0,0.0,0.0,0.0,0.0,0.0,0.0,0.0,0.0,0.0,0.0,0.0,0.0,0.0,0.0,0.0,0.0,0.0,0.0,0.0,0.0,0.0,0.0,0.0,0.0,0.0,0.0,0.0,0.0,0.0,0.0,0.0,0.0,0.0,0.0,0.0,0.0,0.0,0.0,0.0,0.0,0.0,0.0,0.0,0.0,0.0,0.0,0.0,0.0,0.0,0.0,0.0,0.0,0.0,0.0,0.0,0.0,0.0,0.0,0.0,0.0,0.0,0.0,0.0,0.0,0.0,0.0,0.0,0.0,0.0,0.0,0.0,0.0,0.0,0.0,0.0,0.0,0.0,0.0,0.0,0.0,0.0,-1.0939,0.0,0.0,0.0,0.0,0.0,0.0,0.0,0.0,0.0,0.0,0.0,0.0,0.0,0.0,0.0,0.0,0.0,0.0,0.0,0.0,0.0,0.0,0.0,0.0,0.0,0.0,0.0,0.0,0.0,0.0,0.0,0.0,0.0,0.0,0.0,0.0,0.0,0.0,0.0,0.0,0.0,0.0,0.0,0.0,0.0,0.0,0.0,0.0,0.0,0.0,0.0,0.0,0.0,0.0,0.0,0.0,0.0,0.0,0.0,0.0,0.0,0.0,0.0,0.0,0.0,0.0,0.0,0.0,0.0,0.0,0.0,0.0,0.0,0.0,0.0,0.0,0.0,0.0,0.0,0.0,0.0,0.0,0.0,0.0,0.0,0.0,0.0,0.0,0.0,0.0,0.0,0.0,0.0,0.0,0.0,0.0,0.0,0.0,0.0,0.0,0.0,0.0,0.0,0.0,0.0,0.0,0.0,0.0,0.0,0.0,-1.3085,-1.2822,-1.208,-1.1847,-1.2094,0.0,0.0,0.0,0.0,0.0,0.0,0.0,0.0,0.0,0.0,0.0,0.0,0.0,0.0,0.0,0.0,0.0,0.0,0.0,0.0,0.0,0.0,0.0,0.0,0.0,0.0,0.0,0.0,0.0,0.0,0.0,0.0,0.0,0.0,0.0,0.0,0.0,0.0,0.0,0.0,0.0,0.0,0.0,0.0,0.0,0.0,0.0,0.0,0.0,0.0,0.0,0.0,0.0,0.0,0.0,0.0,0.0,0.0,0.0,0.0,0.0,0.0,0.0,0.0,0.0,0.0,0.0,0.0,0.0,0.0,0.0,0.0,0.0,0.0,0.0,0.0,0.0,0.0,0.0,0.0,0.0,0.0,0.0,0.0,0.0,0.0,0.0,0.0,0.0,0.0,0.0,0.0,0.0,0.0,0.0,0.0,0.0,0.0,0.0,0.0,0.0,0.0,0.0,0.0,0.0,0.0,0.0,0.0,0.0,0.0,0.0,0.0,-1.2373,-1.2258,-1.2996,0.0,0.0,0.0,0.0,0.0,0.0,0.0,0.0,0.0,0.0,0.0,0.0,0.0,0.0,0.0,0.0,0.0,0.0,0.0,0.0,0.0,0.0,0.0,0.0,0.0,0.0,0.0,0.0,0.0,0.0,0.0,0.0,0.0,0.0,0.0,0.0,0.0,0.0,0.0,0.0,0.0,0.0,0.0,0.0,0.0,0.0,0.0,0.0,0.0,0.0,0.0,0.0,0.0,0.0,0.0,0.0,0.0,0.0,0.0,0.0,0.0,0.0,0.0,0.0,0.0,0.0,0.0,0.0,0.0,0.0,0.0,0.0,0.0,0.0,0.0,0.0,0.0,0.0,0.0,0.0,0.0,0.0,0.0,0.0,0.0,0.0,0.0,0.0,0.0,0.0,0.0,0.0,0.0,0.0,0.0,0.0,0.0,0.0,0.0,0.0,0.0,0.0,0.0,0.0,0.0,0.0,0.0,0.0,0.0,0.0,-1.2756,-1.3163,-1.2765,0.0,-1.2655,0.0,0.0,0.0,0.0,0.0,0.0,0.0,0.0,0.0,0.0,0.0,0.0,0.0,0.0,0.0,0.0,0.0,0.0,0.0,0.0,0.0,0.0,0.0,0.0,0.0,0.0,0.0,0.0,0.0,0.0,0.0,0.0,0.0,0.0,0.0,0.0,0.0,0.0,0.0,0.0,0.0,0.0,0.0,0.0,0.0,0.0,0.0,0.0,0.0,0.0,0.0,0.0,0.0,0.0,0.0,0.0,0.0,0.0,0.0,0.0,0.0,0.0,0.0,0.0,0.0,0.0,0.0,0.0,0.0,0.0,0.0,0.0,0.0,0.0,0.0,0.0,0.0,0.0,0.0,0.0,0.0,0.0,0.0,0.0,0.0,0.0,0.0,0.0,0.0,0.0,0.0,0.0,0.0,0.0,0.0,0.0,0.0,0.0,0.0,0.0,0.0,0.0,0.0,0.0,0.0,0.0,0.0,0.0,0.0,0.0,-1.2984,-1.3131,-1.2709,-1.2368,0.0,0.0,0.0,0.0,0.0,0.0,0.0,0.0,0.0,0.0,0.0,0.0,0.0,0.0,0.0,0.0,0.0,0.0,0.0,0.0,0.0,0.0,0.0,0.0,0.0,0.0,0.0,0.0,0.0,0.0,0.0,0.0,0.0,0.0,0.0,0.0,0.0,0.0,0.0,0.0,0.0,0.0,0.0,0.0,0.0,0.0,0.0,0.0,0.0,0.0,0.0,0.0,0.0,0.0,0.0,0.0,0.0,0.0,0.0,0.0,0.0,0.0,0.0,0.0,0.0,0.0,0.0,0.0,0.0,0.0,0.0,0.0,0.0,0.0,0.0,0.0,0.0,0.0,0.0,0.0,0.0,0.0,0.0,0.0,0.0,0.0,0.0,0.0,0.0,0.0,0.0,0.0,0.0,0.0,0.0,0.0,0.0,0.0,0.0,0.0,0.0,0.0,0.0,0.0,0.0,0.0,0.0,0.0,0.0,0.0,-1.2838,-1.2817,-1.2911,-1.2462,-1.2162,-1.2024,0.0,0.0,0.0,0.0,0.0,0.0,0.0,0.0,0.0,0.0,0.0,0.0,0.0,0.0,0.0,0.0,0.0,0.0,0.0,0.0,0.0,0.0,0.0,0.0,0.0,0.0,0.0,0.0,0.0,0.0,0.0,0.0,0.0,0.0,0.0,0.0,0.0,0.0,0.0,0.0,0.0,0.0,0.0,0.0,0.0,0.0,0.0,0.0,0.0,0.0,0.0,0.0,0.0,0.0,0.0,0.0,0.0,0.0,0.0,0.0,0.0,0.0,0.0,0.0,0.0,0.0,0.0,0.0,0.0,0.0,0.0,0.0,0.0,0.0,0.0,0.0,0.0,0.0,0.0,0.0,0.0,0.0,0.0,0.0,0.0,0.0,0.0,0.0,0.0,0.0,0.0,0.0,0.0,0.0,0.0,0.0,0.0,0.0,0.0,0.0,0.0,0.0,0.0,0.0,0.0,0.0,0.0,0.0,-1.2508,-1.197,-1.1943,-1.2466,-1.2059,-1.2058,0.0,0.0,0.0,0.0,0.0,0.0,0.0,0.0,0.0,0.0,0.0,0.0,0.0,0.0,0.0,0.0,0.0,0.0,0.0,0.0,0.0,0.0,0.0,0.0,0.0,0.0,0.0,0.0,0.0,0.0,0.0,0.0,0.0,0.0,0.0,0.0,0.0,0.0,0.0,0.0,0.0,0.0,0.0,0.0,0.0,0.0,0.0,0.0,0.0,0.0,0.0,0.0,0.0,0.0,0.0,0.0,0.0,0.0,0.0,0.0,0.0,0.0,0.0,0.0,0.0,0.0,0.0,0.0,0.0,0.0,0.0,0.0,0.0,0.0,0.0,0.0,0.0,0.0,0.0,0.0,0.0,0.0,0.0,0.0,0.0,0.0,0.0,0.0,0.0,0.0,0.0,0.0,0.0,0.0,0.0,0.0,0.0,0.0,0.0,0.0,0.0,0.0,0.0,0.0,0.0,0.0,0.0,0.0,0.0,-1.2381,-1.1607,-1.1295,-1.1575,-1.1105,-1.1227,0.0,0.0,0.0,0.0,0.0,0.0,0.0,0.0,0.0,0.0,0.0,0.0,0.0,0.0,0.0,0.0,0.0,0.0,0.0,0.0,0.0,0.0,0.0,0.0,0.0,0.0,0.0,0.0,0.0,0.0,0.0,0.0,0.0,0.0,0.0,0.0,0.0,0.0,0.0,0.0,0.0,0.0,0.0,0.0,0.0,0.0,0.0,0.0,0.0,0.0,0.0,0.0,0.0,0.0,0.0,0.0,0.0,0.0,0.0,0.0,0.0,0.0,0.0,0.0,0.0,0.0,0.0,0.0,0.0,0.0,0.0,0.0,0.0,0.0,0.0,0.0,0.0,0.0,0.0,0.0,0.0,0.0,0.0,0.0,0.0,0.0,0.0,0.0,0.0,0.0,0.0,0.0,0.0,0.0,0.0,0.0,0.0,0.0,0.0,0.0,0.0,0.0,0.0,0.0,0.0,0.0,0.0,0.0,0.0,-1.1832,0.0,-1.0905,-1.082,-1.0497,-1.055,0.0,0.0,0.0,0.0,0.0,0.0,0.0,0.0,0.0,0.0,0.0,0.0,0.0,0.0,0.0,0.0,0.0,0.0,0.0,0.0,0.0,0.0,0.0,0.0,0.0,0.0,0.0,0.0,0.0,0.0,0.0,0.0,0.0,0.0,0.0,0.0,0.0,0.0,0.0,0.0,0.0,0.0,0.0,0.0,0.0,0.0,0.0,0.0,0.0,0.0,0.0,0.0,0.0,0.0,0.0,0.0,0.0,0.0,0.0,0.0,0.0,0.0,0.0,0.0,0.0,0.0,0.0,0.0,0.0,0.0,0.0,0.0,0.0,0.0,0.0,0.0,0.0,0.0,0.0,0.0,0.0,0.0,0.0,0.0,0.0,0.0,0.0,0.0,0.0,0.0,0.0,0.0,0.0,0.0,0.0,0.0,0.0,0.0,0.0,0.0,0.0,0.0,0.0,0.0,0.0,0.0,0.0,0.0,-1.1315,-1.0739,-1.085,-1.0754,-1.0341,-1.0312,-1.0097,0.0,0.0,0.0,0.0,0.0,0.0,0.0,0.0,0.0,0.0,0.0,0.0,0.0,0.0,0.0,0.0,0.0,0.0,0.0,0.0,0.0,0.0,0.0,0.0,0.0,0.0,0.0,0.0,0.0,0.0,0.0,0.0,0.0,0.0,0.0,0.0,0.0,0.0,0.0,0.0,0.0,0.0,0.0,0.0,0.0,0.0,0.0,0.0,0.0,0.0,0.0,0.0,0.0,0.0,0.0,0.0,0.0,0.0,0.0,0.0,0.0,0.0,0.0,0.0,0.0,0.0,0.0,0.0,0.0,0.0,0.0,0.0,0.0,0.0,0.0,0.0,0.0,0.0,0.0,0.0,0.0,0.0,0.0,0.0,0.0,0.0,0.0,0.0,0.0,0.0,0.0,0.0,0.0,0.0,0.0,0.0,0.0,0.0,0.0,0.0,0.0,0.0,0.0,0.0,0.0,0.0,0.0,0.0,0.0,-0.9463,-0.9763,-1.0299,-1.0946,-1.0545,-1.0737,0.0,0.0,0.0,0.0,0.0,0.0,0.0,0.0,0.0,0.0,0.0,0.0,0.0,0.0,0.0,0.0,0.0,0.0,0.0,0.0,0.0,0.0,0.0,0.0,0.0,0.0,0.0,0.0,0.0,0.0,0.0,0.0,0.0,0.0,0.0,0.0,0.0,0.0,0.0,0.0,0.0,0.0,0.0,0.0,0.0,0.0,0.0,0.0,0.0,0.0,0.0,0.0,0.0,0.0,0.0,0.0,0.0,0.0,0.0,0.0,0.0,0.0,0.0,0.0,0.0,0.0,0.0,0.0,0.0,0.0,0.0,0.0,0.0,0.0,0.0,0.0,0.0,0.0,0.0,0.0,0.0,0.0,0.0,0.0,0.0,0.0,0.0,0.0,0.0,0.0,0.0,0.0,0.0,0.0,0.0,0.0,0.0,0.0,0.0,0.0,0.0,0.0,0.0,0.0,0.0,0.0,0.0,0.0,0.0,-1.0013,-1.0159,-1.0465,-1.0916,-1.0641,-1.0906,-1.1744,0.0,0.0,0.0,0.0,0.0,0.0,0.0,0.0,0.0,0.0,0.0,0.0,0.0,0.0,0.0,0.0,0.0,0.0,0.0,0.0,0.0,0.0,0.0,0.0,0.0,0.0,0.0,0.0,0.0,0.0,0.0,0.0,0.0,0.0,0.0,0.0,0.0,0.0,0.0,0.0,0.0,0.0,0.0,0.0,0.0,0.0,0.0,0.0,0.0,0.0,0.0,0.0,0.0,0.0,0.0,0.0,0.0,0.0,0.0,0.0,0.0,0.0,0.0,0.0,0.0,0.0,0.0,0.0,0.0,0.0,0.0,0.0,0.0,0.0,0.0,0.0,0.0,0.0,0.0,0.0,0.0,0.0,0.0,0.0,0.0,0.0,0.0,0.0,0.0,0.0,0.0,0.0,0.0,0.0,0.0,0.0,0.0,0.0,0.0,0.0,0.0,0.0,0.0,0.0,0.0,0.0,0.0,0.0,-1.1874,-1.1797,-1.1378,-1.0614,-1.0895,-1.0883,0.0,0.0,0.0,0.0,0.0,0.0,0.0,0.0,0.0,0.0,0.0,0.0,0.0,0.0,0.0,0.0,0.0,0.0,0.0,0.0,0.0,0.0,0.0,0.0,0.0,0.0,0.0,0.0,0.0,0.0,0.0,0.0,0.0,0.0,0.0,0.0,0.0,0.0,0.0,0.0,0.0,0.0,0.0,0.0,0.0,0.0,0.0,0.0,0.0,0.0,0.0,0.0,0.0,0.0,0.0,0.0,0.0,0.0,0.0,0.0,0.0,0.0,0.0,0.0,0.0,0.0,0.0,0.0,0.0,0.0,0.0,0.0,0.0,0.0,0.0,0.0,0.0,0.0,0.0,0.0,0.0,0.0,0.0,0.0,0.0,0.0,0.0,0.0,0.0,0.0,0.0,0.0,0.0,0.0,0.0,0.0,0.0,0.0,0.0,0.0,0.0,0.0,0.0,0.0,0.0,0.0,0.0,0.0,0.0,-1.2803,-1.356,-1.3761,-1.3235,-1.2888,-1.2675,0.0,0.0,0.0,0.0,0.0,0.0,0.0,0.0,0.0,0.0,0.0,0.0,0.0,0.0,0.0,0.0,0.0,0.0,0.0,0.0,0.0,0.0,0.0,0.0,0.0,0.0,0.0,0.0,0.0,0.0,0.0,0.0,0.0,0.0,0.0,0.0,0.0,0.0,0.0,0.0,0.0,0.0,0.0,0.0,0.0,0.0,0.0,0.0,0.0,0.0,0.0,0.0,0.0,0.0,0.0,0.0,0.0,0.0,0.0,0.0,0.0,0.0,0.0,0.0,0.0,0.0,0.0,0.0,0.0,0.0,0.0,0.0,0.0,0.0,0.0,0.0,0.0,0.0,0.0,0.0,0.0,0.0,0.0,0.0,0.0,0.0,0.0,0.0,0.0,0.0,0.0,0.0,0.0,0.0,0.0,0.0,0.0,0.0,0.0,0.0,0.0,0.0,0.0,0.0,0.0,0.0,0.0,0.0,-1.3927,-1.3871,-1.521,-1.5697,-1.5229,-1.4625,-1.3893,0.0,0.0,0.0,0.0,0.0,0.0,0.0,0.0,0.0,0.0,0.0,0.0,0.0,0.0,0.0,0.0,0.0,0.0,0.0,0.0,0.0,0.0,0.0,0.0,0.0,0.0,0.0,0.0,0.0,0.0,0.0,0.0,0.0,0.0,0.0,0.0,0.0,0.0,0.0,0.0,0.0,0.0,0.0,0.0,0.0,0.0,0.0,0.0,0.0,0.0,0.0,0.0,0.0,0.0,0.0,0.0,0.0,0.0,0.0,0.0,0.0,0.0,0.0,0.0,0.0,0.0,0.0,0.0,0.0,0.0,0.0,0.0,0.0,0.0,0.0,0.0,0.0,0.0,0.0,0.0,0.0,0.0,0.0,0.0,0.0,0.0,0.0,0.0,0.0,0.0,0.0,0.0,0.0,0.0,0.0,0.0,0.0,0.0,0.0,0.0,0.0,0.0,0.0,0.0,0.0,0.0,0.0,0.0,-1.4903,-1.4928,-1.6552,-1.7055,-1.643,-1.596,-1.4743,0.0,0.0,0.0,0.0,0.0,0.0,0.0,0.0,0.0,0.0,0.0,0.0,0.0,0.0,0.0,0.0,0.0,0.0,0.0,0.0,0.0,0.0,0.0,0.0,0.0,0.0,0.0,0.0,0.0,0.0,0.0,0.0,0.0,0.0,0.0,0.0,0.0,0.0,0.0,0.0,0.0,0.0,0.0,0.0,0.0,0.0,0.0,0.0,0.0,0.0,0.0,0.0,0.0,0.0,0.0,0.0,0.0,0.0,0.0,0.0,0.0,0.0,0.0,0.0,0.0,0.0,0.0,0.0,0.0,0.0,0.0,0.0,0.0,0.0,0.0,0.0,0.0,0.0,0.0,0.0,0.0,0.0,0.0,0.0,0.0,0.0,0.0,0.0,0.0,0.0,0.0,0.0,0.0,0.0,0.0,0.0,0.0,0.0,0.0,0.0,0.0,0.0,0.0,0.0,0.0,0.0,0.0,0.0,-1.4903,-1.4953,-1.6522,-1.6876,-1.5788,-1.5808,-1.4955,0.0,0.0,0.0,0.0,0.0,0.0,0.0,0.0,0.0,0.0,0.0,0.0,0.0,0.0,0.0,0.0,0.0,0.0,0.0,0.0,0.0,0.0,0.0,0.0,0.0,0.0,0.0,0.0,0.0,0.0,0.0,0.0,0.0,0.0,0.0,0.0,0.0,0.0,0.0,0.0,0.0,0.0,0.0,0.0,0.0,0.0,0.0,0.0,-1.1607,0.0,0.0,0.0,0.0,0.0,0.0,0.0,0.0,0.0,0.0,0.0,0.0,0.0,0.0,0.0,0.0,0.0,0.0,0.0,0.0,0.0,0.0,0.0,0.0,0.0,0.0,0.0,0.0,0.0,0.0,0.0,0.0,0.0,0.0,0.0,0.0,0.0,0.0,0.0,0.0,0.0,0.0,0.0,0.0,0.0,0.0,0.0,0.0,0.0,0.0,0.0,0.0,0.0,0.0,0.0,0.0,0.0,0.0,0.0,-1.4356,-1.4118,-1.5437,-1.5806,-1.5209,-1.5242,-1.4679,0.0,0.0,0.0,0.0,0.0,0.0,0.0,0.0,0.0,0.0,0.0,0.0,0.0,0.0,0.0,0.0,0.0,0.0,0.0,0.0,0.0,0.0,0.0,0.0,0.0,0.0,0.0,0.0,0.0,0.0,0.0,0.0,0.0,0.0,0.0,0.0,0.0,0.0,0.0,0.0,0.0,0.0,0.0,0.0,0.0,0.0,0.0,0.0,0.0,0.0,0.0,0.0,0.0,0.0,0.0,0.0,0.0,0.0,0.0,0.0,0.0,0.0,0.0,0.0,0.0,0.0,0.0,0.0,0.0,0.0,0.0,0.0,0.0,0.0,0.0,0.0,0.0,0.0,0.0,0.0,0.0,0.0,0.0,0.0,0.0,0.0,0.0,0.0,0.0,0.0,0.0,0.0,0.0,0.0,0.0,0.0,0.0,0.0,0.0,0.0,0.0,0.0,0.0,0.0,0.0,0.0,0.0,-1.3619,-1.3934,-1.3511,-1.4446,-1.488,-1.4698,-1.4709,-1.4194,-1.3109,0.0,0.0,0.0,0.0,0.0,0.0,0.0,0.0,0.0,0.0,0.0,0.0,0.0,0.0,0.0,0.0,0.0,0.0,0.0,0.0,0.0,0.0,0.0,0.0,0.0,0.0,0.0,0.0,0.0,0.0,0.0,0.0,0.0,0.0,0.0,0.0,0.0,0.0,-1.0908,-1.1611,0.0,0.0,0.0,0.0,0.0,0.0,0.0,0.0,-0.9406,0.0,0.0,0.0,0.0,0.0,0.0,0.0,0.0,0.0,0.0,0.0,0.0,0.0,0.0,0.0,0.0,0.0,0.0,0.0,0.0,0.0,0.0,0.0,0.0,0.0,0.0,0.0,0.0,0.0,0.0,0.0,0.0,0.0,0.0,0.0,0.0,0.0,0.0,0.0,0.0,0.0,0.0,0.0,0.0,0.0,0.0,0.0,0.0,0.0,0.0,0.0,0.0,0.0,0.0,0.0,0.0,-1.3094,-1.42,-1.4709,-1.4644,-1.564,-1.5744,-1.4755,-1.4709,-1.3971,-1.2584,0.0,0.0,0.0,0.0,0.0,0.0,0.0,0.0,0.0,0.0,0.0,0.0,0.0,0.0,0.0,0.0,0.0,0.0,0.0,0.0,0.0,0.0,0.0,0.0,0.0,0.0,0.0,0.0,0.0,0.0,0.0,0.0,0.0,0.0,0.0,0.0,0.0,0.0,0.0,-1.1357,-1.1807,0.0,0.0,0.0,0.0,0.0,0.0,0.0,0.0,-0.9814,0.0,0.0,0.0,0.0,0.0,0.0,0.0,0.0,0.0,0.0,0.0,0.0,0.0,0.0,0.0,0.0,0.0,0.0,0.0,0.0,0.0,0.0,0.0,0.0,0.0,0.0,0.0,0.0,0.0,0.0,0.0,0.0,0.0,0.0,0.0,0.0,0.0,0.0,0.0,0.0,0.0,0.0,0.0,0.0,0.0,0.0,0.0,0.0,0.0,0.0,0.0,0.0,0.0,0.0,0.0,-1.2556,-1.3442,-1.3962,-1.4026,-1.472,-1.4971,-1.4698,-1.4169,-1.3506,0.0,0.0,0.0,0.0,0.0,0.0,0.0,0.0,0.0,0.0,0.0,0.0,0.0,0.0,0.0,0.0,0.0,0.0,0.0,0.0,0.0,0.0,0.0,0.0,0.0,0.0,0.0,0.0,0.0,0.0,0.0,0.0,0.0,0.0,0.0,0.0,0.0,0.0,0.0,0.0,-1.1322,-1.1675,-1.1855,0.0,0.0,0.0,0.0,0.0,0.0,-0.9555,-0.9666,0.0,0.0,0.0,0.0,0.0,0.0,0.0,0.0,0.0,0.0,0.0,0.0,0.0,0.0,0.0,0.0,0.0,0.0,0.0,0.0,0.0,0.0,0.0,0.0,0.0,0.0,0.0,0.0,0.0,0.0,0.0,0.0,0.0,0.0,0.0,0.0,0.0,0.0,0.0,0.0,0.0,0.0,0.0,0.0,0.0,0.0,0.0,0.0,0.0,0.0,0.0,0.0,0.0,0.0,0.0,-1.2088,-1.2889,-1.341,-1.3535,-1.3915,-1.4329,-1.4652,-1.3777,-1.3125,0.0,0.0,0.0,0.0,0.0,0.0,0.0,0.0,0.0,0.0,0.0,0.0,0.0,0.0,0.0,0.0,0.0,0.0,0.0,0.0,0.0,0.0,0.0,0.0,0.0,0.0,0.0,0.0,0.0,0.0,0.0,0.0,0.0,0.0,0.0,0.0,0.0,0.0,0.0,0.0,0.0,-1.1743,-1.1699,-1.1429,0.0,0.0,0.0,0.0,-0.9106,-0.9458,0.0,0.0,0.0,0.0,0.0,0.0,0.0,0.0,0.0,0.0,0.0,0.0,0.0,0.0,0.0,0.0,0.0,0.0,0.0,0.0,0.0,0.0,0.0,0.0,0.0,0.0,0.0,0.0,0.0,0.0,0.0,0.0,0.0,0.0,0.0,0.0,0.0,0.0,0.0,0.0,0.0,0.0,0.0,0.0,0.0,0.0,0.0,0.0,0.0,0.0,0.0,0.0,0.0,0.0,0.0,0.0,-1.2907,-1.3714,-1.4303,-1.4641,-1.5116,-1.5186,-1.4698,-1.4043,-1.3284,0.0,0.0,0.0,0.0,0.0,0.0,0.0,0.0,0.0,0.0,0.0,0.0,0.0,0.0,0.0,0.0,0.0,0.0,0.0,0.0,0.0,0.0,0.0,0.0,0.0,0.0,0.0,0.0,0.0,0.0,0.0,0.0,0.0,0.0,0.0,0.0,0.0,0.0,0.0,0.0,0.0,-1.2148,-1.2112,-1.2426,-1.2461,0.0,0.0,-1.1116,-0.9858,-0.9762,0.0,0.0,0.0,0.0,0.0,0.0,0.0,0.0,0.0,0.0,0.0,0.0,0.0,0.0,0.0,0.0,0.0,0.0,0.0,0.0,0.0,0.0,0.0,0.0,0.0,0.0,0.0,0.0,0.0,0.0,0.0,0.0,0.0,0.0,0.0,0.0,0.0,0.0,0.0,0.0,0.0,0.0,0.0,0.0,0.0,0.0,0.0,0.0,0.0,0.0,0.0,0.0,0.0,0.0,0.0,-1.2381,-1.2594,-1.3192,-1.3642,-1.3872,-1.4328,-1.4373,-1.3978,-1.339,-1.2934,0.0,0.0,0.0,0.0,0.0,0.0,0.0,0.0,0.0,0.0,0.0,0.0,0.0,0.0,0.0,0.0,0.0,0.0,0.0,0.0,0.0,0.0,0.0,0.0,0.0,0.0,0.0,0.0,0.0,0.0,0.0,0.0,0.0,0.0,0.0,0.0,0.0,0.0,0.0,0.0,0.0,0.0,-1.2151,-1.1898,0.0,0.0,0.0,-1.1199,-0.9991,0.0,0.0,0.0,0.0,0.0,0.0,0.0,0.0,0.0,0.0,0.0,0.0,0.0,0.0,0.0,0.0,0.0,0.0,0.0,0.0,0.0,0.0,0.0,0.0,0.0,0.0,0.0,0.0,0.0,0.0,0.0,0.0,0.0,0.0,0.0,0.0,0.0,0.0,0.0,0.0,0.0,0.0,0.0,0.0,0.0,0.0,0.0,0.0,0.0,0.0,0.0,0.0,0.0,0.0,0.0,0.0,0.0,-1.2642,-1.2806,-1.3116,-1.358,-1.3731,-1.3718,-1.3506,-1.2925,0.0,0.0,0.0,0.0,0.0,0.0,0.0,0.0,0.0,0.0,0.0,0.0,0.0,0.0,0.0,0.0,0.0,0.0,0.0,0.0,0.0,0.0,0.0,0.0,0.0,0.0,0.0,-1.04,0.0,0.0,0.0,0.0,0.0,0.0,0.0,0.0,0.0,0.0,0.0,0.0,0.0,0.0,-1.2012,-1.2344,-1.1759,-1.1475,0.0,0.0,-1.1099,-1.0526,-1.0669,-1.0363,0.0,0.0,0.0,0.0,0.0,0.0,0.0,0.0,0.0,0.0,0.0,0.0,0.0,0.0,0.0,0.0,0.0,0.0,0.0,0.0,0.0,0.0,0.0,0.0,0.0,0.0,0.0,0.0,0.0,0.0,0.0,0.0,0.0,0.0,0.0,0.0,0.0,0.0,0.0,0.0,0.0,0.0,0.0,0.0,0.0,0.0,0.0,0.0,0.0,0.0,0.0,0.0,0.0,0.0,-1.3114,-1.3653,-1.3198,-1.3459,-1.4529,-1.4064,-1.3784,-1.3778,-1.3205,-1.289,0.0,0.0,0.0,0.0,0.0,0.0,0.0,0.0,0.0,0.0,0.0,0.0,0.0,0.0,0.0,0.0,0.0,0.0,0.0,0.0,0.0,0.0,0.0,0.0,0.0,0.0,0.0,0.0,0.0,0.0,0.0,0.0,0.0,0.0,0.0,0.0,0.0,0.0,0.0,0.0,0.0,-1.2841,-1.2832,-1.2813,-1.2774,0.0,-1.171,-1.1158,-1.2085,-1.041,-0.893,-0.8811,0.0,0.0,0.0,0.0,0.0,0.0,0.0,0.0,0.0,0.0,0.0,0.0,0.0,0.0,0.0,0.0,0.0,0.0,0.0,0.0,0.0,0.0,0.0,0.0,0.0,0.0,0.0,0.0,0.0,0.0,0.0,0.0,0.0,0.0,0.0,0.0,0.0,0.0,0.0,0.0,0.0,0.0,0.0,0.0,0.0,0.0,0.0,0.0,0.0,0.0,0.0,0.0,0.0,-1.3032,-1.3238,-1.3784,-1.3731,-1.316,-1.3182,-1.2966,-1.2458,-1.2464,-1.248,0.0,0.0,0.0,0.0,0.0,0.0,0.0,0.0,0.0,0.0,0.0,0.0,0.0,0.0,0.0,0.0,0.0,0.0,0.0,0.0,0.0,0.0,0.0,0.0,0.0,0.0,0.0,0.0,-1.0664,-1.057,-1.0322,0.0,0.0,0.0,0.0,0.0,0.0,0.0,0.0,0.0,0.0,-1.2578,-1.2842,-1.251,0.0,0.0,-1.2328,-1.1661,-1.1141,-1.0725,-1.0098,-0.899,-0.8804,0.0,0.0,0.0,0.0,0.0,0.0,0.0,0.0,0.0,0.0,0.0,0.0,0.0,0.0,0.0,0.0,0.0,0.0,0.0,0.0,0.0,0.0,0.0,0.0,0.0,0.0,0.0,0.0,0.0,0.0,0.0,0.0,0.0,0.0,0.0,0.0,0.0,0.0,0.0,0.0,0.0,0.0,0.0,0.0,0.0,0.0,0.0,0.0,0.0,0.0,0.0,0.0,-1.2968,-1.3152,-1.3831,-1.3676,-1.2692,-1.2811,-1.2588,-1.2037,-1.2266,-1.2432,0.0,0.0,0.0,0.0,0.0,0.0,0.0,0.0,0.0,0.0,0.0,0.0,0.0,0.0,0.0,0.0,0.0,0.0,0.0,0.0,0.0,0.0,0.0,0.0,0.0,0.0,0.0,0.0,-1.1103,-1.1041,-1.0837,0.0,0.0,0.0,0.0,0.0,0.0,0.0,0.0,0.0,0.0,-1.2529,-1.2832,-1.2452,-1.2304,-1.2822,-1.2557,-1.1995,-1.1141,-1.1019,-1.0543,-0.9299,0.0,0.0,0.0,0.0,0.0,0.0,0.0,0.0,0.0,0.0,0.0,0.0,0.0,0.0,0.0,0.0,0.0,0.0,0.0,0.0,0.0,0.0,0.0,0.0,0.0,0.0,0.0,0.0,0.0,0.0,-1.1626,0.0,0.0,0.0,0.0,0.0,0.0,0.0,0.0,0.0,0.0,0.0,0.0,0.0,0.0,0.0,0.0,0.0,0.0,0.0,0.0,0.0,0.0,-1.319,-1.3732,-1.3258,-1.321,-1.3711,-1.319,-1.2871,-1.2832,-1.2861,-1.2861,-1.291,0.0,0.0,0.0,0.0,0.0,0.0,0.0,0.0,0.0,0.0,0.0,0.0,0.0,0.0,0.0,0.0,0.0,0.0,0.0,0.0,0.0,0.0,0.0,0.0,0.0,0.0,-1.1645,-1.1587,-1.1655,0.0,0.0,0.0,0.0,0.0,0.0,0.0,0.0,0.0,0.0,-1.2871,-1.2871,-1.2929,-1.2881,-1.2881,-1.2891,-1.2304,-1.2076,-1.2672,-1.1158,-0.9829,0.0,0.0,0.0,0.0,0.0,0.0,0.0,0.0,0.0,0.0,0.0,0.0,0.0,0.0,0.0,0.0,0.0,0.0,0.0,0.0,0.0,0.0,0.0,0.0,0.0,0.0,0.0,-1.276,-1.2869,0.0,0.0,0.0,0.0,0.0,0.0,0.0,0.0,0.0,0.0,0.0,-1.2891,-1.2891,0.0,0.0,0.0,0.0,0.0,0.0,0.0,0.0,0.0,0.0,0.0,0.0,-1.2968,-1.319,-1.3017,-1.2968,-1.319,-1.3017,-1.2891,-1.2891,-1.2891,-1.2891,-1.2891,0.0,0.0,0.0,0.0,0.0,0.0,0.0,0.0,0.0,0.0,0.0,0.0,0.0,0.0,0.0,0.0,0.0,0.0,0.0,0.0,0.0,0.0,0.0,0.0,0.0,-1.248,0.0,0.0,0.0,0.0,0.0,0.0,0.0,0.0,0.0,0.0,0.0,-1.2891,-1.2891,-1.2891,-1.2891,-1.2891,-1.2891,-1.2891,0.0,0.0,0.0,0.0,0.0,0.0,0.0,0.0,0.0,0.0,0.0,0.0,0.0,0.0,-0.9141,-0.8878,-0.8804,-0.8804,-0.8804,0.0,0.0,0.0,0.0,0.0,0.0,0.0,0.0,0.0,0.0,0.0,0.0,0.0,0.0,-1.3234,0.0,-1.3145,0.0,0.0,0.0,0.0,0.0,0.0,0.0,0.0,-1.3037,-1.3096,-1.3105,-1.3252,-1.3242,0.0,-1.3096,-1.3027,0.0,0.0,0.0,0.0,0.0,0.0,0.0,0.0,-1.2891,-1.2891,-1.2891,-1.2891,-1.2891,-1.2891,-1.2891,-1.2891,-1.2891,-1.2891,-1.2891,-1.2891,-1.2891,0.0,0.0,0.0,0.0,0.0,0.0,0.0,0.0,0.0,0.0,0.0,0.0,0.0,0.0,0.0,0.0,0.0,0.0,0.0,0.0,0.0,0.0,0.0,-1.2773,0.0,0.0,0.0,0.0,0.0,0.0,0.0,0.0,0.0,-1.2891,-1.2891,-1.2891,-1.2891,-1.2891,-1.2891,-1.2891,0.0,0.0,0.0,0.0,0.0,0.0,0.0,-1.1035,-1.0621,-0.9907,-0.9342,-0.9392,-0.9552,-0.9686,-0.9686,0.0,0.0,-0.8991,-0.8891,-0.8804,-0.8771,-0.8804,-0.8804,-0.8804,-0.8804,-0.8804,0.0,0.0,0.0,0.0,0.0,0.0,0.0,0.0,-1.2959,-1.3811,0.0,-1.3601,0.0,0.0,0.0,0.0,0.0,-1.291,0.0,0.0,-1.3359,-1.3525,-1.3584,-1.3893,-1.3916,-1.3545,-1.3525,-1.332,-1.2949,-1.292,0.0,0.0,0.0,0.0,0.0,0.0,-1.2891,-1.2891,-1.2891,-1.2891,-1.2891,-1.2891,-1.2891,-1.2891,-1.2891,-1.2891,-1.2891,-1.2891,-1.2891,-1.2891,-1.2891,0.0,0.0,0.0,0.0,0.0,0.0,0.0,0.0,0.0,0.0,0.0,0.0,0.0,0.0,0.0,0.0,0.0,0.0,0.0,0.0,-1.2891,0.0,0.0,0.0,0.0,0.0,0.0,0.0,0.0,0.0,0.0,-1.2891,-1.2891,-1.2891,-1.291,0.0,0.0,0.0,0.0,-1.2919,-1.2966,-1.3243,-1.3672,-1.4062,-1.2887,-1.1933,-1.1933,0.0,0.0,-0.9771,-0.9771,-0.9733,-0.9719,-0.9609,-0.942,-0.9269,-0.9023,-0.8864,-0.8851,-0.8871,-0.8844,-0.8824,-0.8851,-0.8838,-1.473,0.0,0.0,0.0,0.0,-1.3984,-1.3736,-1.2968,-1.3873,-1.398,-1.3613,-1.3433,0.0,0.0,0.0,0.0,0.0,0.0,-1.3662,-1.4219,-1.4043,-1.4111,-1.4414,-1.4219,-1.4009,-1.3955,-1.3902,-1.3896,-1.376,-1.3477,-1.3174,-1.2891,0.0,0.0,0.0,0.0,-1.2891,-1.2891,-1.2891,-1.2891,-1.2891,-1.2891,-1.2891,-1.2891,-1.2891,-1.2891,-1.2891,-1.2891,-1.2891,-1.2891,-1.2891,0.0,0.0,0.0,0.0,0.0,0.0,0.0,0.0,0.0,0.0,0.0,0.0,0.0,0.0,0.0,0.0,0.0,0.0,0.0,-1.2891,-1.2891,-1.2891,0.0,0.0,0.0,0.0,0.0,0.0,0.0,0.0,0.0,-1.2891,-1.2891,-1.2988,0.0,0.0,-1.2988,-1.3291,-1.333,-1.3369,-1.3486,-1.376,0.0,-1.4403,-1.3504,-1.2749,-1.274,-1.1719,-1.0923,-1.1163,-1.0725,-1.0376,-1.0362,-1.0307,-1.0207,-0.986,-0.9499,-0.9284,-0.9389,-0.9432,-0.9352,-0.9165,-0.9064,-0.9058,-1.6695,-1.5039,-1.4941,-1.4853,-1.4834,-1.5332,-1.4932,-1.3947,-1.4897,-1.4955,-1.4387,-1.4301,-1.4307,-1.4385,-1.4033,0.0,0.0,0.0,-1.4541,-1.5029,-1.4941,-1.5039,-1.5273,-1.5205,-1.4924,-1.4658,-1.4814,-1.4639,-1.4087,-1.4053,-1.3799,-1.3379,0.0,0.0,-1.2891,-1.2891,-1.2891,-1.2891,-1.2891,-1.2891,-1.2891,-1.2891,-1.2891,-1.2891,-1.2891,-1.2891,-1.2891,-1.2891,-1.2891,-1.2891,-1.2891,-1.2891,0.0,0.0,0.0,0.0,0.0,0.0,0.0,0.0,0.0,0.0,0.0,-1.2891,-1.2891,0.0,0.0,0.0,-1.2891,-1.2891,-1.2891,-1.2891,0.0,0.0,0.0,0.0,0.0,0.0,0.0,-1.3115,-1.2988,-1.2891,-1.2891,-1.2891,-1.2978,-1.3232,-1.3184,-1.3223,-1.3477,0.0,-1.3818,-1.4047,-1.4228,-1.4527,-1.4844,-1.4157,-1.3331,-1.2685,-1.1984,-1.1404,-1.1301,-1.0863,-1.0618,-1.0618,-1.0618,-1.0571,-1.0321,-1.0073,-0.9807,-0.9733,-0.9686,-0.9619,-0.9446,-0.9419,-0.9359,-1.8666,-1.7519,-1.6709,-1.6533,-1.6787,-1.6855,-1.6386,-1.5679,-1.611,-1.6524,-1.6806,-1.5953,-1.5986,-1.6621,-1.5791,0.0,-1.5469,-1.5459,-1.5518,-1.5635,-1.5996,-1.6262,-1.6279,-1.6621,-1.6357,-1.5576,-1.5947,-1.5508,-1.436,-1.4687,-1.4629,-1.4219,-1.3398,-1.2978,-1.2969,-1.2939,-1.2939,-1.2978,-1.2959,-1.2988,-1.293,-1.2949,-1.2891,-1.2891,-1.2891,-1.2891,-1.2891,-1.2891,-1.2891,-1.2891,-1.2891,-1.2891,-1.2891,0.0,0.0,0.0,0.0,0.0,0.0,0.0,0.0,0.0,0.0,0.0,0.0,0.0,0.0,0.0,-1.2891,0.0,-1.2891,-1.291,0.0,0.0,0.0,-1.3125,-1.3516,-1.3223,-1.3115,-1.3467,0.0,0.0,-1.2891,-1.291,-1.2988,-1.293,-1.3262,-1.3535,-1.3603,-1.3955,-1.4262,-1.4538,-1.4729,-1.4971,-1.5273,-1.474,-1.3886,-1.2615,-1.2012,-1.1819,-1.1108,-1.0807,-1.0744,-1.0624,-1.0534,-1.0534,-1.0548,-1.0501,-1.0354,-0.982,-0.976,-0.9766,-0.9726,-0.9686,-0.9633,-1.9875,-1.9122,-1.9082,-1.832,-1.7285,-1.791,-1.7841,-1.7451,-1.7813,-1.8241,-1.8627,-1.7451,-1.666,-1.6191,-1.5654,-1.5596,-1.5918,-1.5908,-1.6445,-1.7344,-1.7168,-1.7412,-1.7988,-1.748,-1.7119,-1.6914,-1.668,-1.6354,-1.6033,-1.5537,-1.5205,-1.5068,-1.4204,-1.3838,-1.3766,-1.3192,-1.3183,-1.3828,-1.3606,-1.348,-1.335,-1.3047,-1.2891,-1.2891,-1.2891,-1.2891,-1.2891,-1.2891,-1.2891,-1.2891,-1.2891,-1.2891,-1.2891,-1.2891,0.0,0.0,0.0,0.0,0.0,0.0,0.0,0.0,0.0,-1.2891,-1.2891,0.0,-1.2891,0.0,-1.2891,-1.2891,-1.2891,-1.3164,0.0,0.0,-1.3633,-1.3877,-1.3975,-1.3887,-1.375,-1.3525,-1.3418,-1.3242,-1.292,-1.3154,-1.3359,-1.3359,-1.3447,-1.374,-1.4365,-1.4551,-1.4658,-1.4785,-1.5049,-1.5293,-1.5391,-1.5225,-1.4914,-1.4619,-1.4016,-1.3364,-1.2573,-1.1903,-1.1351,-1.073,-1.0361,-1.0252,-1.0577,-1.0374,-1.0133,-1.006,-1.0187,-1.0281,-1.006,-0.9846,-0.9626,-2.0899,-2.0478,-2.0683,-2.0244,-1.9404,-1.9463,-1.9399,-1.9194,-1.9195,-1.9459,-1.9798,-1.8705,-1.7959,-1.749,-1.7246,-1.7266,-1.749,-1.75,-1.7891,-1.8545,-1.834,-1.8477,-1.8906,-1.8447,-1.8135,-1.793,-1.7695,-1.7317,-1.7002,-1.6523,-1.6084,-1.5703,-1.543,-1.5088,-1.4687,-1.4019,-1.3834,-1.4077,-1.3969,-1.3851,-1.3779,-1.3564,-1.3437,-1.3437,-1.3262,-1.3164,-1.3154,-1.2988,-1.2891,-1.2891,-1.2891,-1.2891,-1.2891,-1.2891,-1.2891,0.0,0.0,0.0,0.0,0.0,0.0,0.0,0.0,0.0,0.0,0.0,-1.2959,-1.3135,-1.3154,-1.3232,-1.3418,-1.3652,-1.3789,-1.3789,-1.3941,-1.4209,-1.4404,-1.4258,-1.4068,-1.4082,-1.3906,-1.3701,-1.3477,-1.3643,-1.3867,-1.4043,-1.4072,-1.4248,-1.4697,-1.4932,-1.5059,-1.5078,-1.5264,-1.542,-1.542,-1.5254,-1.509,-1.4876,-1.4363,-1.3658,-1.2897,-1.2538,-1.2097,-1.1478,-1.0765,-1.0472,-1.0982,-1.0486,-1.0046,-1.012,-1.014,-1.0154,-1.0127,-1.0094,-1.0013,-2.1885,-2.1651,-2.1783,-2.1894,-2.1816,-2.1006,-2.0644,-2.0596,-2.0185,-2.021,-2.0572,-1.9738,-1.9365,-1.9365,-1.9316,-1.9277,-1.9277,-1.9277,-1.9316,-1.9375,-1.9424,-1.9453,-1.9443,-1.9443,-1.9219,-1.8737,-1.8621,-1.8262,-1.7549,-1.7441,-1.6992,-1.6279,-1.6562,-1.6318,-1.5498,-1.5048,-1.4557,-1.4219,-1.4165,-1.4155,-1.4165,-1.4107,-1.4087,-1.4068,-1.3789,-1.3564,-1.3496,-1.3154,-1.2939,-1.2891,-1.2891,-1.2891,-1.2891,-1.2891,-1.291,0.0,-1.291,0.0,0.0,0.0,0.0,0.0,0.0,0.0,0.0,-1.2891,-1.3066,-1.3467,-1.3506,-1.3682,-1.4038,-1.418,-1.4219,-1.4219,-1.4204,-1.4453,-1.4795,-1.4531,-1.4424,-1.4746,-1.4453,-1.4145,-1.4068,-1.417,-1.4375,-1.4668,-1.4795,-1.4844,-1.4902,-1.5176,-1.5381,-1.542,-1.542,-1.542,-1.5391,-1.5117,-1.4773,-1.4403,-1.4102,-1.3446,-1.2646,-1.2814,-1.2904,-1.2411,-1.1548,-1.1142,-1.1751,-1.0898,-1.0154,-1.0146,-0.9944,-0.98,-0.9987,-1.0134,-1.0443,-2.2784,-2.2682,-2.2119,-2.1894,-2.1846,-2.1328,-2.0905,-2.056,-2.0528,-2.0526,-2.0594,-1.999,-1.9785,-1.9766,-1.9434,-1.9277,-1.9277,-1.9277,-1.9473,-1.9814,-2.0156,-2.0322,-2.0322,-2.0322,-2.0098,-1.9648,-1.8965,-1.8484,-1.8389,-1.7715,-1.7295,-1.7139,-1.6865,-1.6465,-1.5957,0.0,0.0,0.0,-1.4658,-1.4668,-1.4648,-1.4307,-1.4087,-1.4087,-1.4062,0.0,-1.3525,-1.3428,-1.3223,-1.291,-1.2891,0.0,0.0,0.0,0.0,0.0,0.0,0.0,0.0,0.0,0.0,0.0,-1.3389,-1.3242,-1.292,-1.2891,-1.3057,-1.3457,-1.3506,-1.3682,-1.4048,-1.4453,-1.4658,-1.4678,-1.4971,-1.5205,-1.5283,-1.5215,-1.5088,-1.4805,-1.4717,-1.4521,-1.4194,-1.4434,-1.4697,-1.4805,-1.5078,-1.5283,-1.5283,-1.5352,-1.541,-1.542,-1.542,-1.542,-1.542,-1.5332,-1.507,-1.4753,-1.4628,-1.4082,-1.3155,-1.3217,-1.3215,-1.258,-1.2329,-1.2201,-1.2293,-1.1406,-1.0624,-1.0338,-0.9945,-0.9699,-0.9753,-0.9613,-0.9486,-2.3093,0.0,-2.2634,-2.25,0.0,-2.2051,-2.1642,-2.1186,-2.0973,-2.1016,-2.1201,-2.0986,-2.0771,-2.0557,-2.0342,-2.0254,-2.0254,-2.0254,-2.0488,-2.0898,-2.1113,-2.1211,-2.1211,-2.0996,-2.0781,-2.0537,-1.9687,-1.916,-1.8926,-1.8311,-1.7793,-1.7383,-1.7373,-1.7041,-1.6416,-1.6396,-1.6064,-1.5488,-1.5205,-1.5195,-1.5391,-1.499,-1.471,-1.4756,-1.457,0.0,0.0,0.0,0.0,0.0,0.0,0.0,0.0,0.0,0.0,-1.376,-1.3223,-1.3154,-1.374,-1.3428,-1.3369,-1.3779,-1.3809,-1.373,-1.3516,-1.3506,-1.3672,-1.4092,-1.4141,-1.4307,-1.4727,-1.4971,-1.5098,-1.5107,-1.5283,-1.542,-1.542,-1.542,-1.5332,-1.5156,-1.5098,-1.5,-1.4795,-1.4941,-1.5088,-1.5107,-1.5264,-1.542,-1.542,-1.542,-1.542,-1.542,-1.542,-1.542,-1.54,-1.5215,-1.5146,-1.5059,-1.4922,-1.4453,-1.365,-1.4045,-1.4211,-1.3426,-1.3349,-1.3388,-1.3177,-1.2131,-1.0985,-1.0636,-0.9953,-0.9406,-0.9312,-0.9352,-0.9459,-2.3144,-2.3144,-2.3144,-2.3144,-2.3105,-2.2695,-2.2301,-2.2005,0.0,0.0,0.0,-2.1894,-2.1689,-2.1357,-2.1348,-2.1348,-2.1357,-2.1357,-2.1543,-2.1885,-2.1894,-2.1846,-2.1748,-2.1406,-2.1191,-2.1074,-2.0293,-1.9697,-1.9277,-1.8916,-1.833,-1.7607,-1.792,-1.7686,-1.6894,-1.6714,-1.6592,-1.6289,-1.5791,-1.5693,-1.6096,-1.5644,-1.542,-1.542,-1.5078,-1.4863,-1.4785,-1.4434,-1.4082,-1.3714,-1.3665,-1.3646,-1.3676,-1.3336,-1.3437,-1.4141,-1.3525,-1.3447,-1.4126,-1.3805,-1.3809,-1.4219,-1.4316,-1.4243,-1.4097,-1.4087,-1.4316,-1.4746,-1.4785,-1.4951,-1.5371,-1.541,-1.542,-1.542,-1.542,-1.542,-1.542,-1.542,-1.541,-1.542,-1.5391,-1.541,-1.5381,-1.5381,-1.542,-1.541,-1.54,-1.542,-1.542,-1.542,-1.542,-1.542,-1.542,-1.542,-1.5371,-1.5176,-1.5019,-1.5195,-1.4912,-1.4521,-1.4258,-1.46,-1.4736,-1.398,-1.3989,-1.3901,-1.3754,-1.2497,-1.131,-1.0876,-1.0057,-0.933,-0.8991,-0.9218,-0.9472,-2.3144,-2.3144,-2.3144,-2.3144,-2.3105,-2.2695,-2.251,-2.2471,-2.2679,-2.2489,-2.1894,-2.1894,-2.1855,-2.1797,-2.1797,-2.1797,-2.1787,-2.1787,-2.1826,-2.1894,-2.1894,-2.168,-2.1328,-2.126,-2.1035,-2.0644,-2.0156,-1.9697,-1.9326,-1.9228,-1.876,-1.8076,-1.834,-1.8125,-1.7334,-1.6914,-1.6885,-1.7168,-1.6396,-1.6066,-1.6115,-1.5635,-1.542,-1.541,-1.5352,-1.5146,-1.4805,-1.4727,-1.4373,-1.3752,-1.3883,-1.3937,-1.3714,-1.3816,-1.417,-1.4629,-1.4228,-1.417,-1.4648,-1.4287,-1.4228,-1.4658,-1.5019,-1.4922,-1.4155,-1.4087,-1.4316,-1.4727,-1.4805,-1.4951,-1.5352,-1.542,-1.542,-1.542,-1.542,-1.542,-1.542,-1.542,-1.542,-1.542,-1.542,-1.542,-1.542,-1.542,-1.542,-1.542,-1.542,-1.542,-1.542,-1.542,-1.542,-1.542,-1.542,-1.542,-1.54,-1.5381,-1.5215,-1.4912,-1.458,-1.4248,-1.3828,-1.3945,-1.3984,-1.3652,-1.3565,-1.3296,-1.295,-1.2405,-1.1575,-1.073,-1.025,-0.9973,-0.9234,-0.9065,-0.8978,-2.3144,-2.3144,-2.3144,-2.3144,-2.3125,-2.293,-2.2852,-2.2842,-2.3001,-2.2903,-2.2568,-2.2568,-2.2441,-2.2236,-2.2236,-2.2227,-2.2227,-2.2217,-2.2227,-2.2227,-2.2227,-2.1992,-2.1592,-2.1338,-2.1133,-2.0908,-2.0478,-2.0039,-1.9668,-1.9629,-1.9316,-1.875,-1.8906,-1.8564,-1.7773,-1.7754,-1.7754,-1.7695,-1.6631,-1.6243,-1.6406,-1.5762,-1.542,-1.542,-1.542,-1.5332,-1.5137,-1.5127,-1.4963,-1.4617,-1.4535,-1.4525,-1.4588,-1.4321,-1.4424,-1.5049,-1.4437,-1.4424,-1.5078,-1.4941,-1.4912,-1.5107,-1.5293,-1.5254,-1.4853,-1.4824,-1.4912,-1.5107,-1.5127,-1.5205,-1.5391,-1.542,-1.542,-1.542,-1.542,-1.542,-1.542,-1.542,-1.542,-1.542,-1.542,-1.542,-1.542,-1.542,-1.542,-1.542,-1.542,-1.542,-1.542,-1.542,-1.542,-1.542,-1.542,-1.542,-1.542,-1.542,-1.5322,-1.5137,-1.4961,-1.4658,-1.4316,-1.4336,-1.4307,-1.3922,-1.3911,-1.3661,-1.2994,-1.2534,-1.1768,-1.0716,-1.021,-0.9813,-0.9159,-0.8884,-0.8824,-2.3144,-2.3144,-2.3144,-2.3144,-2.3144,-2.3144,-2.3144,-2.3144,-2.3135,-2.3144,-2.3144,-2.3144,-2.2959,-2.2666,-2.2646,-2.2656,-2.2656,-2.2656,-2.2646,-2.2646,-2.2549,-2.2305,-2.1967,-2.1445,-2.1191,-2.1055,-2.0723,-2.0342,-1.9961,-2.001,-1.9844,-1.9463,-1.9336,-1.8955,-1.8311,-1.8516,-1.8477,-1.8105,-1.6963,-1.6484,-1.6636,-1.6055,-1.5615,-1.542,-1.5518,-1.5518,-1.542,-1.542,-1.542,-1.54,-1.5107,-1.5078,-1.5361,-1.4729,-1.4717,-1.5273,-1.4795,-1.4756,-1.5459,-1.5459,-1.5449,-1.5547,-1.5469,-1.542,-1.542,-1.542,-1.542,-1.542,-1.54,-1.541,-1.542,-1.542,-1.542,-1.542,-1.542,-1.542,-1.542,-1.542,-1.542,-1.542,-1.542,-1.542,-1.542,-1.542,-1.542,-1.542,-1.542,-1.542,-1.542,-1.542,-1.542,-1.542,-1.542,-1.542,-1.542,-1.542,-1.541,-1.542,-1.5293,-1.5039,-1.4805,-1.4912,-1.4727,-1.4019,-1.3912,-1.3553,-1.2932,-1.2427,-1.1735,-1.0685,-1.0202,-0.9708,-0.8998,-0.8824,-0.8804,-2.3144,-2.3144,-2.3144,-2.3144,-2.3144,-2.3144,-2.3144,-2.3144,-2.3144,-2.3144,-2.3144,-2.3144,-2.3125,-2.3086,-2.3066,-2.3057,-2.3066,-2.3076,-2.2979,-2.2998,-2.2685,-2.2408,-2.2192,-2.1556,-2.1016,-2.0703,-2.0605,-2.0371,-2.0029,-2.0312,-2.0283,-1.9853,-1.9473,-1.9258,-1.9131,-1.8818,-1.8553,-1.8564,-1.7715,-1.71,-1.6685,-1.665,-1.623,-1.5439,-1.5801,-1.5811,-1.5488,-1.542,-1.542,-1.542,-1.54,-1.5381,-1.541,-1.5332,-1.5332,-1.542,-1.5342,-1.5508,-1.5918,-1.5635,-1.5605,-1.5928,-1.5635,-1.543,-1.542,-1.542,-1.542,-1.542,-1.542,-1.542,-1.542,-1.542,-1.542,-1.542,-1.542,-1.542,-1.542,-1.542,-1.542,-1.542,-1.542,-1.542,-1.542,-1.542,-1.542,-1.542,-1.542,-1.542,-1.542,-1.542,-1.542,-1.542,-1.542,-1.542,-1.542,-1.542,-1.542,-1.5391,-1.5107,-1.4941,-1.4805,-1.4307,-1.3652,-1.3863,-1.2953,-1.2457,-1.2097,-1.1731,-1.132,-1.0578,-1.0176,-1.0031,-0.9097,-0.8804,-0.8804,-2.3144,-2.3144,-2.3144,-2.3144,-2.3144,-2.3144,-2.3144,-2.3144,-2.3144,-2.3144,-2.3144,-2.3144,-2.3144,-2.3144,-2.3144,-2.3144,-2.3144,-2.3144,-2.3008,-2.2773,-2.2588,-2.2285,-2.1753,-2.1354,-2.115,-2.106,-2.0722,-2.0615,-2.0674,-2.0615,-2.0478,-2.0312,-2.0117,-1.9795,-1.9346,-1.9355,-1.916,-1.8572,-1.8301,-1.7803,-1.7168,-1.6855,-1.6562,-1.626,-1.6367,-1.6387,-1.6221,-1.6191,-1.5959,-1.5477,-1.5879,-1.6191,-1.613,-1.6191,-1.6191,-1.6191,-1.6191,-1.6269,-1.6445,-1.6289,-1.6162,-1.6145,-1.566,-1.5388,-1.5439,-1.542,-1.542,-1.542,-1.542,-1.542,-1.543,-1.542,-1.542,-1.542,-1.542,-1.543,-1.542,-1.542,-1.542,-1.542,-1.542,-1.542,-1.542,-1.542,-1.542,-1.542,-1.542,-1.542,-1.542,-1.542,-1.542,-1.542,-1.542,-1.542,-1.542,-1.542,-1.542,-1.5381,-1.5273,-1.5156,-1.5049,-1.4697,-1.4219,-1.3936,-1.3221,-1.2479,-1.1945,-1.155,-1.1112,-1.0356,-0.9606,-0.9298,-0.8877,-0.8804,-0.8804,-2.3144,-2.3144,-2.3144,-2.3144,-2.3144,-2.3144,-2.3144,-2.3144,-2.3144,-2.3144,-2.3144,-2.3144,-2.3144,-2.3144,-2.3144,-2.3144,-2.3144,-2.3144,-2.2978,-2.2695,-2.2685,-2.2357,-2.1845,-2.1637,-2.1568,-2.1516,-2.114,-2.1103,-2.1348,-2.1113,-2.0869,-2.0771,-2.0752,-2.0381,-1.9736,-1.9853,-1.9609,-1.9033,-1.8779,-1.834,-1.7754,-1.7305,-1.6973,-1.6768,-1.6846,-1.6855,-1.6665,-1.6665,-1.6408,-1.5823,-1.6325,-1.6821,-1.707,-1.6831,-1.6665,-1.6665,-1.6665,-1.6733,-1.6894,-1.6807,-1.6641,-1.6436,-1.5832,-1.5543,-1.5691,-1.5771,-1.5771,-1.5801,-1.5771,-1.5771,-1.5596,-1.5703,-1.5771,-1.5771,-1.5771,-1.5781,-1.5791,-1.5771,-1.5801,-1.5771,-1.5723,-1.5537,-1.5439,-1.542,-1.542,-1.542,-1.542,-1.542,-1.542,-1.542,-1.542,-1.542,-1.542,-1.542,-1.542,-1.542,-1.542,-1.542,-1.5381,-1.5381,-1.5381,-1.5039,-1.4756,-1.4297,-1.3857,-1.3314,-1.2544,-1.1938,-1.0817,-0.9866,-0.9166,-0.8871,-0.8811,-0.8804,-0.8804,-2.3144,-2.3144,-2.3144,-2.3144,-2.3144,-2.3144,-2.3144,-2.3144,-2.3144,-2.3144,-2.3144,-2.3144,-2.3144,-2.3144,-2.3144,-2.3144,-2.3144,-2.3144,-2.3115,-2.3076,-2.3086,-2.3016,-2.2978,-2.267,-2.2256,-2.1899,-2.1797,-2.1768,-2.1855,-2.1816,-2.1611,-2.124,-2.1191,-2.0947,-2.0488,-2.0127,-1.9902,-1.9717,-1.9102,-1.8623,-1.8506,-1.8135,-1.7549,-1.686,-1.7148,-1.7178,-1.6836,-1.6685,-1.6685,-1.6665,-1.6714,-1.711,-1.7724,-1.7193,-1.6724,-1.6777,-1.6768,-1.6943,-1.7236,-1.7012,-1.6914,-1.7074,-1.623,-1.5776,-1.648,-1.6625,-1.6625,-1.6568,-1.6592,-1.6475,-1.6182,-1.6348,-1.6553,-1.651,-1.6548,-1.6611,-1.6621,-1.6471,-1.6587,-1.6562,-1.626,-1.5928,-1.5527,-1.542,-1.5459,-1.5459,-1.543,-1.542,-1.542,-1.542,-1.542,-1.542,-1.542,-1.542,-1.542,-1.542,-1.542,-1.542,-1.542,-1.542,-1.5273,-1.5107,-1.4873,-1.4476,-1.3743,-1.3253,-1.3023,-1.2091,-1.0558,-0.9562,-0.9061,-0.8804,-0.8804,-0.8804,-0.8804,-2.3144,-2.3144,-2.3144,-2.3144,-2.3144,-2.3144,-2.3144,-2.3144,-2.3144,-2.3144,-2.3144,-2.3144,-2.3144,-2.3144,-2.3144,-2.3144,-2.3144,-2.3144,-2.3144,-2.3144,-2.3144,-2.3076,-2.3036,-2.2666,-2.2607,-2.2617,-2.2148,-2.2021,-2.2236,-2.2031,-2.1953,-2.1934,-2.1494,-2.1143,-2.0947,-2.0547,-2.0195,-1.9912,-1.9797,-1.9495,-1.8701,-1.8486,-1.8125,-1.7607,-1.7705,-1.7715,-1.7549,-1.7559,-1.7549,-1.7559,-1.7549,-1.7654,-1.7912,-1.773,-1.7549,-1.7549,-1.7549,-1.7617,-1.7734,-1.7646,-1.749,-1.7363,-1.7246,-1.6864,-1.6807,-1.7163,-1.7329,-1.688,-1.7012,-1.7031,-1.6934,-1.6816,-1.6665,-1.6665,-1.6675,-1.6704,-1.6665,-1.6665,-1.6665,-1.6709,-1.6572,-1.6416,-1.6211,-1.6006,-1.583,-1.5801,-1.5596,-1.5439,-1.542,-1.542,-1.542,-1.542,-1.542,-1.542,-1.542,-1.542,-1.542,-1.542,-1.542,-1.542,-1.5322,-1.4814,-1.4502,-1.4167,-1.3456,-1.2799,-1.2535,-1.1736,-1.0269,-0.9361,-0.885,-0.8804,-0.8804,-0.8804,-0.8804,-2.3144,-2.3144,-2.3144,-2.3144,-2.3144,-2.3144,-2.3144,-2.3144,-2.3144,-2.3144,-2.3144,-2.3144,-2.3144,-2.3144,-2.3144,-2.3144,-2.3144,-2.3144,-2.3144,-2.3144,-2.3144,-2.3144,-2.3096,-2.2842,-2.2861,-2.3027,-2.2578,-2.2441,-2.2656,-2.2432,-2.2383,-2.2451,-2.1787,-2.1377,-2.1191,-2.0791,-2.04,-2.0252,-2.0486,-2.0038,-1.8936,-1.864,-1.8428,-1.8076,-1.8008,-1.8008,-1.8008,-1.8008,-1.8008,-1.8008,-1.8008,-1.8008,-1.8008,-1.8008,-1.8008,-1.8008,-1.7998,-1.8008,-1.8008,-1.8008,-1.7881,-1.7627,-1.7846,-1.7698,-1.7262,-1.7676,-1.7676,-1.7311,-1.7373,-1.7588,-1.7539,-1.7324,-1.7148,-1.7139,-1.7139,-1.7148,-1.7139,-1.7158,-1.7174,-1.714,-1.689,-1.6738,-1.668,-1.6309,-1.6154,-1.6125,-1.5684,-1.543,-1.542,-1.542,-1.542,-1.542,-1.542,-1.542,-1.542,-1.542,-1.542,-1.542,-1.541,-1.541,-1.5158,-1.4586,-1.408,-1.3765,-1.3227,-1.2489,-1.1805,-1.1099,-1.0277,-0.9271,-0.8903,-0.8804,-0.8804,-0.8804,-0.8804,-2.3144,-2.3144,-2.3144,-2.3144,-2.3144,-2.3144,-2.3144,-2.3144,-2.3144,-2.3144,-2.3144,-2.3144,-2.3144,-2.3144,-2.3144,-2.3144,-2.3144,-2.3144,-2.3144,-2.3144,-2.3144,-2.3144,-2.3135,-2.3096,-2.3086,-2.3144,-2.3115,-2.3096,-2.3076,-2.3018,-2.2871,-2.2519,-2.2119,-2.1689,-2.1269,-2.0869,-2.0586,-2.0546,-2.0569,-2.0143,-1.9389,-1.8906,-1.8506,-1.8105,-1.8027,-1.8008,-1.8008,-1.8008,-1.8008,-1.8008,-1.8008,-1.8008,-1.8008,-1.8008,-1.8008,-1.8008,-1.8008,-1.8008,-1.8008,-1.8008,-1.7998,-1.7939,-1.7978,-1.793,-1.7861,-1.7958,-1.7968,-1.7871,-1.79,-1.7969,-1.7959,-1.79,-1.7881,-1.7978,-1.7861,-1.7861,-1.791,-1.7969,-1.7939,-1.7784,-1.7268,-1.6787,-1.6689,-1.6504,-1.6351,-1.6243,-1.5869,-1.5566,-1.5537,-1.5527,-1.5459,-1.542,-1.542,-1.542,-1.542,-1.542,-1.542,-1.542,-1.541,-1.5342,-1.5013,-1.4554,-1.3867,-1.3433,-1.2581,-1.184,-1.0941,-1.0329,-1.0202,-0.9422,-0.9123,-0.8844,-0.8804,-0.8804,-0.8804,-2.3144,-2.3144,-2.3144,-2.3144,-2.3144,-2.3144,-2.3144,-2.3144,-2.3144,-2.3144,-2.3144,-2.3144,-2.3144,-2.3144,-2.3144,-2.3144,-2.3144,-2.3144,-2.3144,-2.3144,-2.3144,-2.3144,-2.3144,-2.3144,-2.3144,-2.3144,-2.3144,-2.3144,-2.3144,-2.3144,-2.3047,-2.2881,-2.2519,-2.21,-2.168,-2.1031,-2.0593,-2.0576,-2.0623,-2.0338,-1.9727,-1.9297,-1.8867,-1.8467,-1.8164,-1.8008,-1.8008,-1.8008,-1.8008,-1.8008,-1.8008,-1.8008,-1.8008,-1.8008,-1.8008,-1.8008,-1.8008,-1.8008,-1.8008,-1.8008,-1.8008,-1.8008,-1.8008,-1.8008,-1.8008,-1.8008,-1.8008,-1.8008,-1.8008,-1.8008,-1.8008,-1.8008,-1.8008,-1.8008,-1.8008,-1.8008,-1.7998,-1.7988,-1.7784,-1.7494,-1.7503,-1.7541,-1.7519,-1.7207,-1.6904,-1.6865,-1.6533,-1.6201,-1.5918,-1.5811,-1.5693,-1.5498,-1.5469,-1.5294,-1.5157,-1.5157,-1.5225,-1.5108,-1.505,-1.505,-1.477,-1.4188,-1.3543,-1.277,-1.1901,-1.1209,-1.0249,-0.9836,-0.9789,-0.9627,-0.9282,-0.9025,-0.8858,-0.8831,-0.8878,-2.3144,-2.3144,-2.3144,-2.3144,-2.3144,-2.3144,-2.3144,-2.3144,-2.3144,-2.3144,-2.3144,-2.3144,-2.3144,-2.3144,-2.3144,-2.3144,-2.3144,-2.3144,-2.3144,-2.3144,-2.3144,-2.3144,-2.3144,-2.3144,-2.3144,-2.3144,-2.3144,-2.3144,-2.3144,-2.3144,-2.3135,-2.3066,-2.2715,-2.2393,-2.206,-2.112,-2.0649,-2.082,-2.0644,-2.0361,-1.9932,-1.9502,-1.9082,-1.8652,-1.8223,-1.8027,-1.8008,-1.8008,-1.8008,-1.8008,-1.8008,-1.8008,-1.8008,-1.8008,-1.8008,-1.8008,-1.8008,-1.8008,-1.8008,-1.8008,-1.8008,-1.8008,-1.8008,-1.8008,-1.8008,-1.8008,-1.8008,-1.8008,-1.8008,-1.8008,-1.8008,-1.8008,-1.8008,-1.8008,-1.8008,-1.8008,-1.7988,-1.7861,-1.7784,-1.7533,-1.7649,-1.7794,-1.7881,-1.7656,-1.7402,-1.7324,-1.7012,-1.6572,-1.6211,-1.6115,-1.5811,-1.5576,-1.5449,-1.5225,-1.4845,-1.4904,-1.504,-1.4805,-1.4569,-1.4569,-1.4405,-1.3561,-1.2851,-1.1736,-1.0848,-1.0717,-0.9955,-0.991,-0.9841,-0.9624,-0.9498,-0.9265,-0.9138,-0.9031,-0.9011,-2.3144,-2.3144,-2.3144,-2.3144,-2.3144,-2.3144,-2.3144,-2.3144,-2.3144,-2.3144,-2.3144,-2.3144,-2.3144,-2.3144,-2.3144,-2.3144,-2.3144,-2.3144,-2.3144,-2.3144,-2.3144,-2.3144,-2.3144,-2.3144,-2.3144,-2.3144,-2.3144,-2.3144,-2.3144,-2.3144,-2.3144,-2.3096,-2.2793,-2.2529,-2.2324,-2.1265,-2.098,-2.1043,-2.0781,-2.0361,-1.999,-1.957,-1.915,-1.8721,-1.832,-1.8066,-1.8008,-1.8008,-1.8008,-1.8008,-1.8008,-1.8008,-1.8008,-1.8008,-1.8008,-1.8008,-1.8008,-1.8008,-1.8008,-1.8008,-1.8008,-1.8008,-1.8008,-1.8008,-1.8008,-1.8008,-1.8008,-1.8008,-1.8008,-1.8008,-1.8008,-1.8008,-1.8008,-1.8008,-1.8008,-1.8008,-1.7978,-1.7686,-1.7705,-1.7794,-1.7695,-1.7568,-1.7959,-1.7666,-1.7519,-1.7402,-1.7148,-1.6797,-1.6338,-1.6162,-1.5898,-1.5624,-1.5303,-1.4678,-1.4186,-1.4195,-1.4264,-1.4016,-1.3786,-1.3597,-1.3494,-1.273,-1.2022,-1.0917,-1.0255,-1.0115,-1.0059,-0.9971,-1.0041,-1.0041,-0.9863,-0.959,-0.9406,-0.9272,-0.9132,-2.3144,-2.3144,-2.3144,-2.3144,-2.3144,-2.3144,-2.3144,-2.3144,-2.3144,-2.3144,-2.3144,-2.3144,-2.3144,-2.3144,-2.3144,-2.3144,-2.3144,-2.3144,-2.3144,-2.3144,-2.3144,-2.3144,-2.3144,-2.3144,-2.3144,-2.3144,-2.3144,-2.3144,-2.3144,-2.3144,-2.3144,-2.3144,-2.3018,-2.2803,-2.2471,-2.2433,-2.1997,-2.123,-2.0791,-2.0527,-2.0342,-1.9951,-1.9551,-1.9121,-1.8682,-1.832,-1.8057,-1.8008,-1.8008,-1.8008,-1.8008,-1.8008,-1.8008,-1.8008,-1.8008,-1.8008,-1.8008,-1.8008,-1.8008,-1.8008,-1.8008,-1.8008,-1.8008,-1.8008,-1.8008,-1.8008,-1.8008,-1.8008,-1.8008,-1.8008,-1.8008,-1.8008,-1.8008,-1.8008,-1.8008,-1.8008,-1.7988,-1.793,-1.79,-1.7969,-1.7881,-1.79,-1.792,-1.791,-1.7803,-1.7783,-1.7637,-1.7353,-1.6787,-1.6326,-1.6119,-1.5381,-1.4937,-1.4121,-1.3597,-1.3545,-1.3425,-1.3174,-1.281,-1.2312,-1.205,-1.1518,-1.0934,-1.0185,-1.0144,-1.0082,-1.0082,-1.004,-1.0226,-1.0412,-1.0205,-0.9893,-0.9619,-0.9439,-0.9292,-2.3145,-2.3144,-2.3144,-2.3144,-2.3144,-2.3144,-2.3144,-2.3144,-2.3144,-2.3144,-2.3144,-2.3144,-2.3144,-2.3144,-2.3144,-2.3144,-2.3144,-2.3144,-2.3144,-2.3144,-2.3144,-2.3144,-2.3144,-2.3144,-2.3144,-2.3144,-2.3144,-2.3144,-2.3144,-2.3144,-2.3144,-2.3144,-2.3144,-2.2998,-2.2803,-2.2924,-2.2599,-2.1614,-2.0956,-2.0575,-2.0547,-2.0137,-1.9844,-1.9453,-1.8984,-1.8437,-1.8076,-1.8008,-1.8008,-1.8008,-1.8008,-1.8008,-1.8008,-1.8008,-1.8008,-1.8008,-1.8008,-1.8008,-1.8008,-1.8008,-1.8008,-1.8008,-1.8008,-1.8008,-1.8008,-1.8008,-1.8008,-1.8008,-1.8008,-1.8008,-1.8008,-1.8008,-1.8008,-1.8008,-1.8008,-1.8008,-1.8008,-1.7998,-1.8008,-1.8008,-1.8008,-1.8008,-1.8008,-1.8008,-1.8008,-1.7998,-1.7959,-1.7588,-1.7093,-1.6699,-1.613,-1.5355,-1.4294,-1.34,-1.2846,-1.2691,-1.2458,-1.2212,-1.202,-1.1469,-1.1224,-1.0739,-1.0506,-1.0215,-1.0141,-1.0053,-1.012,-1.0214,-1.0356,-1.0424,-1.0301,-1.018,-0.9913,-0.9679,-0.9519,-2.2691,-2.2687,-2.2862,-2.296,-2.2862,-2.3047,-2.3144,-2.3144,-2.3144,-2.3144,-2.3144,-2.3144,-2.3144,-2.3144,-2.3232,-2.3203,-2.3154,-2.3232,-2.3193,-2.3164,-2.3144,-2.3144,-2.3144,-2.3144,-2.3144,-2.3144,-2.3144,-2.3144,-2.3144,-2.3144,-2.3144,-2.3144,-2.3144,-2.3144,-2.3008,-2.3041,-2.2656,-2.1924,-2.0995,-2.07,-2.0596,-2.0293,-2.0,-1.9746,-1.9023,-1.8457,-1.8125,-1.8008,-1.8008,-1.8008,-1.8008,-1.8008,-1.8008,-1.8008,-1.8008,-1.8008,-1.8008,-1.8008,-1.8008,-1.8008,-1.8008,-1.8008,-1.8008,-1.8008,-1.8008,-1.8008,-1.8008,-1.8008,-1.8008,-1.8008,-1.8008,-1.8008,-1.8008,-1.8008,-1.8008,-1.8008,-1.8008,-1.8008,-1.8008,-1.8008,-1.8008,-1.8008,-1.8008,-1.8008,-1.8008,-1.794,-1.7833,-1.7235,-1.6646,-1.6063,-1.5543,-1.5071,-1.3863,-1.2615,-1.216,-1.1766,-1.1519,-1.1233,-1.117,-1.0863,-1.0863,-1.0586,-1.0436,-1.0301,-1.0274,-1.0247,-1.0241,-1.0354,-1.0474,-1.0508,-1.0441,-1.0347,-1.0214,-1.0013,-0.984,-2.0266,-2.0314,-2.1302,-2.1667,-2.1845,-2.2677,-2.3057,-2.3076,-2.3057,-2.296,-2.3057,-2.3057,-2.3047,-2.3067,-2.3339,-2.3477,-2.3125,-2.331,-2.3477,-2.3154,-2.3144,-2.3144,-2.3144,-2.3144,-2.3144,-2.3144,-2.3144,-2.3144,-2.3144,-2.3144,-2.3144,-2.3144,-2.3144,-2.3144,-2.3096,-2.312,-2.2843,-2.2256,-2.1226,-2.0841,-2.0936,-2.0644,-2.0254,-1.9817,-1.8976,-1.8416,-1.8105,-1.8008,-1.8008,-1.8008,-1.8008,-1.8008,-1.8008,-1.8008,-1.8008,-1.8008,-1.8008,-1.8008,-1.8008,-1.794,-1.8008,-1.794,-1.7862,-1.8008,-1.8008,-1.8027,-1.8027,-1.8018,-1.8008,-1.8047,-1.8008,-1.8008,-1.8008,-1.8008,-1.8008,-1.8008,-1.8008,-1.8008,-1.8008,-1.8008,-1.8008,-1.8008,-1.8008,-1.7872,-1.7872,-1.7872,-1.7357,-1.6797,-1.6079,-1.5436,-1.5061,-1.4715,-1.3294,-1.2094,-1.1502,-1.1191,-1.1087,-1.087,-1.0681,-1.0635,-1.0628,-1.0618,-1.0461,-1.0468,-1.0564,-1.0461,-1.0381,-1.0428,-1.0534,-1.0611,-1.0618,-1.0481,-1.0374,-1.0247,-1.0027,-1.8402,-1.9579,-2.0215,-2.0486,-2.0584,-2.1132,-2.2082,-2.2678,-2.1848,-2.2097,-2.2625,-2.2017,-2.1765,-2.2255,-2.2721,-2.2711,-2.2527,-2.3075,-2.3359,-2.3164,-2.3144,-2.3144,-2.3144,-2.3144,-2.3144,-2.3047,-2.3144,-2.3144,-2.3144,-2.3144,-2.3144,-2.3144,-2.3047,-2.3144,-2.3144,-2.3065,-2.284,-2.2595,-2.209,-2.167,-2.125,-2.1016,-2.0207,-1.924,-1.8294,-1.7615,-1.7521,-1.7525,-1.77,-1.792,-1.8008,-1.8008,-1.8008,-1.8008,-1.8008,-1.8008,-1.8008,-1.7716,-1.7501,-1.7364,-1.7285,-1.7354,-1.7364,-1.7354,-1.7567,-1.787,-1.7889,-1.7684,-1.786,-1.8252,-1.8047,-1.8008,-1.8008,-1.8008,-1.8008,-1.7862,-1.7501,-1.7716,-1.8008,-1.8008,-1.8008,-1.7725,-1.7579,-1.7364,-1.6941,-1.6655,-1.6367,-1.5765,-1.5556,-1.4948,-1.4841,-1.4204,-1.2781,-1.1657,-1.1002,-1.0745,-1.0785,-1.0681,-1.0618,-1.0688,-1.0795,-1.0675,-1.0611,-1.0638,-1.0658,-1.0618,-1.0501,-1.0618,-1.0618,-1.0618,-1.0618,-1.0618,-1.0521,-1.0408,-1.0127,-1.7072,-1.8948,-1.9131,-1.9222,-1.9222,-1.9497,-2.0685,-2.1971,-2.0394,-2.0421,-2.1446,-2.0059,-2.0305,-2.0934,-2.1452,-2.1407,-2.1473,-2.1863,-2.2157,-2.2148,-2.2138,-2.2138,-2.2138,-2.2227,-2.2227,-2.2589,-2.296,-2.3047,-2.3144,-2.3047,-2.295,-2.2862,-2.2775,-2.2403,-2.2501,-2.2949,-2.262,-2.191,-2.1835,-2.1522,-2.0712,-2.0404,-1.9519,-1.8246,-1.7415,-1.6843,-1.6771,-1.6812,-1.6991,-1.7548,-1.7579,-1.7579,-1.7579,-1.7794,-1.7647,-1.7579,-1.7364,-1.7001,-1.6498,-1.6358,-1.6358,-1.6358,-1.6524,-1.65,-1.6738,-1.7051,-1.7115,-1.7186,-1.7275,-1.79,-1.793,-1.7432,-1.7501,-1.7647,-1.7647,-1.7217,-1.6784,-1.7139,-1.7295,-1.7373,-1.7079,-1.6793,-1.6576,-1.6358,-1.5869,-1.5376,-1.5163,-1.495,-1.4665,-1.4371,-1.4076,-1.3686,-1.2338,-1.1501,-1.0797,-1.0627,-1.0621,-1.0621,-1.0608,-1.0788,-1.0935,-1.0835,-1.0722,-1.0655,-1.0712,-1.0658,-1.0618,-1.0618,-1.0618,-1.0618,-1.0618,-1.0618,-1.0618,-1.0618,-1.0241,-1.6082,-1.6473,-1.7584,-1.7963,-1.8141,-1.9039,-1.9637,-2.0044,-1.9538,-1.8482,-1.747,-1.8712,-1.9397,-1.9862,-2.0231,-2.034,-2.039,-2.0559,-2.0404,-2.0404,-2.0404,-2.0404,-2.0494,-2.0584,-2.0395,-2.0674,-2.1774,-2.2775,-2.2862,-2.3047,-2.2306,-2.1756,-2.1578,-2.1212,-2.1149,-2.1817,-2.1843,-2.0517,-2.0218,-1.9635,-1.9349,-1.8665,-1.8138,-1.7079,-1.6602,-1.6305,-1.5931,-1.5863,-1.5825,-1.5709,-1.5675,-1.5737,-1.5869,-1.6367,-1.6367,-1.6079,-1.5948,-1.5869,-1.5517,-1.5446,-1.5446,-1.5534,-1.5797,-1.5897,-1.5816,-1.5763,-1.6026,-1.6235,-1.6255,-1.6634,-1.7842,-1.6793,-1.6289,-1.6437,-1.6298,-1.5737,-1.5587,-1.5587,-1.5728,-1.5658,-1.5658,-1.5728,-1.5508,-1.5367,-1.5013,-1.4522,-1.4163,-1.4019,-1.3875,-1.3375,-1.2872,-1.2504,-1.1982,-1.1276,-1.0722,-1.0657,-1.0641,-1.0715,-1.0775,-1.0975,-1.1056,-1.0989,-1.0909,-1.0895,-1.0728,-1.0638,-1.0618,-1.0618,-1.0618,-1.0618,-1.0618,-1.0618,-1.0618,-1.0604,-1.0401,-1.5825,-1.5825,-1.6487,-1.6756,-1.6857,-1.7304,-1.7569,-1.7576,-1.7569,-1.6957,-1.6387,-1.7072,-1.8033,-1.8497,-1.895,-1.9461,-1.9824,-1.9653,-1.9505,-1.9497,-1.9497,-1.9497,-1.9405,-1.9405,-1.9497,-1.977,-2.0764,-2.1221,-2.1221,-2.1132,-2.0944,-2.0576,-2.0395,-2.0034,-1.9795,-2.0486,-2.052,-1.9348,-1.834,-1.7998,-1.8368,-1.7578,-1.6664,-1.6246,-1.5678,-1.5363,-1.5483,-1.535,-1.5396,-1.543,-1.5444,-1.5049,-1.4792,-1.4799,-1.5155,-1.5092,-1.5092,-1.4879,-1.4522,-1.445,-1.4386,-1.4466,-1.4888,-1.4985,-1.4988,-1.513,-1.5296,-1.5753,-1.5757,-1.5841,-1.6412,-1.5666,-1.5587,-1.5649,-1.5367,-1.495,-1.4593,-1.4458,-1.4235,-1.4091,-1.4728,-1.4879,-1.4522,-1.4307,-1.4163,-1.3738,-1.331,-1.3164,-1.3091,-1.2732,-1.2305,-1.2111,-1.1844,-1.1423,-1.0955,-1.0895,-1.0828,-1.0862,-1.1002,-1.1202,-1.1256,-1.1223,-1.1209,-1.1196,-1.0969,-1.0635,-1.0618,-1.0618,-1.0618,-1.0618,-1.0618,-1.0618,-1.0618,-1.0508,-1.0388,-1.5825,-1.5825,-1.5825,-1.5825,-1.5825,-1.5825,-1.5825,-1.5825,-1.592,-1.594,-1.5846,-1.5947,-1.648,-1.7196,-1.772,-1.8328,-1.9231,-1.8759,-1.8596,-1.8488,-1.8488,-1.8672,-1.8672,-1.8764,-1.8488,-1.8303,-1.858,-1.9039,-1.977,-1.9861,-1.9497,-1.9222,-1.9131,-1.8948,-1.8788,-1.8619,-1.8764,-1.811,-1.7117,-1.6759,-1.73,-1.6598,-1.5616,-1.5416,-1.4573,-1.4407,-1.4714,-1.4641,-1.4639,-1.4772,-1.4688,-1.4417,-1.3572,-1.3455,-1.3818,-1.445,-1.4585,-1.4163,-1.3665,-1.3382,-1.3455,-1.3455,-1.3702,-1.3844,-1.4146,-1.4642,-1.5196,-1.5671,-1.5336,-1.5185,-1.5333,-1.4807,-1.4728,-1.4807,-1.4665,-1.4307,-1.3738,-1.3382,-1.3164,-1.3375,-1.4091,-1.4019,-1.3593,-1.3448,-1.3302,-1.3164,-1.2739,-1.2739,-1.2666,-1.2592,-1.2271,-1.2144,-1.1911,-1.1597,-1.1323,-1.1236,-1.1162,-1.1109,-1.1309,-1.153,-1.1536,-1.1503,-1.147,-1.139,-1.089,-1.0593,-1.0578,-1.0624,-1.0618,-1.0618,-1.0618,-1.0618,-1.0618,-1.0611,-1.0474,-1.5825,-1.5825,-1.5825,-1.5825,-1.5825,-1.5825,-1.5825,-1.5825,-1.5825,-1.5825,-1.5772,-1.5812,-1.592,-1.6123,-1.6231,-1.6265,-1.6434,-1.6602,-1.6655,-1.6741,-1.6655,-1.6662,-1.6379,-1.6197,-1.6655,-1.6741,-1.6567,-1.7576,-1.858,-1.9131,-1.8772,-1.8133,-1.777,-1.7498,-1.6842,-1.6835,-1.6197,-1.6285,-1.5954,-1.5783,-1.559,-1.5143,-1.4747,-1.4416,-1.423,-1.4052,-1.4029,-1.3925,-1.3653,-1.3355,-1.3042,-1.2742,-1.2445,-1.2445,-1.2519,-1.2586,-1.2586,-1.2586,-1.2599,-1.2707,-1.268,-1.2693,-1.2728,-1.2852,-1.3464,-1.4026,-1.4543,-1.4654,-1.4129,-1.4092,-1.4436,-1.3608,-1.3382,-1.3375,-1.3382,-1.3025,-1.2592,-1.2879,-1.2592,-1.2592,-1.3237,-1.3018,-1.2666,-1.2519,-1.2445,-1.2378,-1.2305,-1.2305,-1.2305,-1.2305,-1.2278,-1.2164,-1.2084,-1.179,-1.1643,-1.1557,-1.1496,-1.1403,-1.1603,-1.183,-1.1804,-1.175,-1.1617,-1.1394,-1.0962,-1.062,-1.0651,-1.0641,-1.0645,-1.0618,-1.0618,-1.0618,-1.0618,-1.0604,-1.0591,-1.5825,-1.5825,-1.5825,-1.5825,-1.5825,-1.5825,-1.5825,-1.5825,-1.5825,-1.5825,-1.5825,-1.5825,-1.5825,-1.5825,-1.5825,-1.5832,-1.5825,-1.5825,-1.5825,-1.5825,-1.5825,-1.5825,-1.592,-1.5825,-1.5825,-1.5825,-1.5825,-1.6292,-1.7296,-1.7483,-1.703,-1.6842,-1.6662,-1.648,-1.5832,-1.5825,-1.5825,-1.5825,-1.5778,-1.5518,-1.509,-1.4816,-1.4549,-1.4122,-1.4095,-1.4001,-1.3888,-1.3801,-1.346,-1.3146,-1.2979,-1.2786,-1.2552,-1.2579,-1.2766,-1.2634,-1.2634,-1.2553,-1.2425,-1.2465,-1.2445,-1.2458,-1.2523,-1.3026,-1.3541,-1.3884,-1.4011,-1.4044,-1.3525,-1.3529,-1.3724,-1.291,-1.276,-1.2666,-1.2592,-1.2445,-1.2305,-1.2305,-1.2378,-1.2305,-1.2305,-1.2305,-1.2305,-1.2305,-1.2378,-1.2305,-1.2305,-1.2305,-1.2305,-1.2305,-1.2271,-1.2211,-1.2138,-1.2031,-1.1931,-1.185,-1.183,-1.179,-1.1911,-1.2078,-1.2064,-1.1997,-1.1837,-1.1507,-1.1027,-1.0863,-1.0822,-1.0668,-1.0631,-1.0618,-1.0618,-1.0618,-1.0618,-1.0618,-1.0611,-1.5825,-1.5825,-1.5825,-1.5825,-1.5825,-1.5825,-1.5825,-1.5825,-1.5825,-1.5825,-1.5825,-1.5825,-1.5825,-1.5825,-1.5825,-1.5825,-1.5825,-1.5825,-1.5825,-1.5825,-1.5825,-1.5825,-1.5825,-1.5825,-1.5825,-1.5825,-1.5825,-1.6015,-1.592,-1.592,-1.6008,-1.5825,-1.6015,-1.5825,-1.5825,-1.5825,-1.5825,-1.5825,-1.5825,-1.5565,-1.517,-1.4997,-1.4663,-1.4342,-1.4135,-1.4088,-1.4075,-1.3961,-1.3654,-1.3474,-1.3353,-1.3093,-1.2759,-1.2913,-1.3039,-1.2899,-1.2866,-1.2792,-1.2672,-1.2659,-1.2688,-1.2679,-1.2842,-1.3287,-1.3777,-1.3998,-1.3961,-1.3709,-1.3474,-1.316,-1.2812,-1.2607,-1.2493,-1.2425,-1.2378,-1.2305,-1.2305,-1.2305,-1.2305,-1.2305,-1.2305,-1.2305,-1.2305,-1.2305,-1.2305,-1.2305,-1.2305,-1.2305,-1.2305,-1.2305,-1.2285,-1.2238,-1.2218,-1.2171,-1.2138,-1.2091,-1.2091,-1.2104,-1.2218,-1.2258,-1.2211,-1.2131,-1.1991,-1.1627,-1.124,-1.1002,-1.0942,-1.0742,-1.0618,-1.0618,-1.0618,-1.0618,-1.0618,-1.0555,-1.0364,-1.5825,-1.5825,-1.5825,-1.5825,-1.5825,-1.5825,-1.5825,-1.5825,-1.5825,-1.5825,-1.5825,-1.5825,-1.5825,-1.5825,-1.5825,-1.5825,-1.5825,-1.5825,-1.5825,-1.5825,-1.5825,-1.5825,-1.5825,-1.5825,-1.5825,-1.5825,-1.5825,-1.5825,-1.5825,-1.5825,-1.5825,-1.5825,-1.5825,-1.5825,-1.5825,-1.5825,-1.5825,-1.5825,-1.5825,-1.5678,-1.5337,-1.509,-1.4783,-1.4489,-1.4235,-1.4082,-1.4075,-1.3895,-1.3714,-1.3486,-1.3494,-1.3327,-1.31,-1.324,-1.3287,-1.3213,-1.3173,-1.3126,-1.3086,-1.2946,-1.2876,-1.2913,-1.3193,-1.3506,-1.3823,-1.4032,-1.3915,-1.3721,-1.3607,-1.3307,-1.2973,-1.2775,-1.2538,-1.2378,-1.2305,-1.2305,-1.2305,-1.2305,-1.2305,-1.2305,-1.2305,-1.2305,-1.2305,-1.2305,-1.2305,-1.2305,-1.2305,-1.2305,-1.2305,-1.2305,-1.2305,-1.2291,-1.2291,-1.2278,-1.2285,-1.2251,-1.2211,-1.2198,-1.2265,-1.2291,-1.2285,-1.2191,-1.2118,-1.1891,-1.152,-1.1323,-1.1042,-1.0802,-1.0685,-1.0638,-1.0618,-1.0618,-1.0491,-1.0364,-1.004,-1.5825,-1.5825,-1.5825,-1.5825,-1.5825,-1.5825,-1.5825,-1.5825,-1.5825,-1.5825,-1.5825,-1.5825,-1.5825,-1.5825,-1.5825,-1.5825,-1.5825,-1.5825,-1.5825,-1.5825,-1.5825,-1.5825,-1.5825,-1.5825,-1.5825,-1.5825,-1.5825,-1.5825,-1.5825,-1.5825,-1.5825,-1.5825,-1.5825,-1.5825,-1.5825,-1.5825,-1.5825,-1.5825,-1.5805,-1.5685,-1.5398,-1.5117,-1.4823,-1.4529,-1.4235,-1.4102,-1.4068,-1.3995,-1.3828,-1.3632,-1.3694,-1.354,-1.3474,-1.3642,-1.3607,-1.3507,-1.348,-1.348,-1.3467,-1.3373,-1.338,-1.3527,-1.3647,-1.3632,-1.3861,-1.4035,-1.4041,-1.3908,-1.3748,-1.3454,-1.3146,-1.2859,-1.2625,-1.2412,-1.2318,-1.2338,-1.2305,-1.2305,-1.2305,-1.2305,-1.2305,-1.2305,-1.2305,-1.2305,-1.2305,-1.2305,-1.2305,-1.2305,-1.2305,-1.2305,-1.2305,-1.2305,-1.2305,-1.2305,-1.2305,-1.2305,-1.2305,-1.2305,-1.2305,-1.2305,-1.2305,-1.2298,-1.2191,-1.1997,-1.181,-1.155,-1.1243,-1.094,-1.0759,-1.0655,-1.0601,-1.0618,-1.0428,-1.004,-0.9524,-1.5825,-1.5825,-1.5825,-1.5825,-1.5825,-1.5825,-1.5825,-1.5825,-1.5825,-1.5825,-1.5825,-1.5825,-1.5825,-1.5825,-1.5825,-1.5825,-1.5825,-1.5825,-1.5825,-1.5825,-1.5825,-1.5825,-1.5825,-1.5825,-1.5825,-1.5825,-1.5825,-1.5825,-1.5825,-1.5825,-1.5825,-1.5825,-1.5825,-1.5825,-1.5825,-1.5825,-1.5825,-1.5825,-1.5805,-1.5752,-1.5504,-1.515,-1.4917,-1.4616,-1.4309,-1.4102,-1.4088,-1.4048,-1.3975,-1.3915,-1.3888,-1.3924,-1.3864,-1.3877,-1.3928,-1.3854,-1.3774,-1.3774,-1.3761,-1.3701,-1.3788,-1.3901,-1.3874,-1.3928,-1.4021,-1.4088,-1.4062,-1.4062,-1.3874,-1.3654,-1.3367,-1.318,-1.2872,-1.2665,-1.2525,-1.2498,-1.2358,-1.2305,-1.2305,-1.2305,-1.2305,-1.2311,-1.2305,-1.2305,-1.2305,-1.2305,-1.2305,-1.2305,-1.2305,-1.2305,-1.2305,-1.2305,-1.2305,-1.2305,-1.2305,-1.2305,-1.2305,-1.2305,-1.2305,-1.2305,-1.2305,-1.2231,-1.2298,-1.2164,-1.1977,-1.1764,-1.1372,-1.0873,-1.0752,-1.0728,-1.0456,-1.004,-0.9448,-0.9,-0.8672,-1.5825,-1.5825,-1.5825,-1.5825,-1.5825,-1.5825,-1.5825,-1.5825,-1.5825,-1.5825,-1.5825,-1.5825,-1.5825,-1.5825,-1.5825,-1.5825,-1.5825,-1.5825,-1.5825,-1.5825,-1.5825,-1.5825,-1.5825,-1.5825,-1.5825,-1.5825,-1.5825,-1.5825,-1.5825,-1.5825,-1.5825,-1.5825,-1.5825,-1.5825,-1.5825,-1.5825,-1.5825,-1.5825,-1.5825,-1.5798,-1.5671,-1.5271,-1.503,-1.479,-1.4422,-1.4182,-1.4088,-1.4088,-1.4041,-1.4035,-1.4035,-1.4015,-1.4001,-1.4001,-1.4055,-1.4035,-1.4035,-1.4048,-1.4048,-1.3801,-1.3854,-1.4035,-1.3995,-1.4041,-1.4075,-1.4088,-1.4088,-1.4082,-1.4028,-1.3888,-1.3728,-1.3554,-1.3193,-1.2933,-1.2792,-1.2705,-1.2579,-1.2512,-1.2559,-1.2472,-1.2371,-1.2318,-1.2311,-1.2305,-1.2305,-1.2305,-1.2305,-1.2305,-1.2305,-1.2305,-1.2305,-1.2305,-1.2305,-1.2305,-1.2305,-1.2305,-1.2305,-1.2305,-1.2305,-1.2305,-1.215,-1.1996,-1.2057,-1.2191,-1.1563,-1.0879,-1.0781,-1.0746,-1.0232,-0.9657,-0.9556,-0.9139,-0.8549,-0.8021,-0.7762,-1.5825,-1.5825,-1.5825,-1.5825,-1.5825,-1.5825,-1.5825,-1.5825,-1.5825,-1.5825,-1.5825,-1.5825,-1.5825,-1.5825,-1.5825,-1.5825,-1.5825,-1.5825,-1.5825,-1.5825,-1.5825,-1.5825,-1.5825,-1.5825,-1.5825,-1.5825,-1.5825,-1.5825,-1.5825,-1.5825,-1.5825,-1.5825,-1.5825,-1.5825,-1.5825,-1.5825,-1.5825,-1.5825,-1.5825,-1.5812,-1.5778,-1.5451,-1.515,-1.4963,-1.4556,-1.4275,-1.4102,-1.4088,-1.4088,-1.4088,-1.4088,-1.4088,-1.4088,-1.4088,-1.4088,-1.4088,-1.4088,-1.4088,-1.4082,-1.3981,-1.3981,-1.4062,-1.4088,-1.4088,-1.4088,-1.4088,-1.4088,-1.4088,-1.4088,-1.3928,-1.3707,-1.3647,-1.3394,-1.3173,-1.3053,-1.3046,-1.2979,-1.2959,-1.2939,-1.2739,-1.2599,-1.2452,-1.2398,-1.2392,-1.2385,-1.2318,-1.2305,-1.2305,-1.2305,-1.2305,-1.2305,-1.2305,-1.2305,-1.2305,-1.2305,-1.2305,-1.215,-1.2077,-1.215,-1.2305,-1.215,-1.162,-1.1385,-1.123,-1.0528,-0.9846,-0.9846,-0.9641,-0.8925,-0.8401,-0.8251,-0.8268,-0.7897,-0.7437,-0.7111,-1.5274,-1.4561,-1.5439,-1.5534,-1.5242,-1.5635,-1.5825,-1.5825,-1.5825,-1.5825,-1.5825,-1.5825,-1.5825,-1.5825,-1.5825,-1.5825,-1.5825,-1.5825,-1.5825,-1.5825,-1.5825,-1.5825,-1.5825,-1.5825,-1.5825,-1.5825,-1.5825,-1.5825,-1.5825,-1.5825,-1.5825,-1.5825,-1.5825,-1.5825,-1.5825,-1.5825,-1.5825,-1.5825,-1.5825,-1.5825,-1.5745,-1.5531,-1.5244,-1.497,-1.4663,-1.4389,-1.4175,-1.4088,-1.4088,-1.4095,-1.4088,-1.4088,-1.4088,-1.4088,-1.4088,-1.4088,-1.4088,-1.4088,-1.4082,-1.4082,-1.4062,-1.4082,-1.4088,-1.4088,-1.4088,-1.4088,-1.4088,-1.4088,-1.4088,-1.3988,-1.3834,-1.3781,-1.3661,-1.344,-1.336,-1.3353,-1.3227,-1.32,-1.3081,-1.2966,-1.2692,-1.2533,-1.2368,-1.2485,-1.2478,-1.2392,-1.2305,-1.2231,-1.2157,-1.2305,-1.2231,-1.2157,-1.2157,-1.2157,-1.2231,-1.2305,-1.2077,-1.1848,-1.1774,-1.1774,-1.1099,-1.0421,-1.034,-1.026,-0.9787,-0.9283,-0.8871,-0.8403,-0.7852,-0.7342,-0.7001,-0.6998,-0.7082,-0.6789,-0.6396,-1.4051,-1.2425,-1.4657,-1.4854,-1.4166,-1.4918,-1.5501,-1.5724,-1.573,-1.5825,-1.5825,-1.5825,-1.5825,-1.5825,-1.5825,-1.5825,-1.5825,-1.5825,-1.5825,-1.5825,-1.5825,-1.5825,-1.5825,-1.5825,-1.5825,-1.5825,-1.5825,-1.5825,-1.5825,-1.5825,-1.5825,-1.5825,-1.5825,-1.5825,-1.5825,-1.5825,-1.5825,-1.5825,-1.5825,-1.5825,-1.5772,-1.5598,-1.5344,-1.5077,-1.4816,-1.4556,-1.4349,-1.4208,-1.4162,-1.4135,-1.4102,-1.4095,-1.4088,-1.4088,-1.4088,-1.4088,-1.4088,-1.4088,-1.4088,-1.4088,-1.4088,-1.4088,-1.4088,-1.4088,-1.4088,-1.4088,-1.4088,-1.4088,-1.4088,-1.4088,-1.4041,-1.3988,-1.3928,-1.3781,-1.3667,-1.3554,-1.338,-1.324,-1.3147,-1.2982,-1.2587,-1.2368,-1.2016,-1.2018,-1.1815,-1.1558,-1.1328,-1.1329,-1.1477,-1.2231,-1.2077,-1.1848,-1.1929,-1.2003,-1.2003,-1.1626,-1.1323,-1.0795,-1.0714,-1.0645,-0.9895,-0.9442,-0.9291,-0.9216,-0.914,-0.8751,-0.7977,-0.7488,-0.7094,-0.6606,-0.6278,-0.6116,-0.6336,-0.609,-0.5752,-1.0904,-1.1929,-1.2753,-1.2813,-1.2501,-1.2819,-1.3305,-1.4023,-1.5229,-1.5825,-1.5825,-1.5825,-1.573,-1.5825,-1.5825,-1.5825,-1.5825,-1.5825,-1.5825,-1.5825,-1.5825,-1.5825,-1.5825,-1.5825,-1.5825,-1.573,-1.573,-1.5534,-1.5635,-1.5635,-1.5635,-1.5825,-1.554,-1.5635,-1.5635,-1.5825,-1.573,-1.573,-1.573,-1.5825,-1.5825,-1.5718,-1.5484,-1.5264,-1.5137,-1.489,-1.4656,-1.4436,-1.4289,-1.4157,-1.4083,-1.4095,-1.4088,-1.4088,-1.4088,-1.4088,-1.4088,-1.4088,-1.4088,-1.4088,-1.3913,-1.3828,-1.401,-1.4088,-1.4088,-1.3997,-1.3997,-1.3906,-1.3822,-1.3737,-1.3561,-1.3444,-1.3419,-1.3355,-1.3188,-1.3124,-1.2997,-1.2991,-1.2877,-1.2261,-1.195,-1.1491,-1.1152,-1.0874,-1.0606,-1.0429,-1.0334,-1.0396,-1.0651,-1.1403,-1.1626,-1.1323,-1.1168,-1.1099,-1.0576,-1.0126,-0.997,-0.9744,-0.9739,-0.9588,-0.914,-0.8689,-0.8389,-0.8161,-0.8008,-0.7557,-0.6868,-0.654,-0.66,-0.627,-0.5951,-0.5655,-0.546,-0.543,-0.5466,-0.8665,-1.0288,-1.1342,-1.1487,-1.1082,-1.1437,-1.1531,-1.1512,-1.3271,-1.4697,-1.5685,-1.5203,-1.5337,-1.5825,-1.5825,-1.5825,-1.5825,-1.5825,-1.5825,-1.5825,-1.573,-1.5825,-1.5825,-1.5629,-1.5013,-1.4918,-1.4638,-1.4561,-1.4561,-1.4274,-1.4172,-1.4172,-1.4663,-1.4663,-1.4567,-1.5051,-1.5432,-1.5343,-1.5439,-1.573,-1.573,-1.5724,-1.5651,-1.5378,-1.5319,-1.5106,-1.4787,-1.4441,-1.4328,-1.3944,-1.3809,-1.313,-1.2863,-1.2693,-1.2693,-1.2516,-1.2516,-1.2516,-1.2437,-1.2516,-1.2607,-1.2973,-1.3534,-1.3449,-1.3411,-1.33,-1.3385,-1.3379,-1.3294,-1.3209,-1.2948,-1.2687,-1.2687,-1.2595,-1.2595,-1.2595,-1.2583,-1.2583,-1.2064,-1.1433,-1.0904,-1.0372,-1.0049,-0.9697,-0.9602,-0.9715,-0.9745,-0.9706,-0.99,-1.0271,-1.0421,-1.0271,-1.0196,-1.004,-0.9442,-0.8993,-0.8993,-0.8917,-0.8689,-0.8537,-0.8232,-0.7855,-0.7403,-0.7099,-0.6795,-0.6493,-0.6416,-0.6405,-0.6325,-0.5996,-0.5857,-0.5762,-0.5633,-0.5538,-0.5508,-0.7343,-0.7861,-1.0168,-1.0366,-0.9591,-1.0513,-0.9824,-0.7948,-1.0384,-1.2714,-1.439,-1.4129,-1.4232,-1.4841,-1.5146,-1.5146,-1.5242,-1.5343,-1.5534,-1.5629,-1.5343,-1.5445,-1.5662,-1.5439,-1.4046,-1.3036,-1.2849,-1.3397,-1.2431,-1.2431,-1.2624,-1.1945,-1.3102,-1.3397,-1.2915,-1.4082,-1.437,-1.3974,-1.4465,-1.4949,-1.5337,-1.5501,-1.5422,-1.5032,-1.4823,-1.4682,-1.4282,-1.4232,-1.4209,-1.3806,-1.2839,-1.1746,-1.13,-1.0961,-1.0869,-1.0869,-1.1133,-1.1133,-1.1219,-1.1219,-1.1047,-1.1613,-1.2486,-1.2267,-1.2209,-1.2431,-1.251,-1.2339,-1.2163,-1.1992,-1.1735,-1.1563,-1.1563,-1.1563,-1.1563,-1.1563,-1.1563,-1.1305,-1.0758,-1.0167,-0.9714,-0.9266,-0.8941,-0.8686,-0.8399,-0.8839,-0.8892,-0.8774,-0.8851,-0.9081,-0.919,-0.9185,-0.9145,-0.8993,-0.8537,-0.8161,-0.8161,-0.8008,-0.7859,-0.7557,-0.7249,-0.6868,-0.6335,-0.6412,-0.649,-0.6412,-0.6335,-0.6251,-0.621,-0.6067,-0.5959,-0.5932,-0.5833,-0.5701,-0.5644,-0.7131,-0.725,-0.8188,-0.8266,-0.7971,-0.8238,-0.8042,-0.7286,-0.8018,-0.9128,-1.0032,-1.1512,-1.2459,-1.316,-1.404,-1.3945,-1.3471,-1.4555,-1.4949,-1.4561,-1.4364,-1.4694,-1.5032,-1.3908,-1.2608,-1.2318,-1.2129,-1.2042,-1.1556,-1.1653,-1.1848,-1.1848,-1.2328,-1.2037,-1.1653,-1.2915,-1.3022,-1.2522,-1.2823,-1.3596,-1.4076,-1.3301,-1.2769,-1.2822,-1.2868,-1.293,-1.2659,-1.234,-1.335,-1.4025,-1.2057,-1.1094,-1.0605,-1.0524,-1.0524,-1.0611,-1.0351,-1.0265,-1.0265,-1.0178,-1.0178,-1.0351,-1.0997,-1.0987,-1.1058,-1.1305,-1.13,-1.1128,-1.0956,-1.0783,-1.0519,-1.0438,-1.0351,-1.0351,-1.0351,-1.0351,-1.0351,-0.9923,-0.9318,-0.8969,-0.8444,-0.8174,-0.7955,-0.7704,-0.7449,-0.7258,-0.7194,-0.7145,-0.7346,-0.7585,-0.8021,-0.8061,-0.8192,-0.8021,-0.7557,-0.7399,-0.7403,-0.7173,-0.6945,-0.6641,-0.6338,-0.6338,-0.6261,-0.6261,-0.6338,-0.6261,-0.6261,-0.6257,-0.6196,-0.6101,-0.6057,-0.6027,-0.5983,-0.5871,-0.5823,-0.7031,-0.692,-0.7171,-0.7255,-0.7193,-0.7241,-0.7204,-0.7139,-0.7224,-0.7363,-0.7802,-0.9703,-1.1104,-1.1672,-1.2655,-1.2666,-1.2016,-1.3267,-1.3386,-1.3102,-1.3108,-1.3323,-1.3044,-1.2549,-1.1132,-1.0644,-1.028,-1.0092,-1.0386,-1.0096,-0.9998,-1.0391,-1.0583,-1.0774,-1.0681,-1.1277,-1.177,-1.117,-1.1179,-1.1663,-1.2425,-1.1843,-1.1848,-1.1945,-1.1843,-1.1813,-1.1702,-1.1356,-1.1692,-1.1839,-1.0018,-0.9178,-0.8877,-0.879,-0.8965,-0.8965,-0.8877,-0.9052,-0.9139,-0.9226,-0.9222,-0.9222,-0.9135,-0.8973,-0.8798,-0.9052,-0.9575,-0.9401,-0.9749,-0.9666,-0.8877,-0.8615,-0.8619,-0.8619,-0.8619,-0.8619,-0.8619,-0.836,-0.8101,-0.7925,-0.7661,-0.7552,-0.7411,-0.7235,-0.7026,-0.704,-0.6719,-0.6637,-0.6593,-0.6647,-0.695,-0.7164,-0.7399,-0.7219,-0.6872,-0.6718,-0.6563,-0.6412,-0.6261,-0.6338,-0.6338,-0.6338,-0.6261,-0.6261,-0.6261,-0.6261,-0.6261,-0.6261,-0.6251,-0.6186,-0.6152,-0.6125,-0.6078,-0.6054,-0.6064,-0.6927,-0.6734,-0.682,-0.6915,-0.6943,-0.7034,-0.7102,-0.7044,-0.7126,-0.7125,-0.7275,-0.857,-1.0027,-1.0749,-1.1377,-1.1303,-1.1552,-1.2167,-1.1956,-1.1745,-1.1653,-1.217,-1.2073,-1.1365,-0.9968,-0.8985,-0.8513,-0.8425,-0.8528,-0.8531,-0.8531,-0.8336,-0.863,-0.9217,-0.9324,-1.0319,-1.1306,-1.0203,-0.9908,-1.001,-1.0395,-1.0779,-1.097,-1.1263,-1.1444,-1.125,-1.1072,-1.0758,-1.0104,-0.9384,-0.8333,-0.7875,-0.7577,-0.7661,-0.7573,-0.7573,-0.7661,-0.7577,-0.7489,-0.7573,-0.7489,-0.7312,-0.7139,-0.7139,-0.7228,-0.7489,-0.8013,-0.8277,-0.8627,-0.8452,-0.7665,-0.7312,-0.7312,-0.7312,-0.7312,-0.7312,-0.7228,-0.7228,-0.7228,-0.7228,-0.7136,-0.7048,-0.7007,-0.6841,-0.6807,-0.6827,-0.68,-0.6729,-0.6692,-0.6756,-0.6913,-0.6951,-0.6925,-0.6665,-0.6298,-0.6261,-0.6261,-0.6261,-0.6261,-0.6261,-0.6261,-0.6261,-0.6261,-0.6261,-0.6261,-0.6261,-0.6261,-0.6261,-0.6251,-0.624,-0.622,-0.6193,-0.6213,-0.6213,-0.6312,-0.677,-0.6746,-0.6742,-0.681,-0.6902,-0.6831,-0.6919,-0.7099,-0.7021,-0.7024,-0.7192,-0.7355,-0.7902,-0.8472,-0.9575,-0.9707,-0.9444,-1.041,-1.0748,-1.0462,-1.0307,-1.0965,-1.1016,-0.9989,-0.8718,-0.8127,-0.8031,-0.8035,-0.8038,-0.8038,-0.8038,-0.8137,-0.8038,-0.8333,-0.8333,-0.913,-0.9229,-0.873,-0.863,-0.873,-0.863,-0.8821,-0.8627,-0.8726,-0.8722,-0.8704,-0.8612,-0.8387,-0.8175,-0.7756,-0.7479,-0.7177,-0.7139,-0.7139,-0.7139,-0.7139,-0.7139,-0.7139,-0.7139,-0.7139,-0.7139,-0.7139,-0.7139,-0.7139,-0.7139,-0.7139,-0.7489,-0.7489,-0.7665,-0.7665,-0.7139,-0.7139,-0.7228,-0.7228,-0.7139,-0.7139,-0.7139,-0.7139,-0.7139,-0.7139,-0.7139,-0.7092,-0.7,-0.6888,-0.6844,-0.6861,-0.6878,-0.682,-0.6858,-0.6898,-0.6915,-0.6773,-0.663,-0.6478,-0.6315,-0.6268,-0.6261,-0.6261,-0.6261,-0.6261,-0.6261,-0.6261,-0.6261,-0.6261,-0.6261,-0.6261,-0.6261,-0.6261,-0.6257,-0.6251,-0.6254,-0.6254,-0.6369,-0.6356,-0.6441]}]]